     2.10           OBSERVATION DATA    G (GPS)             RINEX VERSION / TYPE
teqc 2002Apr3 Duncan Agnew 20050511 23:58:25UTC             PGM / RUN BY / DATE
OSX 5.3|G3|cc|OSX 5.3+|G3+                                  COMMENT
BIT 2 OF LLI FLAGS DATA COLLECTED UNDER A/S CONDITION       COMMENT
HPGN CALIF 11-10 1990                                       MARKER NAME
2771                                                        MARKER NUMBER
Juan Cabrera Nolte Engineering                              OBSERVER / AGENCY
220242771 TRIMBLE 4800 NP 1.30 / SP 1.43                    REC # / TYPE / VERS
N/A TRM4800                                                 ANT # / TYPE
 -2333139.0000 -4807501.0000  3470371.0000                  APPROX POSITION XYZ
        2.0000        0.0000        0.0000                  ANTENNA: DELTA H/E/N
     1     1                                                WAVELENGTH FACT L1/2
     7    C1    L1    L2    P1    P2    S1    S2            # / TYPES OF OBSERV
SNR is mapped to RINEX snr flag value [1-9]                 COMMENT
L1: 3 -> 1; 8 -> 5; 40 -> 9                                 COMMENT
L2: 1 -> 1; 5 -> 5; 60 -> 9                                 COMMENT
  2004     7     6    20    14    0.0000000     GPS         TIME OF FIRST OBS
                                                            END OF HEADER
 04  7  6 20 14  0.0000000  0  7G 1G11G14G15G22G25G20
  23892383.0104     -81739.14959    -55521.85356                  23892386.0734
        45.0004         25.5004
  21704568.5014     -45426.29859    -33109.30357                  21704567.2354
        50.7504         38.2504
  21916111.7194      88373.95559     50310.77957                  21916109.8144
        44.5004         35.5004
  23962103.4294     153622.09159     94197.91056                  23962106.7194
        40.7504         22.2504
  23174761.5824      88444.60859     50599.29757                  23174759.4314
        41.7504         30.0004
  20430362.1144     -34325.84059    -26139.54158                  20430361.3084
        52.0004         44.7504
  24230805.0134     -88692.60359    -56249.12957                  24230805.0974
        40.7504         25.7504
 04  7  6 20 14 10.0000000  0  7G 1G11G14G15G22G25G20
  23887667.4254    -106517.19849    -74829.34047                  23887670.1294
        44.5004         26.7504
  21702365.8684     -57000.27649    -42127.97047                  21702364.7714
        50.7504         38.0004
  21920145.6934     109575.94749     66831.81047                  21920144.7864
        44.5004         35.7504
  23969422.5404     192080.08949    124165.09346                  23969425.3564
        40.2504         21.7504
  23178822.1994     109784.53649     67227.79947                  23178820.1844
        41.2504         31.0004
  20428717.8324     -42966.66349    -32872.65048                  20428716.8844
        52.7504         44.5004
  24225042.6504    -118975.63549    -79846.28746                  24225042.6114
        41.0004         24.0004
 04  7  6 20 14 20.0000000  0  7G 1G11G14G15G22G25G20
  23882940.7344    -131359.66249    -94187.12046                  23882942.7034
        45.0004         24.7504
  21700158.6714     -68600.52449    -51167.13247                  21700157.7524
        50.5004         37.0004
  21924166.2714     130704.08149     83295.27747                  21924164.4704
        45.0004         34.5004
  23976726.8314     230462.54749    154073.40746                  23976729.9324
        39.2504         22.0004
  23182871.3184     131062.57349     83808.09047                  23182869.7744
        41.2504         29.5004
  20427069.1014     -51632.10149    -39624.93148                  20427068.2124
        52.7504         44.2504
  24219262.8774    -149346.39649   -103511.83346                  24219262.8444
        40.5004         24.0004
 04  7  6 20 14 30.0000000  0  7G 1G11G14G15G22G25G20
  23878207.9484    -156230.98849   -113567.34747                  23878209.8344
        44.7504         27.2504
  21697952.9264     -80191.41649    -60198.99747                  21697951.6874
        50.7504         38.2504
  21928179.5434     151793.85749     99728.86947                  21928178.4444
        45.5004         35.2504
  23984022.4714     268804.97349    183950.56546                  23984026.2774
        39.5004         22.0004
  23186914.9984     152314.30849    100367.86447                  23186913.9564
        41.0004         29.0004
  20425422.1964     -60286.49549    -46368.60748                  20425421.1804
        53.5004         45.5004
  24213473.8854    -179769.16549   -127217.85646                  24213473.7764
        41.0004         24.0004
 04  7  6 20 14 40.0000000  0  7G 1G11G14G15G22G25G20
  23873473.3644    -181110.27249   -132953.79446                  23873474.6664
        44.7504         24.5004
  21695753.0444     -91752.09049    -69207.31647                  21695751.5184
        50.7504         37.2504
  21932189.7934     172866.19649    116148.87147                  21932188.4324
        45.2504         35.7504
  23991315.5924     307128.22149    213812.79346                  23991318.9034
        40.0004         21.5004
  23190957.9764     173560.60649    116923.39147                  23190956.4604
        41.0004         29.2504
  20423781.3444     -68908.93249    -53087.39448                  20423780.3684
        52.5004         45.5004
  24207679.1354    -210223.11049   -150948.13646                  24207679.4654
        40.0004         24.7504
 04  7  6 20 14 50.0000000  0  7G 1G11G14G15G22G25G20
  23868739.4694    -205983.35549   -152335.37347                  23868742.6854
        43.5004         26.7504
  21693561.5004    -103268.30149    -78180.98047                  21693560.3854
        50.5004         37.2504
  21936199.0974     193935.17349    132566.25147                  21936197.7284
        44.7504         36.0004
  23998607.0184     345446.30849    243670.97746                  23998610.5624
        39.5004         22.5004
  23195003.0994     194815.56749    133485.69547                  23195001.1404
        41.7504         29.0004
  20422149.6894     -77485.21649    -59770.20448                  20422148.6624
        53.0004         45.7504
  24201880.2814    -240693.96949   -174691.62546                  24201880.6104
        41.2504         24.5004
 04  7  6 20 15  0.0000000  0  7G 1G11G14G15G22G25G20
  23864008.8034    -230843.92949   -171707.22147                  23864011.6774
        43.2504         25.7504
  21691379.8104    -114733.62249    -87114.99547                  21691379.0084
        50.0004         37.7504
  21940208.8184     215007.11649    148985.93547                  21940207.5424
        44.7504         36.0004
  24005899.0734     383765.53549    273529.96846                  24005902.5194
        38.7504         22.7504
  23199050.7994     216085.66249    150059.76447                  23199048.6824
        41.5004         29.5004
  20420527.2934     -86009.01049    -66412.11248                  20420526.3534
        52.5004         45.2504
  24196079.5434    -271175.39749   -198443.34746                  24196080.1074
        41.0004         23.0004
 04  7  6 20 15 10.0000000  0  7G 1G11G14G15G22G25G20
  23859281.1094    -255690.24749   -191067.95746                  23859283.4804
        44.0004         24.0004
  21689208.0404    -126146.41449    -96008.07447                  21689206.6604
        50.2504         37.5004
  21944219.9224     236083.58449    165409.15547                  21944218.1064
        45.2504         35.7504
  24013191.7984     422087.46349    303391.17946                  24013195.2794
        38.5004         22.5004
  23203100.9274     237372.51349    166646.89847                  23203099.4474
        42.5004         28.5004
  20418915.5924     -94478.58749    -73011.78148                  20418914.5074
        52.7504         45.0004
  24190277.8874    -301665.63449   -222202.00446                  24190277.6014
        41.0004         24.2504
 04  7  6 20 15 20.0000000  0  7G 1G11G14G15G22G25G20
  23854556.1684    -280516.66249   -210413.22346                  23854559.0144
        43.5004         24.7504
  21687047.4164    -137500.90049   -104855.72547                  21687045.8304
        50.2504         37.5004
  21948232.2984     257170.26749    181840.34147                  21948230.7954
        46.2504         35.5004
  24020485.8624     460417.70049    333258.74746                  24020489.0494
        38.0004         23.0004
  23207156.3274     258681.80749    183251.53947                  23207154.8514
        42.0004         29.0004
  20417315.4314    -102888.22249    -79564.74148                  20417314.2144
        53.7504         45.0004
  24184475.4144    -332158.98149   -245962.96746                  24184475.2064
        40.5004         24.0004
 04  7  6 20 15 30.0000000  0  7G 1G11G14G15G22G25G20
  23849835.7444    -305326.30449   -229745.34547                  23849837.6584
        43.5004         26.7504
  21684897.3434    -148800.21549   -113660.38147                  21684896.0034
        51.0004         36.5004
  21952246.6584     278264.03149    198277.01647                  21952245.2964
        47.2504         34.7504
  24027780.2394     498752.92549    363130.26446                  24027784.1914
        38.5004         21.7504
  23211214.7524     280010.41349    199871.20047                  23211213.1744
        43.2504         29.0004
  20415725.6054    -111241.12349    -86073.49048                  20415724.7834
        53.7504         44.2504
  24178671.1614    -362658.57249   -269728.85146                  24178671.0694
        40.5004         23.0004
 04  7  6 20 15 40.0000000  0  7G 1G11G14G15G22G25G20
  23845117.0764    -330118.22549   -249063.69847                  23845119.6634
        43.5004         26.0004
  21682757.8484    -160043.42749   -122421.33547                  21682756.3534
        50.5004         38.0004
  21956261.9404     299365.64249    214719.83147                  21956260.5364
        46.0004         35.5004
  24035076.7824     537094.04349    393006.42746                  24035080.3284
        39.2504         24.0004
  23215277.8564     301359.23349    216506.61647                  23215276.2884
        43.5004         28.7504
  20414147.4104    -119536.33349    -92537.29148                  20414146.0024
        53.0004         45.0004
  24172866.8834    -393163.46049   -293498.90746                  24172866.2334
        39.7504         23.0004
 04  7  6 20 15 50.0000000  0  7G 1G11G14G15G22G25G20
  23840402.6544    -354895.01549   -268370.27747                  23840405.9194
        44.0004         27.2504
  21680628.4234    -171233.01849   -131140.48547                  21680626.6084
        50.7504         37.7504
  21960278.4474     320472.47049    231166.70147                  21960277.4674
        46.7504         35.7504
  24042373.5274     575438.28949    422884.94846                  24042377.0294
        38.5004         22.7504
  23219343.4434     322725.74049    233155.84047                  23219342.0394
        42.5004         29.7504
  20412579.1854    -127776.49949    -98958.18948                  20412578.2134
        54.0004         45.0004
  24167060.0754    -423676.24049   -317275.06546                  24167059.8964
        39.5004         23.0004
 04  7  6 20 16  0.0000000  0  7G 1G11G14G15G22G25G20
  23835691.0354    -379655.11949   -287663.83547                  23835693.6924
        43.7504         28.0004
  21678509.5074    -182367.42849   -139816.65247                  21678508.3124
        50.5004         38.0004
  21964296.4224     341586.15749    247618.91047                  21964294.7864
        46.0004         35.5004
  24049670.7244     613787.20249    452767.12146                  24049674.5754
        39.0004         25.0004
  23223412.9484     344111.44049    249819.99047                  23223411.1424
        41.0004         29.2504
  20411021.9224    -135960.00549   -105334.94948                  20411021.0714
        53.7504         45.7504
  24161252.2474    -454195.18649   -341056.04346                  24161252.5914
        39.5004         22.2504
 04  7  6 20 16 10.0000000  0  7G 1G11G14G15G22G25G20
  23830981.9354    -404401.50349   -306946.67747                  23830984.5924
        43.7504         27.2504
  21676400.6604    -193449.72749   -148452.20747                  21676399.1454
        51.0004         37.7504
  21968314.7384     362703.60649    264074.06947                  21968313.7794
        46.2504         36.0004
  24056968.7384     652137.64549    482650.55746                  24056972.7884
        40.0004         22.5004
  23227485.2364     365513.32349    266496.75747                  23227484.3514
        40.7504         29.5004
  20409475.2484    -144089.88849   -111669.91548                  20409473.9744
        53.7504         45.5004
  24155442.5064    -484723.35349   -364844.20146                  24155443.0444
        38.0004         22.5004
 04  7  6 20 16 20.0000000  0  7G 1G11G14G15G22G25G20
  23826275.9064    -429134.25149   -326218.92647                  23826278.2424
        44.2504         26.5004
  21674301.5194    -204479.80249   -157047.06247                  21674300.1154
        50.7504         37.5004
  21972334.0904     383824.76449    280532.11547                  21972333.2084
        45.0004         36.0004
  24064266.8324     690489.46349    512534.96846                  24064270.6444
        39.7504         24.0004
  23231561.3424     386931.33549    283186.11347                  23231559.7574
        40.2504         29.5004
  20407938.2284    -152166.06649   -117963.03248                  20407936.7474
        54.7504         45.2504
  24149631.5724    -515260.66049   -388639.44646                  24149631.6644
        37.0004         21.7504
 04  7  6 20 16 30.0000000  0  7G 1G11G14G15G22G25G20
  23821571.4224    -453855.45649   -345482.16647                  23821574.1854
        44.0004         27.5004
  21672212.5214    -215459.73349   -165602.85347                  21672210.8234
        51.0004         37.2504
  21976353.2634     404947.41549    296991.31347                  21976351.9894
        45.0004         35.7504
  24071565.4764     728840.50349    542418.83046                  24071568.6514
        39.5004         24.7504
  23235639.2754     408363.46949    299886.44047                  23235638.1404
        40.0004         29.5004
  20406410.9894    -160190.68549   -124215.98648                  20406409.6984
        54.2504         45.0004
  24143818.9044    -545809.29349   -412443.59446                  24143817.8374
        37.0004         21.0004
 04  7  6 20 16 40.0000000  0  7G 1G11G14G15G22G25G20
  23816869.5684    -478563.12949   -364734.87947                  23816872.3104
        44.2504         26.5004
  21670132.7754    -226387.49749   -174117.98647                  21670131.0294
        50.2504         37.0004
  21980373.7094     426073.56949    313453.24247                  21980372.0124
        46.5004         35.5004
  24078864.0344     767192.69549    572303.51946                  24078867.2704
        40.2504         23.7504
  23239720.8834     429811.71849    316599.34947                  23239719.9484
        41.0004         29.0004
  20404894.1594    -168161.74949   -130427.19548                  20404893.1034
        54.5004         44.5004
  24138003.8084    -576367.02149   -436254.73946                  24138003.2124
        36.2504         22.2504
 04  7  6 20 16 50.0000000  0  7G 1G11G14G15G22G25G20
  23812169.9234    -503258.62749   -383978.09347                  23812172.9304
        43.2504         28.0004
  21668063.0044    -237264.43949   -182593.52747                  21668061.4784
        50.2504         38.0004
  21984394.1604     447201.77449    329916.77947                  21984392.9054
        47.5004         35.7504
  24086161.9764     805544.53149    602188.03746                  24086165.2724
        41.7504         24.5004
  23243805.2344     451274.61549    333323.66747                  23243804.5204
        41.2504         28.7504
  20403387.4074    -176080.65649   -136597.77248                  20403386.4114
        54.7504         45.5004
  24132186.3494    -606935.47049   -460074.30546                  24132186.4194
        37.0004         21.0004
 04  7  6 20 17  0.0000000  0  7G 1G11G14G15G22G25G20
  23807472.9384    -527941.89449   -403211.76847                  23807476.2884
        44.0004         27.7504
  21666002.8584    -248090.41649   -191029.34847                  21666001.5794
        50.0004         37.5004
  21988414.8344     468332.05949    346381.92947                  21988413.8474
        48.0004         35.0004
  24093460.2094     843895.97149    632072.16646                  24093463.3664
        42.5004         24.7504
  23247891.8854     472752.38549    350059.57047                  23247891.1674
        43.0004         28.2504
  20401890.2864    -183947.29449   -142727.60348                  20401889.2484
        53.7504         45.2504
  24126368.4114    -637514.30549   -483901.87646                  24126367.3714
        36.5004         20.5004
 04  7  6 20 17 10.0000000  0  7G 1G11G14G15G22G25G20
  23802778.4574    -552612.92049   -422435.93747                  23802780.8934
        43.7504         27.5004
  21663952.3144    -258865.36049   -199425.41547                  21663951.2014
        49.5004         38.0004
  21992436.8174     489464.40249    362848.68747                  21992435.7244
        48.5004         36.0004
  24100758.8744     882247.02349    661955.98547                  24100761.8184
        42.7504         26.0004
  23251982.3824     494244.92349    366806.98747                  23251980.9374
        43.0004         29.7504
  20400403.5044    -191761.48749   -148816.58748                  20400401.9984
        54.5004         45.5004
  24120545.4624    -668103.59348   -507737.70446                  24120546.0704
        35.0004         18.5004
 04  7  6 20 17 20.0000000  0  7G 1G11G14G15G22G25G20
  23798085.0674    -577275.00949   -441653.10447                  23798087.5764
        43.0004         28.0004
  21661911.2104    -269592.66649   -207784.34847                  21661909.9094
        51.0004         38.0004
  21996457.6054     510595.44349    379314.42847                  21996456.3614
        47.5004         35.7504
  24108055.4774     920594.16849    691836.78747                  24108059.2504
        43.0004         26.0004
  23256074.4574     515748.93949    383563.34447                  23256073.1244
        44.2504         29.0004
  20398925.7534    -199526.71949   -154867.41548                  20398924.5334
        54.0004         45.5004
  24114722.7384    -698706.63649   -531584.18946                  24114722.5414
        36.0004         18.2504
 04  7  6 20 17 30.0000000  0  7G 1G11G14G15G22G25G20
  23793393.6194    -601927.52049   -460862.80847                  23793396.5984
        42.7504         27.0004
  21659879.2174    -280271.53349   -216105.53147                  21659878.0304
        48.0004         37.5004
  22000478.4174     531725.83949    395779.66747                  22000477.4064
        48.2504         35.0004
  24115352.7874     958938.06149    721715.11146                  24115355.3304
        43.7504         25.5004
  23260168.7304     537265.10149    400329.15647                  23260167.8894
        44.5004         29.5004
  20397457.4404    -207242.23449   -160879.49848                  20397456.3344
        54.0004         45.2504
  24108896.3084    -729322.47649   -555440.65646                  24108896.5174
        36.7504         17.5004
 04  7  6 20 17 40.0000000  0  6G 1G11G14G22G25G20
  23788705.2994    -626568.32449   -480063.39046                  23788708.0594
        42.7504         25.2504
  21657856.5234    -290899.89749   -224387.38947                  21657855.2804
        50.0004         38.0004
  22004499.7664     552857.66549    412246.01547                  22004498.6454
        48.5004         35.2504
  23264266.3044     558795.53049    417106.08647                  23264264.7474
        44.5004         30.5004
  20395999.0054    -214905.89149   -166851.18248                  20395997.6584
        53.7504         45.0004
  24103068.3184    -759949.25749   -579305.65546                  24103068.7874
        36.7504         18.2504
 04  7  6 20 17 50.0000000  0  6G 1G11G14G22G25G20
  23784017.9534    -651198.20449   -499255.49947                  23784020.6004
        42.5004         26.0004
  21655843.5744    -301478.52649   -232630.48447                  21655842.0164
        50.0004         37.2504
  22008521.3384     573990.01349    428712.75847                  22008519.8834
        48.2504         34.7504
  23268366.2544     580339.35849    433893.44747                  23268365.0664
        45.2504         30.0004
  20394550.6274    -222518.56549   -172783.14448                  20394549.4444
        54.5004         44.5004
  24097237.8904    -790587.65649   -603179.73246                  24097238.4394
        36.0004         19.0004
 04  7  6 20 18  0.0000000  0  6G 1G11G14G22G25G20
  23779333.0834    -675818.79749   -518440.32647                  23779335.6944
        42.7504         26.2504
  21653839.4344    -312008.96049   -240835.99647                  21653837.8524
        50.0004         37.7504
  22012542.4414     595121.21149    445178.63247                  22012541.3684
        47.7504         35.5004
  23272468.1884     601894.97349    450690.00247                  23272466.8824
        45.7504         30.5004
  20393111.1324    -230081.87849   -178676.60948                  20393109.9394
        54.0004         45.2504
  24091404.8524    -821239.24449   -627063.93746                  24091405.4934
        37.5004         19.5004
 04  7  6 20 18 10.0000000  0  6G 1G11G14G22G25G20
  23774649.2634    -700427.95249   -537616.27946                  23774651.8534
        42.7504         25.2504
  21651845.4924    -322489.03049   -249002.28547                  21651843.5554
        50.0004         38.0004
  22016564.2374     616253.37949    461645.24747                  22016562.6254
        47.5004         35.2504
  23276572.4624     623464.57149    467497.47647                  23276571.2674
        46.2504         30.2504
  20391682.0754    -237593.66349   -184529.95448                  20391680.5854
        52.7504         45.0004
  24085570.2364    -851901.86249   -650956.96446                  24085570.6744
        37.7504         19.0004
 04  7  6 20 18 20.0000000  0  6G 1G11G14G22G25G20
  23769968.9224    -725027.82449   -556784.97847                  23769971.2344
        43.7504         26.7504
  21649860.0864    -332920.82249   -257130.95247                  21649858.7504
        50.0004         38.0004
  22020584.6894     637384.30049    478110.90447                  22020583.3054
        49.0004         36.0004
  23280679.4324     645045.93049    484314.12447                  23280678.0314
        46.0004         29.7504
  20390261.8144    -245056.17149   -190344.87948                  20390260.8064
        54.0004         45.2504
  24079733.8454    -882577.66649   -674860.14146                  24079733.1254
        38.0004         17.7504
 04  7  6 20 18 30.0000000  0  6G 1G11G14G22G25G20
  23765288.6534    -749618.74749   -575946.68847                  23765291.8884
        43.0004         27.5004
  21647884.4414    -343304.65349   -265222.24347                  21647883.1294
        49.7504         38.2504
  22024605.5664     658513.63749    494575.30247                  22024604.3134
        48.5004         35.5004
  23284788.5884     666638.83649    501139.73547                  23284786.8734
        46.0004         31.5004
  20388850.8594    -252469.54949   -196121.53448                  20388849.9294
        54.2504         45.2504
  24073893.3484    -913266.85849   -698773.75346                  24073893.0264
        37.0004         18.5004
 04  7  6 20 18 40.0000000  0  6G 1G11G14G22G25G20
  23760611.8094    -774198.85649   -595100.01946                  23760614.7454
        43.0004         25.5004
  21645917.5244    -353638.70849   -273274.75147                  21645916.4064
        50.2504         38.0004
  22028626.5774     679643.23149    511039.91647                  22028625.2994
        47.7504         35.0004
  23288899.7394     688245.07949    517975.73647                  23288898.4264
        44.2504         31.0004
  20387449.9984    -259832.04749   -201858.54648                  20387449.1604
        53.7504         45.0004
  24068051.0444    -943967.61449   -722696.41546                  24068050.8064
        39.5004         19.0004
 04  7  6 20 18 50.0000000  0  6G 1G11G14G22G25G20
  23755936.0484    -798768.96549   -614245.50847                  23755938.9534
        43.0004         27.0004
  21643960.3384    -363923.81249   -281289.12147                  21643959.5094
        50.5004         38.5004
  22032647.2614     700772.21249    527504.05347                  22032645.8004
        47.0004         35.5004
  23293013.6904     709863.75649    534821.44347                  23293012.3374
        42.2504         30.5004
  20386058.6984    -267144.46049   -207556.52648                  20386057.2274
        54.7504         45.0004
  24062206.6874    -974680.72749   -746628.67546                  24062206.6584
        38.7504         18.5004
 04  7  6 20 19  0.0000000  0  6G 1G11G14G22G25G20
  23751261.9634    -823330.05349   -633383.98946                  23751264.5764
        43.0004         25.5004
  21642012.6764    -374160.83449   -289266.02747                  21642011.0054
        50.0004         37.5004
  22036667.3874     721899.55049    543966.90947                  22036666.2244
        47.0004         34.7504
  23297129.7204     731494.05949    551676.20947                  23297128.7794
        41.0004         29.2504
  20384676.3664    -274407.67949   -213216.17848                  20384675.0174
        55.0004         44.5004
  24056359.4944   -1005407.04849   -770571.28346                  24056359.6974
        40.0004         20.5004
 04  7  6 20 19 10.0000000  0  6G 1G11G14G22G25G20
  23746589.9154    -847881.84349   -652515.23346                  23746592.9844
        42.5004         25.0004
  21640073.6384    -384349.38549   -297205.15947                  21640072.2244
        49.0004         38.5004
  22040687.7954     743025.45949    560428.65447                  22040686.4044
        48.5004         35.5004
  23301248.2374     753136.16849    568540.17147                  23301246.9744
        42.7504         31.0004
  20383303.5794    -281621.46349   -218837.30448                  20383302.2314
        54.5004         45.5004
  24050510.0954   -1036146.34049   -794523.93746                  24050509.7154
        39.2504         21.0004
 04  7  6 20 19 20.0000000  0  6G 1G11G14G22G25G20
  23741920.0504    -872422.82049   -671638.02147                  23741922.5444
        42.2504         27.0004
  21638144.4964    -394487.96049   -305105.33347                  21638143.4004
        49.5004         38.0004
  22044707.7384     764151.52249    576890.52647                  22044706.5404
        48.7504         35.7504
  23305368.7144     774791.70949    585414.58147                  23305368.0414
        44.7504         30.5004
  20381940.7854    -288784.20249   -224418.65748                  20381939.2664
        54.7504         45.2504
  24044658.7214   -1066896.93549   -818485.40446                  24044658.6254
        40.2504         20.5004
 04  7  6 20 19 30.0000000  0  6G 1G11G14G22G25G20
  23737251.9794    -896954.28249   -690753.42347                  23737254.5634
        42.5004         25.7504
  21636224.1704    -404577.94649   -312967.65847                  21636223.3604
        50.5004         39.0004
  22048727.4604     785276.23749    593351.32347                  22048726.0064
        49.0004         35.7504
  23309493.0814     796459.24549    602298.36247                  23309491.4484
        45.7504         30.7504
  20380586.9414    -295897.30849   -229961.33548                  20380585.7664
        54.5004         45.5004
  24038804.9464   -1097660.24249   -842456.75946                  24038804.6924
        40.2504         20.5004
 04  7  6 20 19 40.0000000  0  6G 1G11G14G22G25G20
  23732584.8784    -921475.20849   -709860.59946                  23732588.4264
        42.2504         25.5004
  21634313.8254    -414618.18349   -320791.22047                  21634312.0054
        49.0004         39.0004
  22052747.3294     806400.75149    609811.97447                  22052746.1924
        49.2504         36.0004
  23313618.2184     818139.92649    619192.37747                  23313617.1724
        45.5004         30.7504
  20379242.9844    -302959.64349   -235464.45348                  20379241.8724
        54.5004         45.5004
  24032947.5444   -1128435.11349   -866437.17146                  24032948.2244
        41.0004         21.5004
 04  7  6 20 19 50.0000000  0  6G 1G11G14G22G25G20
  23727920.7764    -945986.55349   -728960.33146                  23727923.7454
        42.2504         25.5004
  21632412.2624    -424609.65349   -328576.77347                  21632410.8824
        50.0004         38.2504
  22056767.2924     827523.87749    626271.54347                  22056765.8134
        49.0004         35.7504
  23317746.0814     839832.71649    636095.83047                  23317744.6364
        46.0004         30.0004
  20377908.5914    -309972.23149   -240928.79748                  20377907.3814
        55.2504         45.5004
  24027089.3894   -1159222.49449   -890427.29546                  24027089.7134
        42.2504         21.7504
 04  7  6 20 19 59.9990000  0  6G 1G11G14G22G25G20
  23723258.5994    -970486.70849   -748051.27546                  23723261.4824
        41.7504         25.2504
  21630520.4364    -434552.05049   -336324.10547                  21630518.9284
        49.0004         38.0004
  22060786.0214     848642.78149    642727.83247                  22060784.7954
        49.0004         35.5004
  23321876.6264     861534.66149    653006.40847                  23321874.9164
        46.0004         31.0004
  20376583.7224    -316935.11149   -246354.41148                  20376582.4674
        54.5004         45.0004
  24021228.0514   -1190020.02749   -914425.40946                  24021229.0844
        42.0004         21.0004
 04  7  6 20 20  9.9990000  0  6G 1G11G14G22G25G20
  23718598.6604    -994979.08149   -767136.21346                  23718600.7664
        42.5004         25.0004
  21628637.8474    -444445.99649   -344033.67347                  21628636.4114
        51.0004         37.5004
  22064804.8464     869763.10149    659185.21447                  22064804.0204
        49.2504         35.2504
  23326008.8114     883251.47349    669928.57647                  23326006.8414
        45.7504         30.5004
  20375267.9404    -323848.27649   -251741.29648                  20375266.9354
        54.5004         44.5004
  24015365.3474   -1220832.40049   -938434.97346                  24015365.5154
        42.5004         22.2504
 04  7  6 20 20 19.9990000  0  6G 1G11G14G22G25G20
  23713939.8164   -1019460.82749   -786212.87947                  23713941.7554
        43.0004         26.0004
  21626764.3214    -454289.96749   -351704.29447                  21626763.0024
        51.0004         38.5004
  22068824.1364     890883.07249    675642.32247                  22068822.5684
        49.0004         36.2504
  23330143.4004     904981.48049    686861.02247                  23330142.5824
        45.7504         31.2504
  20373962.1924    -330710.66049   -257088.59048                  20373960.6404
        54.0004         45.2504
  24009499.1474   -1251656.05549   -962453.45046                  24009499.9514
        43.0004         22.5004
 04  7  6 20 20 29.9990000  0  6G 1G11G14G22G25G20
  23709283.0114   -1043932.15949   -805281.43846                  23709285.5864
        43.0004         25.2504
  21624900.5954    -464084.14549   -359336.11547                  21624899.3034
        51.2504         38.2504
  22072843.0034     912002.36749    692098.91547                  22072841.7974
        48.5004         36.0004
  23334281.4244     926724.42049    703803.55347                  23334280.5964
        46.0004         31.5004
  20372665.8744    -337522.47449   -262396.50848                  20372664.7694
        54.7504         45.0004
  24003631.8284   -1282491.23149   -986480.77346                  24003631.9794
        42.5004         21.2504
 04  7  6 20 20 39.9990000  0  6G 1G11G14G22G25G20
  23704627.4304   -1068391.94349   -824340.97447                  23704630.6704
        42.5004         26.5004
  21623046.1284    -473827.44649   -366928.29247                  21623044.9234
        51.0004         38.5004
  22076862.1624     933122.10149    708555.83947                  22076861.0004
        48.7504         36.0004
  23338421.5074     948481.43149    720757.03747                  23338420.3904
        45.5004         32.0004
  20371379.3844    -344282.55449   -267664.08348                  20371378.3234
        54.5004         45.2504
  23997762.1124   -1313336.72949  -1010516.24746                  23997762.6904
        43.5004         23.7504
 04  7  6 20 20 49.9990000  0  6G 1G11G14G22G25G20
  23699975.5814   -1092840.60549   -843391.88447                  23699977.9964
        43.0004         26.2504
  21621202.1204    -483520.25949   -374481.13047                  21621200.8664
        51.0004         38.7504
  22080880.7404     954241.83249    725012.77147                  22080879.9444
        48.2504         35.5004
  23342564.1654     970252.08849    737721.16247                  23342562.7824
        45.2504         32.0004
  20370102.9714    -350991.33649   -272891.70848                  20370101.5564
        54.0004         45.0004
  23991890.0224   -1344193.05149  -1034560.07646                  23991890.8714
        42.5004         22.7504
 04  7  6 20 20 59.9990000  0  6G 1G11G14G22G25G20
  23695325.3414   -1117278.56649   -862434.38446                  23695327.4814
        42.2504         24.5004
  21619366.9924    -493162.95649   -381994.92847                  21619365.3714
        50.0004         38.5004
  22084900.1474     975361.12549    741469.35847                  22084898.8394
        48.2504         35.7504
  23346710.0744     992035.98649    754695.59447                  23346708.4484
        45.7504         31.5004
  20368836.2174    -357649.21449   -278079.66948                  20368834.7604
        54.2504         45.0004
  23986016.7514   -1375060.50349  -1058612.63846                  23986016.6614
        42.7504         23.7504
 04  7  6 20 21  9.9990000  0  6G 1G11G14G22G25G20
  23690676.3034   -1141706.60249   -881469.16446                  23690679.1174
        43.0004         24.7504
  21617541.6464    -502756.36649   -389470.30247                  21617540.6434
        50.5004         38.5004
  22088918.1364     996479.16749    757924.95147                  22088917.0614
        48.7504         35.5004
  23350857.2704    1013832.31649    771679.74547                  23350856.3914
        46.0004         31.5004
  20367578.3244    -364256.98949   -283228.56948                  20367577.4634
        54.5004         44.7504
  23980140.6324   -1405939.83249  -1082674.42146                  23980140.3654
        43.5004         23.5004
 04  7  6 20 21 19.9990000  0  6G 1G11G14G22G25G20
  23686029.8564   -1166125.83949   -900497.14746                  23686032.3194
        42.5004         23.2504
  21615725.1614    -512301.46749   -396908.05047                  21615724.0234
        50.5004         38.2504
  22092936.2014    1017594.77249    774378.68547                  22092935.1534
        47.7504         35.0004
  23355007.3024    1035639.98849    788672.71247                  23355006.1194
        45.0004         30.5004
  20366330.4284    -370815.76649   -288339.31748                  20366328.9304
        54.7504         44.7504
  23974261.3934   -1436832.06549  -1106746.28047                  23974261.9384
        43.5004         26.0004
 04  7  6 20 21 29.9990000  0  6G 1G11G14G22G25G20
  23681384.4904   -1190534.77049   -919517.04746                  23681387.0644
        42.7504         24.2504
  21613918.6034    -521796.70549   -404306.93747                  21613917.2664
        48.7504         38.5004
  22096954.7404    1038709.42249    790831.64747                  22096953.0534
        46.7504         36.0004
  23359159.8324    1057460.52149    805675.69447                  23359158.5674
        45.0004         30.2504
  20365091.9364    -377324.05049   -293410.70348                  20365090.6264
        54.2504         45.0004
  23968381.1564   -1467735.67749  -1130826.96746                  23968381.5274
        44.0004         25.2504
 04  7  6 20 21 39.9990000  0  6G 1G11G14G22G25G20
  23676741.7614   -1214934.27949   -938529.65547                  23676744.2844
        43.0004         25.7504
  21612120.5574    -531242.94449   -411667.63447                  21612119.6294
        48.5004         38.5004
  22100972.4414    1059822.16049    807283.13247                  22100971.0254
        46.2504         35.5004
  23363313.6874    1079293.06149    822688.03347                  23363313.1914
        45.0004         30.5004
  20363862.9744    -383782.63249   -298443.35548                  20363861.5804
        54.0004         45.0004
  23962498.1924   -1498651.52849  -1154917.22746                  23962498.6034
        43.0004         25.0004
 04  7  6 20 21 49.9990000  0  6G 1G11G14G22G25G20
  23672101.3134   -1239323.34549   -957534.07446                  23672103.3534
        43.2504         25.5004
  21610332.8504    -540639.23949   -418989.41647                  21610331.8034
        47.2504         39.0004
  22104989.4684    1080934.00449    823733.89947                  22104987.9934
        46.2504         35.2504
  23367471.2684    1101138.46249    839710.40747                  23367470.3014
        45.0004         30.7504
  20362643.4524    -390190.52349   -303436.51748                  20362642.1694
        54.0004         45.0004
  23956613.2034   -1529578.54149  -1179016.17547                  23956613.3354
        43.5004         26.7504
 04  7  6 20 21 59.9990000  0  6G 1G11G14G22G25G20
  23667462.2104   -1263701.73049   -976530.17146                  23667463.9744
        43.5004         25.2504
  21608554.2684    -549985.21549   -426271.99847                  21608552.7074
        49.0004         39.0004
  22109006.8584    1102045.17749    840184.16347                  22109005.7284
        46.5004         36.0004
  23371630.4294    1122997.11649    856743.10447                  23371629.4884
        44.7504         31.2504
  20361433.8344    -396547.52049   -308390.01648                  20361432.9074
        54.7504         45.2504
  23950725.9054   -1560516.43949  -1203123.58246                  23950725.7664
        43.5004         25.2504
 04  7  6 20 22  9.9990000  0  6G 1G11G14G22G25G20
  23662824.3904   -1288069.37449   -995517.93046                  23662826.7024
        43.0004         25.2504
  21606785.1634    -559280.81349   -433515.31047                  21606784.0084
        48.5004         38.0004
  22113023.8924    1123155.67849    856633.89947                  22113023.0034
        44.5004         35.0004
  23375792.7874    1144869.02849    873786.12947                  23375792.0314
        44.7504         31.0004
  20360233.9024    -402853.54249   -313303.79348                  20360232.8204
        53.7504         45.0004
  23944836.4484   -1591465.15849  -1227239.41946                  23944836.5204
        43.2504         24.7504
 04  7  6 20 22 19.9990000  0  6G 1G11G14G22G25G20
  23658189.2524   -1312426.75749  -1014497.69447                  23658191.8704
        43.5004         26.0004
  21605026.1204    -568526.48749   -440719.73847                  21605024.2444
        48.2504         38.0004
  22117041.2594    1144264.98849    873082.70247                  22117039.9624
        45.7504         35.0004
  23379958.0134    1166753.74349    890839.10847                  23379956.2344
        46.0004         30.5004
  20359043.5194    -409109.10549   -318178.25648                  20359042.1284
        54.7504         45.2504
  23938944.9334   -1622425.05849  -1251363.99547                  23938944.9984
        43.2504         26.5004
 04  7  6 20 22 29.9990000  0  6G 1G11G14G22G25G20
  23653556.0334   -1336774.61249  -1033469.98546                  23653558.6814
        43.5004         25.2504
  21603276.0454    -577723.07049   -447885.90447                  21603274.4214
        48.5004         38.5004
  22121057.8814    1165372.27949    889529.94447                  22121056.8174
        46.7504         35.0004
  23384124.2184    1188650.42049    907901.43447                  23384123.1704
        45.5004         30.5004
  20357862.3724    -415314.92349   -323013.95648                  20357861.1004
        54.5004         45.2504
  23933051.1274   -1653396.93349  -1275497.88847                  23933051.5254
        43.0004         27.0004
 04  7  6 20 22 39.9990000  0  6G 1G11G14G22G25G20
  23648924.7574   -1361113.00349  -1052434.94546                  23648927.3684
        43.7504         24.5004
  21601534.8624    -586870.61049   -455013.87547                  21601533.5774
        48.5004         38.2504
  22125073.6774    1186477.43949    905975.49347                  22125072.7274
        46.0004         35.2504
  23388293.5594    1210559.10449    924973.12847                  23388292.3284
        45.7504         30.2504
  20356690.7434    -421471.03949   -327810.93948                  20356689.6004
        54.0004         44.7504
  23927154.7154   -1684380.75849  -1299641.12747                  23927154.8544
        43.5004         26.5004
 04  7  6 20 22 49.9990000  0  6G 1G11G14G22G25G20
  23644295.5594   -1385441.09049  -1071391.88547                  23644297.2624
        43.7504         26.2504
  21599803.8544    -595968.08849   -462102.80547                  21599802.6544
        49.7504         39.0004
  22129089.5804    1207581.38749    922420.14547                  22129088.6574
        46.2504         35.0004
  23392465.4134    1232480.66249    942054.83847                  23392464.1814
        46.0004         31.5004
  20355529.0864    -427576.56149   -332568.48048                  20355527.9194
        54.5004         45.2504
  23921256.9204   -1715375.59849  -1323792.88047                  23921257.0184
        44.0004         27.0004
 04  7  6 20 22 59.9990000  0  6G 1G11G14G22G25G20
  23639668.1144   -1409758.76149  -1090340.70847                  23639669.6574
        44.0004         25.7504
  21598082.2554    -605015.41649   -469152.66547                  21598081.4544
        50.0004         39.0004
  22133105.4094    1228684.20549    938863.89747                  22133104.6384
        47.0004         35.0004
  23396639.2684    1254415.16349    959146.63247                  23396637.8344
        45.5004         31.0004
  20354376.7414    -433631.42549   -337286.54548                  20354375.6664
        54.2504         45.5004
  23915356.6364   -1746381.33849  -1347953.19547                  23915356.4794
        43.5004         26.0004
 04  7  6 20 23  9.9990000  0  6G 1G11G14G22G25G20
  23635041.7154   -1434067.38249  -1109282.42147                  23635043.8274
        43.7504         26.7504
  21596370.2764    -614013.99549   -476164.54348                  21596368.5684
        49.5004         39.5004
  22137120.9384    1249784.33049    955305.54147                  22137120.1674
        46.2504         35.5004
  23400815.7334    1276361.20349    976247.41947                  23400813.8354
        45.5004         31.2504
  20353234.0274    -439637.01549   -341966.22648                  20353233.1134
        55.0004         45.5004
  23909454.0054   -1777399.29149  -1372122.97647                  23909454.0574
        44.0004         26.5004
 04  7  6 20 23 19.9990000  0  6G 1G11G14G22G25G20
  23630418.3734   -1458365.02649  -1128215.61847                  23630420.0984
        43.5004         25.7504
  21594667.2024    -622961.80049   -483136.86247                  21594666.0494
        49.0004         39.0004
  22141135.8124    1270883.75149    971746.65347                  22141135.3444
        46.5004         35.5004
  23404994.1364    1298320.76449    993358.76147                  23404993.0074
        45.7504         30.5004
  20352100.9904    -445591.43249   -346606.02248                  20352100.1314
        53.7504         45.0004
  23903549.7034   -1808427.47949  -1396300.77947                  23903549.5914
        43.2504         26.7504
 04  7  6 20 23 29.9990000  0  6G 1G11G14G22G25G20
  23625796.8974   -1482651.92849  -1147140.49747                  23625798.9154
        44.5004         26.0004
  21592973.9764    -631858.99449   -490069.73547                  21592973.0514
        50.5004         38.2504
  22145150.3954    1291982.22949    988187.01647                  22145149.8644
        47.5004         35.2504
  23409175.2054    1320293.55249   1010480.36847                  23409173.6694
        45.0004         30.5004
  20350977.5034    -451494.91049   -351206.13048                  20350976.6594
        53.7504         44.7504
  23897643.2304   -1839466.18249  -1420486.73847                  23897643.3924
        43.5004         26.2504
 04  7  6 20 23 39.9990000  0  6G 1G11G14G22G25G20
  23621176.6614   -1506928.33949  -1166057.17846                  23621179.1134
        44.2504         25.2504
  21591291.0994    -640705.73949   -496963.30347                  21591290.0264
        50.0004         39.0004
  22149165.1814    1313079.52049   1004626.45847                  22149164.4444
        46.5004         35.5004
  23413358.9914    1342279.46449   1027612.23647                  23413357.4804
        44.5004         29.5004
  20349863.7614    -457347.63249   -355766.69148                  20349862.6974
        53.7504         44.7504
  23891734.6204   -1870515.50849  -1444681.00947                  23891734.5394
        43.2504         26.7504
 04  7  6 20 23 49.9990000  0  6G 1G11G14G22G25G20
  23616559.0804   -1531195.30249  -1184966.45047                  23616560.7124
        44.7504         26.5004
  21589616.8234    -649503.12249   -503818.42247                  21589615.3604
        50.0004         38.0004
  22153179.3534    1334174.41849   1021064.02447                  22153178.4514
        45.2504         34.7504
  23417545.3384    1364277.39249   1044753.44347                  23417544.0634
        45.5004         29.7504
  20348759.3254    -463150.66349   -360288.55148                  20348758.3974
        53.5004         44.2504
  23885823.9584   -1901576.51649  -1468884.36047                  23885823.7104
        43.2504         26.2504
 04  7  6 20 23 59.9990000  0  6G 1G11G14G22G25G20
  23611943.5604   -1555452.75649  -1203868.36047                  23611944.7944
        44.2504         27.0004
  21587951.7464    -658251.06249   -510634.98047                  21587950.8864
        49.7504         38.5004
  22157193.5724    1355267.00449   1037499.82547                  22157192.0394
        46.0004         34.7504
  23421733.4184    1386287.43249   1061904.10047                  23421732.3204
        43.5004         30.2504
  20347664.8284    -468903.94349   -364771.60248                  20347663.6704
        53.2504         45.0004
  23879910.9824   -1932649.09049  -1493096.71747                  23879910.3414
        42.7504         27.0004
 04  7  6 20 24  9.9990000  0  6G 1G11G14G22G25G20
  23607329.0714   -1579700.62049  -1222762.73947                  23607330.3054
        43.7504         25.7504
  21586296.7114    -666949.53249   -517413.01247                  21586295.3154
        49.5004         38.2504
  22161207.0994    1376357.34549   1053933.84247                  22161205.3534
        46.0004         35.7504
  23425924.1984    1408309.54449   1079064.17247                  23425922.9674
        44.2504         30.5004
  20346579.3724    -474607.38749   -369215.83948                  20346578.4134
        53.5004         45.0004
  23873996.3584   -1963733.14349  -1517318.05247                  23873995.7974
        42.5004         26.0004
 04  7  6 20 24 19.9990000  0  6G 1G11G14G22G25G20
  23602716.6924   -1603935.98749  -1241647.40747                  23602718.9124
        44.0004         27.2504
  21584651.2074    -675595.59949   -524150.21147                  21584650.4984
        49.5004         39.0004
  22165220.1804    1397448.29149   1070368.34247                  22165219.0264
        45.0004         35.5004
  23430118.1354    1430346.65249   1096235.92547                  23430116.6444
        45.0004         31.5004
  20345504.0974    -480258.05149   -373618.95248                  20345503.1204
        53.0004         45.5004
  23868079.1584   -1994825.69349  -1541545.97346                  23868078.8834
        41.5004         25.5004
 04  7  6 20 24 29.9990000  0  6G 1G11G14G22G25G20
  23598107.4594   -1628159.50449  -1260522.82747                  23598109.4614
        45.0004         27.5004
  21583016.0774    -684189.84349   -530847.02547                  21583014.4804
        49.7504         39.0004
  22169233.5604    1418539.16649   1086802.79247                  22169232.4384
        45.5004         35.2504
  23434313.9064    1452398.13349   1113418.86347                  23434313.1874
        44.2504         31.5004
  20344438.8044    -485856.60549   -377981.45148                  20344437.2864
        53.0004         45.0004
  23862160.6724   -2025927.30249  -1565780.95947                  23862160.5244
        42.5004         25.7504
 04  7  6 20 24 39.9990000  0  6G 1G11G14G22G25G20
  23593499.8064   -1652372.93549  -1279390.41947                  23593501.9234
        44.5004         27.7504
  21581390.0164    -692734.05949   -537504.85547                  21581388.6734
        49.2504         39.0004
  22173247.1244    1439628.08949   1103235.70147                  22173245.7424
        44.7504         35.0004
  23438512.4144    1474462.17049   1130611.60347                  23438511.8804
        44.0004         31.0004
  20343382.8614    -491404.86449   -382304.77548                  20343381.9074
        54.0004         44.7504
  23856240.0594   -2057039.71749  -1590024.37346                  23856239.5114
        41.2504         25.5004
 04  7  6 20 24 49.9990000  0  6G 1G11G14G22G25G20
  23588894.0384   -1676577.12449  -1298250.78847                  23588895.7654
        44.5004         27.0004
  21579773.4374    -701228.99949   -544124.29347                  21579772.3644
        49.2504         39.0004
  22177259.4434    1460714.29249   1119666.51547                  22177258.1894
        44.5004         34.0004
  23442713.1474    1496538.03149   1147813.54047                  23442712.7464
        44.0004         29.2504
  20342336.3244    -496903.66049   -386589.54548                  20342335.3894
        53.7504         44.5004
  23850317.1584   -2088163.74949  -1614276.83246                  23850316.8734
        42.0004         24.7504
 04  7  6 20 24 59.9990000  0  6G 1G11G14G22G25G20
  23584290.5914   -1700767.56549  -1317100.44747                  23584292.6944
        44.7504         26.2504
  21578167.0234    -709670.15749   -550701.83447                  21578165.8834
        50.0004         38.0004
  22181272.3394    1481802.18749   1136098.63247                  22181271.1034
        44.5004         34.0004
  23446917.6874    1518630.12749   1165028.13847                  23446916.4644
        44.5004         29.2504
  20341300.2204    -502348.48749   -390832.28448                  20341299.1254
        54.2504         44.2504
  23844393.3864   -2119294.87349  -1638534.79246                  23844392.8904
        41.2504         24.7504
 04  7  6 20 25  9.9990000  0  6G 1G11G14G22G25G20
  23579688.4434   -1724948.66949  -1335942.85147                  23579691.2184
        45.0004         26.7504
  21576570.5064    -718061.94049   -557240.86547                  21576569.0244
        49.5004         38.7504
  22185285.4564    1502887.37349   1152528.64347                  22185283.4794
        44.5004         34.5004
  23451124.0324    1540734.10249   1182252.00647                  23451123.1324
        43.7504         29.0004
  20340273.9224    -507743.72349   -395036.34348                  20340272.2534
        52.7504         45.0004
  23838467.0314   -2150437.42649  -1662801.70946                  23838466.1614
        41.7504         24.7504
 04  7  6 20 25 19.9990000  0  6G 1G11G14G22G25G20
  23575089.5004   -1749119.21549  -1354777.02447                  23575091.7284
        45.0004         27.7504
  21574982.9064    -726403.05149   -563740.42547                  21574982.0034
        50.0004         38.5004
  22189296.6854    1523970.96249   1168957.42547                  22189295.3714
        45.0004         35.0004
  23455332.3194    1562851.13849   1199486.02647                  23455331.5854
        44.5004         27.5004
  20339256.5454    -513088.22349   -399200.87348                  20339255.6824
        53.0004         45.0004
  23832539.3684   -2181590.15249  -1687076.52846                  23832538.8334
        42.0004         23.5004
 04  7  6 20 25 29.9990000  0  6G 1G11G14G22G25G20
  23570492.2334   -1773277.41449  -1373601.55647                  23570494.6674
        45.5004         26.5004
  21573405.3094    -734691.70649   -570199.11348                  21573404.3244
        49.5004         39.7504
  22193308.9814    1545054.72849   1185386.33847                  22193307.8934
        45.0004         35.0004
  23459544.2044    1584983.00449   1216731.62047                  23459543.0704
        43.5004         28.7504
  20338249.6044    -518380.18349   -403324.48448                  20338248.5084
        53.5004         45.0004
  23826608.6314   -2212751.21149  -1711357.84546                  23826608.9554
        42.2504         25.5004
 04  7  6 20 25 39.9990000  0  6G 1G11G14G22G25G20
  23565897.9994   -1797423.47549  -1392416.64247                  23565899.3644
        45.0004         27.2504
  21571838.5274    -742928.14349   -576617.12747                  21571837.1904
        50.5004         38.7504
  22197321.1244    1566138.44249   1201815.20247                  22197319.7784
        46.0004         34.7504
  23463758.4044    1607129.48149   1233988.59447                  23463756.9374
        44.0004         28.0004
  20337252.7144    -523619.81649   -407407.30448                  20337251.0054
        53.7504         45.0004
  23820677.4284   -2243920.75749  -1735645.76546                  23820677.9094
        42.0004         24.5004
 04  7  6 20 25 49.9990000  0  6G 1G11G14G22G25G20
  23561304.4374   -1821559.69749  -1411224.04747                  23561306.6474
        44.7504         26.7504
  21570280.5044    -751114.57549   -582996.16647                  21570279.4334
        50.2504         38.7504
  22201332.6034    1587219.79649   1218242.23347                  22201331.5354
        46.2504         35.0004
  23467975.1764    1629288.45149   1251255.29347                  23467974.1744
        43.0004         28.0004
  20336265.0994    -528809.39549   -411451.13048                  20336263.8534
        53.5004         44.7504
  23814744.0294   -2275100.97649  -1759942.02846                  23814744.3934
        41.7504         22.5004
 04  7  6 20 25 59.9990000  0  6G 1G11G14G22G25G20
  23556713.3864   -1845684.92649  -1430022.89646                  23556715.4484
        44.7504         25.2504
  21568732.0344    -759249.83649   -589335.32747                  21568730.7414
        50.5004         38.7504
  22205343.8774    1608299.87349   1234668.25047                  22205342.9284
        46.5004         34.7504
  23472194.1474    1651460.95349   1268532.55747                  23472193.5524
        44.0004         28.0004
  20335287.0744    -533947.76149   -415455.04048                  20335285.8324
        53.5004         44.7504
  23808808.8444   -2306290.78649  -1784245.74246                  23808808.7424
        42.0004         24.5004
 04  7  6 20 26  9.9990000  0  6G 1G11G14G22G25G20
  23552124.8684   -1869798.57249  -1448812.74447                  23552126.7874
        44.5004         26.2504
  21567194.1424    -767333.33249   -595634.15747                  21567192.9084
        50.7504         38.2504
  22209355.0814    1629379.25249   1251093.74147                  22209353.8004
        46.0004         34.2504
  23476416.4394    1673647.52949   1285820.78047                  23476415.1464
        43.2504         27.0004
  20334319.4444    -539034.28049   -419418.57048                  20334317.9244
        53.2504         44.2504
  23802871.9604   -2337489.48749  -1808556.41346                  23802871.8274
        42.2504         23.2504
 04  7  6 20 26 19.9990000  0  6G 1G11G14G22G25G20
  23547538.1444   -1893900.75249  -1467593.61147                  23547540.4414
        44.0004         27.2504
  21565665.7044    -775365.13749   -601892.71047                  21565664.6574
        51.2504         39.0004
  22213366.5154    1650457.77449   1267518.55447                  22213365.5204
        46.7504         34.5004
  23480641.0464    1695848.08449   1303119.87847                  23480639.8744
        44.0004         27.2504
  20333361.2194    -544069.13949   -423341.83348                  20333359.8764
        53.7504         45.5004
  23796933.1534   -2368697.18949  -1832874.06347                  23796933.1384
        42.2504         25.7504
 04  7  6 20 26 29.9990000  0  6G 1G11G14G22G25G20
  23542954.7444   -1917988.95549  -1486363.62247                  23542956.8564
        44.5004         27.5004
  21564147.6764    -783342.71449   -608108.99847                  21564146.2884
        50.5004         38.5004
  22217377.6974    1671537.95049   1283944.66147                  22217376.8544
        47.5004         34.0004
  23484869.1074    1718065.03449   1320431.79247                  23484868.0254
        41.7504         26.5004
  20332413.2534    -549049.81349   -427222.86348                  20332412.1834
        53.0004         45.0004
  23790993.3674   -2399911.32749  -1857196.70446                  23790993.0694
        42.2504         22.7504
 04  7  6 20 26 39.9990000  0  6G 1G11G14G22G25G20
  23538372.3014   -1942065.52649  -1505124.56147                  23538375.3134
        43.7504         28.0004
  21562639.4314    -791268.34849   -614284.82247                  21562638.0334
        50.7504         39.2504
  22221389.4144    1692617.35949   1300370.15647                  22221388.1924
        48.0004         34.5004
  23489099.2444    1740296.22749   1337754.77547                  23489098.1124
        43.5004         27.7504
  20331475.5864    -553978.59749   -431063.47448                  20331474.1224
        53.0004         45.0004
  23785052.2704   -2431134.14049  -1881526.16346                  23785051.7184
        41.7504         22.7504
 04  7  6 20 26 49.9990000  0  6G 1G11G14G22G25G20
  23533792.6044   -1966132.43649  -1523877.96547                  23533795.3184
        44.0004         26.2504
  21561140.7274    -799144.11849   -620421.79347                  21561139.6004
        51.5004         39.0004
  22225400.0554    1713693.95949   1316793.49247                  22225398.8944
        47.0004         34.5004
  23493332.2094    1762539.58049   1355087.22147                  23493330.8244
        43.5004         26.7504
  20330546.9594    -558857.55149   -434865.25648                  20330546.0474
        53.7504         45.0004
  23779107.8844   -2462367.60249  -1905863.91646                  23779107.7334
        42.5004         23.2504
 04  7  6 20 26 59.9990000  0  6G 1G11G14G22G25G20
  23529214.7144   -1990188.76149  -1542623.09947                  23529216.9124
        43.5004         27.0004
  21559651.6584    -806968.95449   -626519.05947                  21559650.4314
        51.0004         39.0004
  22229410.6964    1734768.73349   1333215.38347                  22229409.2614
        47.5004         34.5004
  23497567.1744    1784796.07749   1372429.93947                  23497566.1294
        43.0004         26.5004
  20329627.9424    -563685.70249   -438627.44048                  20329626.9604
        53.2504         45.0004
  23773163.3214   -2493610.75149  -1930209.21546                  23773162.3884
        43.0004         23.5004
 04  7  6 20 27  9.9990000  0  6G 1G11G14G22G25G20
  23524639.4154   -2014236.29849  -1561361.40847                  23524641.1654
        42.0004         27.5004
  21558172.2514    -814744.73549   -632578.11247                  21558171.1224
        51.0004         38.7504
  22233419.8924    1755839.78349   1349634.37247                  22233418.8924
        47.5004         34.5004
  23501804.8434    1807063.82249   1389781.40647                  23501803.8904
        44.5004         26.5004
  20328718.6094    -568464.98549   -442351.56048                  20328717.1084
        53.0004         44.7504
  23767214.5104   -2524865.32249  -1954563.38546                  23767214.7994
        43.0004         22.5004
 04  7  6 20 27 19.9990000  0  6G 1G11G14G22G25G20
  23520064.8064   -2038271.52449  -1580090.13047                  23520067.8604
        42.5004         26.2504
  21556702.7584    -822467.84649   -638596.12247                  21556701.3634
        51.0004         38.5004
  22237429.7244    1776910.62349   1366053.19647                  22237428.6464
        48.0004         34.0004
  23506044.1284    1829346.34449   1407144.41447                  23506043.5344
        43.5004         26.0004
  20327819.3174    -573191.72849   -446034.73548                  20327818.2714
        52.7504         44.0004
  23761266.8784   -2556127.79149  -1978923.72346                  23761265.7564
        43.0004         24.0004
 04  7  6 20 27 29.9990000  0  6G 1G11G14G22G25G20
  23515493.5384   -2062295.36749  -1598809.99447                  23515495.7844
        42.7504         27.2504
  21555242.8654    -830139.21549   -644573.81047                  21555241.5404
        51.0004         39.0004
  22241439.1044    1797980.31749   1382471.14047                  22241438.4144
        48.0004         35.0004
  23510287.8264    1851642.84749   1424518.29747                  23510286.5014
        43.5004         27.0004
  20326929.3644    -577866.79349   -449677.63148                  20326928.4754
        53.7504         44.7504
  23755315.5004   -2587399.05149  -2003290.87646                  23755315.2954
        42.7504         24.7504
 04  7  6 20 27 39.9990000  0  6G 1G11G14G22G25G20
  23510924.4544   -2086306.42849  -1617519.83847                  23510926.8984
        41.7504         27.0004
  21553792.9134    -837757.41649   -650510.07447                  21553791.6014
        50.0004         39.2504
  22245448.4354    1819050.24549   1398889.25847                  22245447.1814
        48.0004         34.5004
  23514533.8184    1873954.60149   1441904.06247                  23514532.5304
        42.7504         27.2504
  20326049.9824    -582488.90149   -453279.27548                  20326049.1054
        52.7504         44.5004
  23749363.5874   -2618677.59749  -2027663.78346                  23749362.8244
        43.5004         24.0004
 04  7  6 20 27 49.9990000  0  6G 1G11G14G22G25G20
  23506357.5444   -2110305.45749  -1636220.35747                  23506359.4864
        41.5004         27.2504
  21552352.9694    -845323.13549   -656405.44348                  21552352.2714
        50.7504         39.5004
  22249458.0154    1840119.57149   1415306.90247                  22249456.7234
        47.7504         35.2504
  23518782.2674    1896280.90049   1459301.13047                  23518780.7054
        43.0004         27.5004
  20325180.2734    -587058.74349   -456840.18548                  20325178.8444
        53.0004         45.0004
  23743409.5144   -2649964.11849  -2052042.82946                  23743409.5784
        43.7504         24.7504
 04  7  6 20 27 59.9990000  0  6G 1G11G14G22G25G20
  23501793.0794   -2134293.23549  -1654912.10647                  23501794.8904
        40.7504         27.0004
  21550923.5284    -852837.22949   -662260.57147                  21550922.1244
        50.7504         39.2504
  22253467.3584    1861187.46649   1431723.44447                  22253465.6444
        48.0004         34.5004
  23523033.6714    1918620.90149   1476708.89047                  23523032.3364
        43.0004         29.2504
  20324320.7044    -591577.14849   -460361.02148                  20324319.5314
        52.7504         45.2504
  23737454.7664   -2681259.44549  -2076428.77946                  23737454.0884
        43.0004         24.0004
 04  7  6 20 28  9.9990000  0  6G 1G11G14G22G25G20
  23497229.7754   -2158269.75549  -1673595.06647                  23497232.8594
        40.0004         28.0004
  21549503.1374    -860299.59249   -668075.40447                  21549502.2664
        51.0004         39.0004
  22257476.1044    1882253.89449   1448138.83847                  22257474.4374
        48.5004         35.2504
  23527287.5674    1940974.70349   1494127.40547                  23527286.4124
        44.5004         29.0004
  20323470.8174    -596044.11049   -463841.76148                  20323469.4664
        53.2504         44.5004
  23731497.6254   -2712563.42049  -2100821.49646                  23731497.0134
        43.0004         23.5004
 04  7  6 20 28 19.9990000  0  6G 1G11G14G22G25G20
  23492669.6904   -2182235.04849  -1692269.28047                  23492672.0224
        39.7504         26.5004
  21548093.0214    -867710.27649   -673849.96547                  21548091.8094
        50.5004         38.5004
  22261484.1494    1903318.92549   1464553.14247                  22261482.9314
        48.0004         34.5004
  23531543.7834    1963342.29149   1511556.66547                  23531543.2224
        42.0004         29.0004
  20322630.4134    -600459.76549   -467282.53448                  20322629.3924
        53.0004         44.7504
  23725538.6504   -2743876.04049  -2125220.91746                  23725538.7664
        43.2504         25.5004
 04  7  6 20 28 29.9990000  0  6G 1G11G14G22G25G20
  23488110.8564   -2206190.10149  -1710935.49647                  23488113.4604
        38.2504         26.0004
  21546692.5364    -875070.22949   -679584.98647                  21546691.8274
        50.2504         38.5004
  22265492.7334    1924381.44149   1480965.48347                  22265491.3324
        48.0004         34.0004
  23535802.6734    1985722.59549   1528995.86147                  23535801.8474
        43.2504         29.0004
  20321799.8274    -604824.99249   -470684.00448                  20321798.8824
        52.5004         44.0004
  23719578.4394   -2775198.27149  -2149627.81546                  23719578.5764
        43.7504         25.5004
 04  7  6 20 28 39.9990000  0  6G 1G11G14G22G25G20
  23483555.3974   -2230132.92949  -1729592.23647                  23483557.4334
        39.7504         27.5004
  21545302.2314    -882377.45049   -685278.93047                  21545300.7544
        50.0004         39.2504
  22269500.4744    1945443.42549   1497377.40447                  22269499.4724
        48.2504         34.5004
  23540064.7844    2008117.70249   1546446.57547                  23540063.4214
        42.7504         30.2504
  20320979.0984    -609137.75649   -474044.59548                  20320977.5864
        53.0004         45.0004
  23713616.3184   -2806527.99849  -2174040.57646                  23713616.7224
        44.0004         24.0004
 04  7  6 20 28 49.9990000  0  6G 1G11G14G22G25G20
  23479000.8854   -2254064.39549  -1748240.09947                  23479003.2074
        41.0004         28.0004
  21543921.4704    -889632.83249   -690932.46748                  21543919.9154
        50.5004         39.5004
  22273508.2154    1966503.91749   1513788.18147                  22273507.4624
        47.2504         34.7504
  23544328.5604    2030526.73249   1563908.13247                  23544327.6824
        43.2504         29.7504
  20320168.1024    -613399.05049   -477365.06848                  20320166.8654
        53.2504         45.0004
  23707653.1754   -2837866.21249  -2198459.94746                  23707652.8284
        44.2504         24.2504
 04  7  6 20 28 59.9990000  0  6G 1G11G14G22G25G20
  23474449.4904   -2277984.28249  -1766878.94047                  23474451.3994
        39.0004         28.0004
  21542550.5564    -896836.10449   -696545.41648                  21542549.8564
        50.0004         39.5004
  22277515.3804    1987563.16849   1530197.96147                  22277514.4364
        47.2504         35.0004
  23548595.1884    2052949.79649   1581380.61747                  23548594.5624
        44.7504         31.2504
  20319366.7924    -617608.60749   -480645.25148                  20319365.3744
        52.7504         44.7504
  23701688.4464   -2869212.50049  -2222885.59447                  23701687.5724
        44.2504         26.0004
 04  7  6 20 29  9.9990000  0  6G 1G11G14G22G25G20
  23469899.6744   -2301891.11449  -1785507.60247                  23469902.1684
        41.7504         26.5004
  21541189.9714    -903985.77149   -702116.58847                  21541188.9364
        50.5004         39.2504
  22281522.9264    2008622.56049   1546607.87847                  22281521.6984
        47.2504         35.0004
  23552865.6784    2075388.30849   1598865.14447                  23552864.7154
        43.5004         30.5004
  20318575.8554    -621764.97649   -483883.97948                  20318574.7544
        53.0004         44.7504
  23695721.7974   -2900565.37749  -2247316.38047                  23695721.6984
        44.7504         25.7504
 04  7  6 20 29 19.9990000  0  6G 1G11G14G22G25G20
  23465352.6494   -2325785.22049  -1804126.33847                  23465355.3174
        38.0004         27.5004
  21539839.3114    -911082.11249   -707646.19047                  21539838.6584
        50.7504         39.0004
  22285530.5354    2029681.88249   1563017.72647                  22285529.3274
        48.0004         34.2504
  23557137.9644    2097842.16649   1616361.63447                  23557137.6094
        43.5004         29.7504
  20317795.1864    -625868.37849   -487081.42948                  20317793.9894
        52.5004         44.7504
  23689754.1424   -2931925.06849  -2271752.53846                  23689754.0094
        44.2504         24.7504
 04  7  6 20 29 29.9990000  0  6G 1G11G14G22G25G20
  23460807.5624   -2349666.45349  -1822735.06047                  23460810.7544
        39.0004         27.2504
  21538499.2364    -918125.02549   -713134.17947                  21538498.3694
        51.2504         38.5004
  22289537.8854    2050741.11749   1579427.50747                  22289536.7774
        47.5004         34.5004
  23561414.4054    2120311.35749   1633870.07247                  23561413.3294
        44.0004         29.7504
  20317024.6134    -629918.91049   -490237.68448                  20317023.3054
        52.7504         44.7504
  23683785.6654   -2963291.47849  -2296193.84446                  23683784.6324
        44.2504         23.5004
 04  7  6 20 29 39.9990000  0  6G 1G11G14G22G25G20
  23456266.0534   -2373535.70749  -1841334.45047                  23456268.7424
        38.7504         26.5004
  21537169.0774    -925115.27749   -718581.13247                  21537168.1684
        51.0004         38.0004
  22293545.4454    2071799.38149   1595836.53447                  22293544.2284
        48.0004         34.0004
  23565692.3094    2142795.04749   1651389.79047                  23565691.7064
        44.2504         29.7504
  20316263.4194    -633917.36149   -493353.35848                  20316262.1974
        52.7504         43.7504
  23677815.1724   -2994665.36849  -2320641.01447                  23677814.6544
        44.7504         26.0004
 04  7  6 20 29 49.9990000  0  6G 1G11G14G22G25G20
  23451725.5394   -2397394.44849  -1859925.62447                  23451728.6244
        40.5004         28.2504
  21535848.3904    -932054.37049   -723988.21947                  21535847.9834
        51.0004         39.0004
  22297551.9894    2092855.18049   1612243.66247                  22297550.6744
        47.5004         35.2504
  23569973.7334    2165291.73349   1668919.63947                  23569972.5314
        44.0004         30.0004
  20315512.1304    -637865.14449   -496429.54648                  20315511.2064
        53.0004         44.7504
  23671842.8934   -3026048.18749  -2345095.15546                  23671842.6774
        44.2504         25.5004
 04  7  6 20 29 59.9990000  0  6G 1G11G14G22G25G20
  23447187.8164   -2421240.76649  -1878507.16147                  23447190.6354
        39.2504         28.0004
  21534538.7324    -938940.46049   -729354.01647                  21534536.9884
        51.2504         38.5004
  22301558.7274    2113910.36649   1628650.27447                  22301557.7734
        47.0004         34.5004
  23574257.6964    2187803.32549   1686461.12947                  23574256.5584
        44.0004         30.0004
  20314771.0714    -641760.43749   -499464.84248                  20314769.6734
        53.0004         44.7504
  23665869.9854   -3057438.03649  -2369554.74846                  23665869.0374
        44.5004         25.2504
 04  7  6 20 30  9.9990000  0  6G 1G11G14G22G25G20
  23442653.0284   -2445074.99749  -1897079.24747                  23442655.4134
        40.7504         28.2504
  21533238.1474    -945773.85349   -734678.73447                  21533236.9234
        51.5004         39.0004
  22305564.9784    2134964.59649   1645056.16447                  22305564.2154
        46.5004         34.2504
  23578544.1634    2210329.49049   1704013.98847                  23578543.3034
        44.7504         29.0004
  20314039.5854    -645603.63249   -502459.52948                  20314038.2894
        52.7504         45.0004
  23659895.2114   -3088835.14249  -2394020.03547                  23659894.8384
        44.7504         26.7504
 04  7  6 20 30 19.9990000  0  6G 1G11G14G22G25G20
  23438119.5724   -2468897.12249  -1915641.89247                  23438122.2114
        40.7504         27.7504
  21531947.8664    -952554.35849   -739962.24347                  21531946.5704
        51.0004         39.0004
  22309571.3434    2156017.88349   1661461.33147                  22309570.3894
        46.5004         34.5004
  23582833.5774    2232870.24649   1721578.17547                  23582832.6744
        43.5004         30.0004
  20313318.1624    -649394.53649   -505413.47848                  20313316.9784
        53.0004         44.7504
  23653918.7234   -3120239.47249  -2418490.91046                  23653918.9274
        44.0004         25.0004
 04  7  6 20 30 29.9990000  0  6G 1G11G14G22G25G20
  23433589.4864   -2492704.17149  -1934192.81347                  23433591.6784
        40.5004         28.7504
  21530667.8994    -959279.11349   -745202.31747                  21530666.7254
        51.0004         38.5004
  22313578.1324    2177073.11549   1677867.98447                  22313577.3344
        47.2504         33.7504
  23587125.7304    2255428.60449   1739156.07447                  23587125.5524
        44.7504         29.0004
  20312607.0364    -653130.28849   -508324.45148                  20312606.1524
        53.0004         44.5004
  23647942.3624   -3151647.93249  -2442964.98546                  23647941.8934
        44.2504         25.2504
 04  7  6 20 30 39.9990000  0  6G 1G11G14G22G25G20
  23429060.7534   -2516499.13549  -1952734.30447                  23429063.8064
        39.5004         29.5004
  21529398.4444    -965951.08549   -750401.24747                  21529397.1764
        51.5004         39.2504
  22317584.8274    2198127.32449   1694273.85347                  22317583.4984
        47.2504         33.7504
  23591421.5504    2278001.60649   1756745.38647                  23591420.8244
        44.5004         28.0004
  20311906.3674    -656813.92549   -511194.81348                  20311905.2034
        53.2504         44.5004
  23641963.8504   -3183063.48549  -2467444.64546                  23641963.5454
        44.2504         24.7504
 04  7  6 20 30 49.9990000  0  6G 1G11G14G22G25G20
  23424535.2064   -2540282.97549  -1971267.11247                  23424537.6794
        40.5004         29.0004
  21528138.7594    -972571.10249   -755559.70247                  21528138.0254
        51.2504         38.7504
  22321590.8904    2219179.55549   1710678.19047                  22321590.3114
        46.7504         34.5004
  23595719.4724    2300588.27149   1774345.33947                  23595719.1714
        44.2504         28.5004
  20311215.4654    -660446.36649   -514025.28348                  20311214.3104
        53.5004         44.5004
  23635984.0584   -3214487.03549  -2491930.53346                  23635984.0934
        43.7504         25.2504
 04  7  6 20 30 59.9990000  0  6G 1G11G14G22G25G20
  23420011.9674   -2564054.44649  -1989790.32247                  23420014.0404
        39.5004         28.5004
  21526888.9294    -979137.90449   -760676.69947                  21526887.8254
        51.2504         39.0004
  22325596.5784    2240230.95249   1727081.86847                  22325595.9814
        46.5004         33.5004
  23600020.8734    2323189.83949   1791956.95547                  23600019.8894
        45.0004         29.5004
  20310533.7834    -664026.40849   -516814.92048                  20310532.6864
        52.5004         44.7504
  23630003.8644   -3245917.28249  -2516421.59946                  23630003.1764
        43.7504         24.7504
 04  7  6 20 31  9.9990000  0  6G 1G11G14G22G25G20
  23415490.2724   -2587814.82949  -2008304.86547                  23415492.5144
        41.2504         28.5004
  21525649.5684    -985652.93249   -765753.34547                  21525648.2494
        51.5004         38.7504
  22329602.4114    2261280.22849   1743483.88547                  22329601.1364
        47.0004         34.5004
  23604324.2664    2345804.91949   1809579.08747                  23604323.8134
        45.2504         29.7504
  20309862.3714    -667555.28849   -519564.69748                  20309861.3264
        52.5004         45.0004
  23624021.0284   -3277355.45349  -2540918.86646                  23624020.5984
        44.2504         24.7504
 04  7  6 20 31 19.9990000  0  6G 1G11G14G22G25G20
  23410970.6464   -2611561.74949  -2026808.92247                  23410973.3544
        41.2504         28.2504
  21524419.6014    -992113.69449   -770787.70147                  21524418.7514
        51.2504         39.2504
  22333608.2174    2282329.68849   1759886.06747                  22333606.9194
        46.5004         34.5004
  23608631.1664    2368435.91949   1827213.58647                  23608630.4394
        45.7504         30.5004
  20309200.9654    -671030.63649   -522272.75848                  20309200.1754
        53.0004         45.0004
  23618037.1784   -3308799.21049  -2565420.45746                  23618036.8934
        44.0004         25.5004
 04  7  6 20 31 29.9990000  0  6G 1G11G14G22G25G20
  23406454.6764   -2635296.79949  -2045303.74147                  23406456.2124
        42.0004         29.0004
  21523200.4994    -998521.85549   -775781.07947                  21523199.3634
        51.5004         39.2504
  22337612.9834    2303377.73249   1776287.13247                  22337612.2234
        46.2504         34.0004
  23612940.1184    2391081.32549   1844859.34547                  23612939.1464
        46.0004         31.0004
  20308549.4284    -674454.02249   -524940.32148                  20308548.5474
        53.7504         45.0004
  23612052.3694   -3340250.05349  -2589927.59047                  23612052.7034
        43.0004         26.0004
 04  7  6 20 31 39.9990000  0  6G 1G11G14G22G25G20
  23401939.9224   -2659019.65249  -2063789.04847                  23401942.2134
        40.5004         28.5004
  21521991.1484   -1004876.98049   -780733.12648                  21521990.0904
        51.5004         39.5004
  22341617.7894    2324424.72449   1792687.37147                  22341616.9324
        46.5004         33.7504
  23617252.2264    2413741.45849   1862516.56447                  23617251.5354
        46.0004         31.0004
  20307908.0134    -677825.15849   -527567.18348                  20307907.0524
        53.0004         45.0004
  23606066.0394   -3371707.57249  -2614439.90947                  23606065.9014
        43.5004         26.2504
 04  7  6 20 31 49.9990000  0  6G 1G11G14G22G25G20
  23397428.1894   -2682729.04749  -2082263.88247                  23397430.6394
        40.5004         28.0004
  21520791.9664   -1011177.88649   -785642.92247                  21520790.9944
        52.0004         39.0004
  22345623.2614    2345471.83449   1809087.71947                  22345622.4284
        46.7504         34.0004
  23621567.7474    2436417.52449   1880186.21347                  23621566.5114
        46.2504         30.2504
  20307276.8304    -681142.83949   -530152.38648                  20307275.6204
        53.0004         45.0004
  23600078.7064   -3403170.49449  -2638956.47146                  23600078.5804
        43.7504         24.7504
 04  7  6 20 31 59.9990000  0  6G 1G11G14G22G25G20
  23392919.3314   -2706423.46949  -2100727.00347                  23392921.4154
        42.7504         28.5004
  21519603.8794   -1017422.90949   -790509.17648                  21519602.5684
        51.5004         39.5004
  22349628.4474    2366520.58849   1825489.33747                  22349628.1464
        47.2504         33.5004
  23625886.7044    2459111.03549   1897869.44247                  23625885.0274
        46.5004         30.2504
  20306655.9094    -684405.53949   -532694.75048                  20306654.9304
        53.5004         44.5004
  23594091.6404   -3434637.19049  -2663475.96246                  23594090.6944
        43.7504         25.5004
 04  7  6 20 32  9.9990000  0  6G 1G11G14G22G25G20
  23388411.9604   -2730108.37049  -2119182.74047                  23388414.4424
        43.5004         28.5004
  21518425.1124   -1023617.57449   -795336.18347                  21518423.7654
        50.7504         39.2504
  22353633.3894    2387565.44049   1841887.91447                  22353632.9004
        46.2504         34.5004
  23630206.7124    2481816.60449   1915562.08147                  23630206.0834
        46.2504         30.2504
  20306044.6194    -687618.78849   -535198.57548                  20306043.3174
        53.5004         45.0004
  23588101.5434   -3466113.12549  -2688002.61647                  23588100.7744
        43.0004         26.0004
 04  7  6 20 32 19.9990000  0  6G 1G11G14G22G25G20
  23383907.7044   -2753780.32049  -2137628.38747                  23383909.6114
        41.7504         27.5004
  21517256.0024   -1029758.42449   -800121.26147                  21517254.7034
        51.2504         39.2504
  22357637.7534    2408609.82249   1858286.11847                  22357637.2704
        46.5004         34.0004
  23634530.5104    2504537.56649   1933266.69447                  23634529.3834
        46.2504         30.0004
  20305443.3094    -690779.06749   -537661.12448                  20305441.9594
        52.7504         44.7504
  23582110.2264   -3497594.85049  -2712533.81046                  23582109.7764
        42.5004         25.2504
 04  7  6 20 32 29.9990000  0  6G 1G11G14G22G25G20
  23379405.9004   -2777439.81849  -2156064.33247                  23379407.7934
        42.5004         28.5004
  21516097.7614   -1035845.94949   -804864.79447                  21516097.0104
        51.2504         39.2504
  22361642.7324    2429653.23849   1874683.58347                  22361641.6634
        46.0004         34.5004
  23638857.1214    2527273.46249   1950982.95947                  23638856.0174
        46.0004         30.7504
  20304851.6484    -693886.85549   -540082.76448                  20304850.5504
        53.5004         45.0004
  23576118.5364   -3529082.73549  -2737069.77747                  23576118.6934
        42.2504         26.7504
 04  7  6 20 32 39.9990000  0  6G 1G11G14G22G25G20
  23374906.3864   -2801085.04049  -2174489.14647                  23374907.8524
        43.5004         28.5004
  21514950.1184   -1041878.27549   -809565.29548                  21514948.4964
        51.0004         39.7504
  22365647.3394    2450697.49849   1891081.70547                  22365646.0044
        45.7504         34.0004
  23643186.6354    2550026.14449   1968712.28147                  23643186.1044
        45.5004         31.2504
  20304270.5734    -696940.32749   -542462.09648                  20304269.6824
        53.2504         45.0004
  23570125.2804   -3560574.89849  -2761609.09846                  23570125.3534
        42.5004         25.2504
 04  7  6 20 32 49.9990000  0  6G 1G11G14G22G25G20
  23370408.2374   -2824719.56249  -2192905.63847                  23370409.8944
        44.5004         28.0004
  21513812.0084   -1047859.04449   -814225.64747                  21513810.9004
        52.0004         39.0004
  22369650.9634    2471738.91849   1907477.61447                  22369650.6024
        46.5004         33.7504
  23647518.8534    2572791.98949   1986451.85247                  23647518.1444
        45.5004         29.7504
  20303699.1134    -699943.16249   -544801.96348                  20303698.1424
        54.0004         44.7504
  23564132.1174   -3592074.90249  -2786154.51947                  23564130.9844
        42.7504         27.5004
 04  7  6 20 32 59.9990000  0  6G 1G11G14G22G25G20
  23365913.6294   -2848340.01949  -2211311.13947                  23365914.7304
        43.7504         27.5004
  21512684.1954   -1053784.87049   -818843.17047                  21512682.9344
        51.2504         39.0004
  22373655.6394    2492780.88049   1923873.94147                  22373654.3974
        46.2504         33.7504
  23651854.2224    2595574.34849   2004204.34547                  23651853.5184
        45.7504         31.2504
  20303138.1474    -702892.03049   -547099.78448                  20303136.9844
        53.2504         44.7504
  23558135.6774   -3623579.30849  -2810703.39647                  23558136.3984
        43.0004         26.2504
 04  7  6 20 33  9.9990000  0  6G 1G11G14G22G25G20
  23361421.6304   -2871946.15149  -2229705.52147                  23361422.7174
        43.0004         27.5004
  21511566.6764   -1059655.32449   -823417.54847                  21511565.7544
        51.5004         38.7504
  22377659.4754    2513823.67949   1940270.93147                  22377658.4634
        46.7504         33.7504
  23656192.7684    2618373.52249   2021969.86747                  23656191.8114
        45.7504         30.5004
  20302587.3034    -705786.65249   -549355.32648                  20302585.9564
        53.0004         44.5004
  23552140.7604   -3655087.76449  -2835255.38447                  23552140.5554
        42.7504         26.0004
 04  7  6 20 33 19.9990000  0  6G 1G11G14G22G25G20
  23356931.6414   -2895541.04649  -2248091.12747                  23356932.6644
        45.0004         27.7504
  21510460.0924   -1065473.54249   -827951.22947                  21510458.7734
        52.0004         39.0004
  22381663.4904    2534864.17149   1956666.09947                  22381662.7314
        47.0004         33.5004
  23660534.1464    2641186.40549   2039746.12647                  23660533.5114
        45.5004         30.7504
  20302046.0384    -708630.06249   -551570.97348                  20302045.1704
        53.2504         45.0004
  23546143.3664   -3686603.29449  -2859812.92747                  23546143.5064
        43.0004         26.2504
 04  7  6 20 33 29.9990000  0  6G 1G11G14G22G25G20
  23352443.5734   -2919123.40449  -2266466.95047                  23352445.7554
        44.5004         28.2504
  21509362.7164   -1071238.25049   -832443.20447                  21509361.9934
        51.2504         39.2504
  22385667.3024    2555903.67049   1973060.49947                  22385666.1014
        45.7504         33.7504
  23664877.9424    2664014.34949   2057534.11647                  23664877.3954
        45.7504         30.7504
  20301514.8544    -711420.98449   -553745.70848                  20301514.2694
        53.2504         45.0004
  23540145.1394   -3718124.53049  -2884374.90347                  23540145.1994
        43.2504         27.0004
 04  7  6 20 33 39.9990000  0  6G 1G11G14G22G25G20
  23347958.8164   -2942693.05349  -2284832.86947                  23347959.9784
        44.5004         28.5004
  21508275.9614   -1076949.30049   -836893.37447                  21508274.9214
        51.0004         38.7504
  22389670.6804    2576942.24349   1989454.19547                  22389669.8154
        47.0004         33.5004
  23669225.1314    2686857.45649   2075333.92147                  23669224.2414
        45.5004         30.0004
  20300993.7824    -714159.32149   -555879.47348                  20300992.2184
        53.2504         45.0004
  23534145.3294   -3749651.36349  -2908941.24147                  23534145.5654
        42.2504         26.5004
 04  7  6 20 33 49.9990000  0  6G 1G11G14G22G25G20
  23343476.1974   -2966247.91349  -2303187.27947                  23343477.8904
        45.0004         27.2504
  21507199.9874   -1082604.59249   -841300.09847                  21507198.9744
        51.2504         39.2504
  22393674.4414    2597981.92849   2005848.74447                  22393673.6734
        47.0004         34.0004
  23673575.0634    2709717.82649   2093147.17147                  23673574.4324
        45.5004         29.5004
  20300483.1514    -716842.96949   -557970.62148                  20300482.4584
        53.2504         45.5004
  23528145.7254   -3781181.64649  -2933510.24447                  23528144.9554
        43.2504         26.2504
 04  7  6 20 33 59.9990000  0  6G 1G11G14G22G25G20
  23338996.6634   -2989788.26849  -2321530.38247                  23338998.1704
        45.0004         28.2504
  21506134.1964   -1088204.32949   -845663.53847                  21506132.8994
        51.7504         38.2504
  22397678.4364    2619022.49149   2022243.97847                  22397677.2634
        46.5004         33.5004
  23677928.5134    2732595.25149   2110973.70947                  23677927.4944
        45.5004         29.5004
  20299983.2954    -719472.22649   -560019.39448                  20299981.9274
        53.0004         45.0004
  23522144.8344   -3812715.60649  -2958082.13047                  23522144.7114
        43.2504         26.5004
 04  7  6 20 34  9.9990000  0  6G 1G11G14G22G25G20
  23334519.6654   -3013315.02749  -2339862.90547                  23334520.8104
        45.5004         27.5004
  21505078.9324   -1093749.48149   -849984.42747                  21505077.7364
        51.2504         38.0004
  22401682.0304    2640062.90149   2038639.10647                  22401681.3614
        47.2504         34.0004
  23682284.6874    2755488.71949   2128812.73747                  23682284.1444
        44.5004         28.7504
  20299492.4934    -722048.04949   -562026.52848                  20299491.7384
        53.2504         44.7504
  23516143.0934   -3844254.05749  -2982657.51547                  23516142.8634
        43.0004         27.0004
 04  7  6 20 34 19.9990000  0  6G 1G11G14G22G25G20
  23330045.1034   -3036832.04249  -2358187.82147                  23330045.8164
        46.0004         28.2504
  21504033.5234   -1099243.85049   -854265.75347                  21504032.3414
        51.5004         38.5004
  22405685.3284    2661099.38649   2055031.16147                  22405684.6334
        47.0004         33.2504
  23686643.9154    2778394.41049   2146661.30547                  23686643.2874
        44.5004         28.0004
  20299011.9504    -724574.23749   -563994.97448                  20299011.0634
        53.5004         44.7504
  23510140.4244   -3875800.74949  -3007239.32547                  23510139.7684
        43.7504         27.0004
 04  7  6 20 34 29.9990000  0  6G 1G11G14G22G25G20
  23325572.0014   -3060335.77849  -2376502.38447                  23325573.3984
        45.5004         28.5004
  21502998.3554   -1104683.94849   -858504.79147                  21502997.1304
        51.5004         38.7504
  22409688.2364    2682135.43449   2071422.88747                  22409687.5924
        47.5004         33.5004
  23691005.3684    2801315.88249   2164522.15347                  23691004.8864
        45.0004         29.2504
  20298541.3474    -727047.31949   -565922.05248                  20298540.3204
        53.7504         45.5004
  23504135.4744   -3907352.15349  -3031824.81047                  23504135.5894
        42.5004         26.5004
 04  7  6 20 34 39.9990000  0  6G 1G11G14G22G25G20
  23321101.6034   -3083826.86249  -2394807.08447                  23321103.3014
        45.5004         27.7504
  21501973.5304   -1110070.25049   -862701.91847                  21501972.0764
        52.0004         38.0004
  22413691.0924    2703170.39049   2087813.73247                  22413689.7534
        47.5004         33.7504
  23695370.1034    2824252.44649   2182394.77247                  23695369.7064
        44.0004         30.0004
  20298080.7514    -729467.86649   -567808.19448                  20298079.4744
        53.5004         45.0004
  23498131.0464   -3938908.83549  -3056414.40947                  23498130.7914
        42.5004         26.2504
 04  7  6 20 34 49.9990000  0  6G 1G11G14G22G25G20
  23316634.3414   -3107304.79449  -2413101.56147                  23316635.6274
        45.0004         28.5004
  21500958.6654   -1115402.38849   -866856.82947                  21500957.5684
        51.5004         38.2504
  22417693.8984    2724204.64749   2104204.08447                  22417692.8684
        47.5004         34.0004
  23699737.6944    2847204.59449   2200279.53547                  23699736.8854
        44.0004         28.2504
  20297630.1564    -731835.50449   -569653.09748                  20297629.0554
        53.7504         45.5004
  23492124.7004   -3970470.23349  -3081007.66747                  23492124.7684
        42.5004         27.2504
 04  7  6 20 34 59.9990000  0  6G 1G11G14G22G25G20
  23312168.7514   -3130768.46549  -2431384.89447                  23312170.2804
        45.0004         28.5004
  21499954.5794   -1120679.13249   -870968.57447                  21499953.3844
        51.2504         39.0004
  22421696.4494    2745239.35249   2120594.75447                  22421695.5394
        47.7504         34.2504
  23704108.2574    2870173.53549   2218177.38747                  23704108.0234
        44.0004         28.0004
  20297190.0694    -734148.98049   -571455.81248                  20297189.4184
        53.2504         45.5004
  23486118.5644   -4002035.11949  -3105603.68047                  23486118.4724
        42.2504         26.5004
 04  7  6 20 35  9.9990000  0  6G 1G11G14G22G25G20
  23307706.4034   -3154218.51149  -2449657.65347                  23307707.5744
        45.0004         28.0004
  21498960.8884   -1125901.10549   -875037.65547                  21498959.3544
        51.5004         38.5004
  22425699.6724    2766273.78449   2136985.20847                  22425698.4604
        48.2504         33.7504
  23708482.7704    2893158.48249   2236087.69047                  23708482.3954
        43.5004         27.5004
  20296760.0654    -736409.16049   -573216.98148                  20296758.7384
        53.0004         45.0004
  23480111.0634   -4033604.19549  -3130202.90947                  23480111.0124
        42.5004         26.5004
 04  7  6 20 35 19.9990000  0  6G 1G11G14G22G25G20
  23303246.6004   -3177654.20849  -2467919.19947                  23303248.0494
        45.5004         28.0004
  21497977.6244   -1131067.69449   -879063.56847                  21497976.3174
        51.7504         38.5004
  22429702.5264    2787308.70249   2153376.04147                  22429701.1404
        47.5004         34.2504
  23712860.0134    2916160.22549   2254011.10047                  23712859.1294
        43.7504         27.7504
  20296340.2134    -738615.16449   -574935.94648                  20296338.8004
        53.5004         45.0004
  23474102.6824   -4065176.61649  -3154804.75047                  23474103.0284
        42.2504         27.7504
 04  7  6 20 35 29.9990000  0  6G 1G11G14G22G25G20
  23298789.6734   -3201075.62849  -2486169.62047                  23298790.5454
        45.2504         27.7504
  21497005.1994   -1136178.93649   -883046.35347                  21497003.6894
        51.0004         38.5004
  22433705.2324    2808344.01449   2169767.19447                  22433704.3914
        48.2504         33.7504
  23717239.8994    2939178.69949   2271947.53647                  23717239.7724
        43.5004         26.5004
  20295930.7484    -740767.17049   -576612.83048                  20295929.8804
        53.2504         45.0004
  23468094.3194   -4096752.38249  -3179409.22347                  23468094.1224
        41.7504         27.5004
 04  7  6 20 35 39.9990000  0  6G 1G11G14G22G25G20
  23294334.7194   -3224485.49549  -2504411.02247                  23294336.5744
        45.2504         28.5004
  21496042.4894   -1141237.51749   -886988.10847                  21496041.1514
        51.5004         38.2504
  22437707.0884    2829376.94449   2186156.48047                  22437706.3184
        47.7504         33.0004
  23721622.2314    2962211.17149   2289894.87447                  23721622.0244
        44.0004         27.5004
  20295530.8074    -742867.85549   -578249.72548                  20295529.2524
        52.2504         45.0004
  23462084.4784   -4128334.17349  -3204018.40647                  23462083.8504
        39.7504         27.2504
 04  7  6 20 35 49.9990000  0  6G 1G11G14G22G25G20
  23289882.5314   -3247882.42849  -2522642.38947                  23289884.1874
        44.5004         28.2504
  21495090.2014   -1146242.03449   -890887.73747                  21495089.0904
        51.0004         38.5004
  22441709.7084    2850408.85349   2202544.96747                  22441708.6714
        47.5004         32.7504
  23726008.8864    2985259.05749   2307854.21747                  23726008.5734
        44.0004         28.2504
  20295140.9784    -744915.89449   -579845.60248                  20295139.6744
        53.2504         45.0004
  23456072.7474   -4159920.60649  -3228631.20347                  23456073.4094
        42.0004         26.7504
 04  7  6 20 35 59.9990000  0  6G 1G11G14G22G25G20
  23285432.6234   -3271266.37349  -2540863.59947                  23285434.2954
        44.5004         28.5004
  21494148.2384   -1151192.34849   -894745.11247                  21494146.8324
        51.5004         38.2504
  22445711.5734    2871439.86549   2218932.76947                  22445710.5494
        47.2504         33.0004
  23730397.1814    3008322.46349   2325825.70147                  23730396.9894
        43.2504         26.5004
  20294761.4254    -746911.17649   -581400.35448                  20294760.2044
        52.7504         45.0004
  23450062.4034   -4191511.47749  -3253247.42347                  23450061.5974
        41.7504         28.2504
 04  7  6 20 36  9.9990000  0  6G 1G11G14G22G25G20
  23280986.1174   -3294635.67649  -2559073.44147                  23280987.3534
        44.0004         28.7504
  21493216.6624   -1156086.88349   -898559.04847                  21493215.9354
        51.5004         39.0004
  22449714.1964    2892471.59849   2235321.11547                  22449713.4284
        47.2504         34.0004
  23734790.6554    3031402.98749   2343810.51047                  23734788.8184
        44.5004         26.7504
  20294392.3034    -748852.01649   -582912.69948                  20294391.1504
        53.5004         45.5004
  23444050.2094   -4223105.17149  -3277865.85647                  23444049.5844
        43.0004         28.0004
 04  7  6 20 36 19.9990000  0  6G 1G11G14G22G25G20
  23276541.1394   -3317992.00149  -2577273.14847                  23276542.5794
        44.2504         27.7504
  21492295.8484   -1160927.19949   -902330.72347                  21492294.4904
        51.5004         38.7504
  22453715.9974    2913502.32649   2251708.67347                  22453715.0384
        47.2504         33.2504
  23739185.0044    3054498.94249   2361807.30047                  23739184.2114
        44.2504         25.7504
  20294032.9284    -750740.15249   -584383.96748                  20294031.5404
        52.5004         45.2504
  23438037.4094   -4254703.17749  -3302487.66047                  23438036.9194
        41.5004         27.7504
 04  7  6 20 36 29.9990000  0  6G 1G11G14G22G25G20
  23272099.4624   -3341334.55249  -2595462.09647                  23272100.8334
        44.5004         28.2504
  21491385.1074   -1165712.60849   -906059.61347                  21491383.6994
        52.0004         38.7504
  22457718.1644    2934532.80249   2268096.05347                  22457717.0814
        48.0004         33.2504
  23743582.9874    3077611.19049   2379816.82547                  23743581.9504
        44.2504         26.2504
  20293683.7354    -752574.80349   -585813.56548                  20293682.7514
        52.5004         45.0004
  23432023.4784   -4286304.75349  -3327112.26747                  23432023.3064
        41.0004         27.2504
 04  7  6 20 36 39.9990000  0  6G 1G11G14G22G25G20
  23267659.7494   -3364661.57949  -2613638.98747                  23267662.0804
        43.5004         28.2504
  21490485.2074   -1170441.39749   -909744.37847                  21490483.4984
        51.2504         38.5004
  22461720.4434    2955564.71849   2284484.56447                  22461719.4694
        47.5004         32.2504
  23747984.1964    3100741.37449   2397840.33147                  23747983.4394
        44.5004         26.0004
  20293345.3574    -754354.28049   -587200.17048                  20293344.3584
        53.0004         45.0004
  23426009.6564   -4317908.04049  -3351738.17147                  23426008.5594
        40.7504         26.7504
 04  7  6 20 36 49.9990000  0  6G 1G11G14G22G25G20
  23263224.2354   -3387973.08149  -2631803.76747                  23263225.7194
        44.2504         28.2504
  21489596.0334   -1175113.47349   -913384.98347                  21489594.6614
        51.2504         38.5004
  22465722.7404    2976598.03849   2300874.13947                  22465721.9784
        47.7504         32.5004
  23752389.4644    3123889.45749   2415877.77347                  23752388.7164
        43.7504         27.0004
  20293016.9274    -756078.67649   -588543.86148                  20293015.7544
        53.0004         44.5004
  23419995.7494   -4349513.05349  -3376365.44747                  23419995.2374
        43.5004         27.5004
 04  7  6 20 36 59.9990000  0  6G 1G11G14G22G25G20
  23258790.4884   -3411270.95149  -2649957.90547                  23258792.1604
        44.5004         27.0004
  21488717.4234   -1179730.69149   -916982.78847                  21488716.8374
        51.5004         39.0004
  22469724.8474    2997630.95449   2317263.42947                  22469723.9024
        47.5004         33.5004
  23756798.1864    3147053.64549   2433927.74446                  23756797.1584
        43.5004         25.5004
  20292698.9134    -757749.79749   -589846.01848                  20292697.6294
        53.0004         45.2504
  23413980.5614   -4381121.53649  -3400995.40847                  23413979.9434
        40.7504         28.0004
 04  7  6 20 37  9.9990000  0  6G 1G11G14G22G25G20
  23254359.3114   -3434558.10349  -2668103.69247                  23254360.7924
        44.5004         28.2504
  21487848.5824   -1184296.05049   -920540.21647                  21487847.7934
        51.0004         39.0004
  22473726.7364    3018660.44349   2333650.02647                  22473725.9124
        47.0004         34.0004
  23761208.0264    3170230.95449   2451987.94046                  23761207.0334
        45.5004         24.2504
  20292390.1934    -759370.62049   -591108.99648                  20292389.3324
        53.0004         45.0004
  23407964.1654   -4412736.35449  -3425630.29547                  23407964.1034
        41.2504         27.5004
 04  7  6 20 37 19.9990000  0  6G 1G11G14G22G25G20
  23249929.8674   -3457832.71949  -2686239.75847                  23249931.6064
        43.7504         27.7504
  21486990.2614   -1188807.69549   -924055.78848                  21486989.1264
        51.0004         39.5004
  22477728.6054    3039688.34049   2350035.40147                  22477727.7334
        47.0004         33.2504
  23765621.2974    3193423.19949   2470059.78046                  23765620.5654
        45.2504         25.2504
  20292091.8824    -760939.30549   -592331.34448                  20292090.7564
        52.2504         45.5004
  23401947.3264   -4444355.71349  -3450268.74147                  23401947.2294
        39.7504         28.0004
 04  7  6 20 37 29.9990000  0  6G 1G11G14G22G25G20
  23245504.1184   -3481092.16249  -2704363.93647                  23245505.9384
        43.5004         27.2504
  21486142.2104   -1193262.89949   -927527.38047                  21486141.5234
        51.0004         38.5004
  22481730.1644    3060717.29549   2366421.59747                  22481729.4834
        47.2504         32.7504
  23770038.3314    3216633.11149   2488145.41746                  23770036.6314
        44.0004         22.5004
  20291803.7154    -762453.19749   -593511.00548                  20291802.9284
        52.5004         45.5004
  23395929.8354   -4475976.81349  -3474908.53347                  23395929.5594
        42.0004         27.5004
 04  7  6 20 37 39.9990000  0  6G 1G11G14G22G25G20
  23241080.4884   -3504338.63649  -2722478.04747                  23241082.3814
        44.2504         27.0004
  21485305.1034   -1197663.92449   -930956.74847                  21485304.0204
        51.0004         39.0004
  22485731.6674    3081744.97949   2382806.81047                  22485730.7774
        47.7504         32.5004
  23774458.3214    3239858.40049   2506243.01646                  23774456.5114
        44.5004         23.5004
  20291526.0654    -763914.57949   -594649.73648                  20291524.2994
        53.2504         45.2504
  23389912.1134   -4507601.83449  -3499551.38947                  23389911.6154
        42.2504         25.7504
 04  7  6 20 37 49.9990000  0  6G 1G11G14G22G25G20
  23236658.9194   -3527573.41749  -2740583.05347                  23236660.2784
        43.2504         27.5004
  21484477.6514   -1202012.01949   -934344.87747                  21484476.3944
        51.7504         39.0004
  22489732.8634    3102770.14849   2399190.02747                  22489732.1374
        48.2504         33.0004
  23778879.9784    3263097.85149   2524351.68546                  23778878.9864
        44.5004         23.0004
  20291257.3734    -765324.73449   -595748.55448                  20291256.0804
        53.0004         45.0004
  23383892.7514   -4539232.07249  -3524198.31047                  23383892.0304
        41.5004         27.0004
 04  7  6 20 37 59.9990000  0  6G 1G11G14G22G25G20
  23232240.6114   -3550792.99549  -2758676.19347                  23232241.8834
        44.2504         27.2504
  21483661.0584   -1206303.61549   -937688.98547                  21483659.8684
        51.0004         38.5004
  22493734.0394    3123796.34449   2415574.06847                  22493732.8724
        47.5004         32.7504
  23783305.9234    3286354.99449   2542474.10746                  23783304.8274
        44.2504         24.0004
  20290999.2194    -766680.17749   -596804.74248                  20290998.0774
        53.5004         44.5004
  23377873.7104   -4570863.80249  -3548846.40647                  23377873.2864
        42.5004         26.5004
 04  7  6 20 38  9.9990000  0  6G 1G11G14G22G25G20
  23227824.2724   -3573997.08149  -2776757.26847                  23227826.3624
        43.7504         28.2504
  21482854.7364   -1210538.41849   -940988.82447                  21482853.9524
        52.0004         39.0004
  22497735.2054    3144823.82349   2431959.12147                  22497734.4904
        47.2504         33.2504
  23787734.9814    3309630.09249   2560610.51746                  23787734.0964
        44.2504         24.2504
  20290752.0444    -767980.56249   -597818.02348                  20290751.1284
        52.5004         45.5004
  23371854.0674   -4602496.73549  -3573495.44647                  23371853.6834
        40.7504         27.0004
 04  7  6 20 38 19.9990000  0  6G 1G11G14G22G25G20
  23223411.0764   -3597187.27049  -2794827.50847                  23223412.9114
        43.2504         27.5004
  21482059.7304   -1214718.06849   -944245.69847                  21482058.5284
        51.5004         39.2504
  22501736.2384    3165850.86749   2448343.80147                  22501735.8554
        47.5004         33.5004
  23792167.4874    3332921.45849   2578759.63746                  23792165.8794
        44.7504         25.5004
  20290514.8114    -769227.53849   -598789.69648                  20290513.9144
        53.2504         45.7504
  23365833.8884   -4634132.46349  -3598146.63147                  23365833.4414
        43.0004         26.7504
 04  7  6 20 38 29.9990000  0  6G 1G11G14G22G25G20
  23219001.5354   -3620363.39649  -2812886.78247                  23219003.1974
        42.5004         29.2504
  21481274.6114   -1218842.41649   -947459.47847                  21481273.4634
        51.2504         39.0004
  22505737.5584    3186877.66449   2464728.32547                  22505737.1434
        47.2504         34.0004
  23796602.5214    3356229.34249   2596921.56447                  23796601.8184
        44.5004         27.0004
  20290287.6404    -770420.93049   -599719.61048                  20290286.5784
        53.5004         46.0004
  23359813.5244   -4665770.71049  -3622799.77947                  23359812.5944
        44.5004         25.7504
 04  7  6 20 38 39.9990000  0  6G 1G11G14G22G25G20
  23214592.5084   -3643527.84349  -2830936.96847                  23214595.3234
        42.5004         27.5004
  21480500.1434   -1222913.79949   -950631.99548                  21480498.7984
        51.5004         39.5004
  22509738.4264    3207901.87049   2481110.81647                  22509737.6454
        47.5004         34.0004
  23801041.2574    3379551.37049   2615094.55046                  23801040.3404
        44.7504         23.5004
  20290070.4694    -771563.14849   -600609.64948                  20290069.2964
        54.0004         45.5004
  23353791.6614   -4697413.78549  -3647456.75347                  23353790.6224
        43.0004         26.7504
 04  7  6 20 38 49.9990000  0  6G 1G11G14G22G25G20
  23210187.9134   -3666678.67149  -2848976.54747                  23210189.8824
        43.5004         28.5004
  21479735.5144   -1226930.28149   -953761.72047                  21479734.4734
        51.7504         39.0004
  22513739.1824    3228925.33549   2497492.70847                  22513738.5474
        46.5004         33.5004
  23805482.0794    3402889.39949   2633280.00347                  23805481.1514
        45.0004         25.7504
  20289862.8764    -772652.26849   -601458.31548                  20289861.6924
        54.0004         45.0004
  23347769.9784   -4729059.77749  -3672115.93947                  23347768.6004
        43.2504         26.5004
 04  7  6 20 38 59.9990000  0  6G 1G11G14G22G25G20
  23205784.6984   -3689815.53549  -2867005.21647                  23205786.6574
        42.5004         27.2504
  21478981.9264   -1230891.41049   -956848.31047                  21478981.0424
        51.2504         38.5004
  22517739.6814    3249948.50349   2513874.40347                  22517738.6484
        46.0004         33.2504
  23809926.6314    3426243.81649   2651478.25847                  23809925.7584
        46.0004         27.7504
  20289666.0394    -773687.91449   -602265.30248                  20289664.6374
        53.7504         45.0004
  23341747.4764   -4760708.19649  -3696777.04647                  23341746.6644
        43.0004         26.5004
 04  7  6 20 39  9.9990000  0  6G 1G11G14G22G25G20
  23201385.0744   -3712937.38549  -2885022.23047                  23201387.0724
        43.5004         27.5004
  21478239.0494   -1234796.29049   -959891.08247                  21478238.0824
        51.5004         37.7504
  22521740.5714    3270972.30749   2530256.57847                  22521739.9964
        46.7504         32.0004
  23814373.9594    3449615.63349   2669689.98247                  23814373.1144
        45.2504         27.0004
  20289479.2064    -774669.18649   -603029.93548                  20289478.4544
        53.5004         44.5004
  23335724.8254   -4792357.97149  -3721439.16947                  23335723.4824
        44.0004         25.7504
 04  7  6 20 39 19.9990000  0  6G 1G11G14G22G25G20
  23196987.1674   -3736046.44649  -2903029.23647                  23196989.3364
        41.7504         28.0004
  21477506.1254   -1238647.16849   -962891.76447                  21477505.1454
        51.2504         38.2504
  22525741.0374    3291994.52449   2546637.51747                  22525740.3034
        46.5004         33.0004
  23818824.4284    3473002.61849   2687913.60147                  23818823.9284
        45.5004         27.5004
  20289302.5484    -775598.29249   -603753.90748                  20289301.4704
        54.0004         45.2504
  23329701.5244   -4824011.25049  -3746104.05546                  23329700.3424
        43.5004         25.0004
 04  7  6 20 39 29.9990000  0  6G 1G11G14G22G25G20
  23192592.9984   -3759137.36549  -2921022.14247                  23192595.4714
        41.5004         28.7504
  21476784.6654   -1242438.62849   -965846.15747                  21476783.5014
        50.7504         38.5004
  22529742.3274    3313020.47649   2563021.36547                  22529740.9374
        46.5004         32.0004
  23823278.9354    3496410.17949   2706153.24047                  23823277.6754
        46.7504         28.2504
  20289136.6604    -776469.85549   -604433.04648                  20289135.6984
        53.5004         45.5004
  23323678.1204   -4855662.61149  -3770767.39646                  23323677.8874
        44.0004         25.5004
 04  7  6 20 39 39.9990000  0  6G 1G11G14G22G25G20
  23188202.9284   -3782211.84549  -2939002.20547                  23188204.0974
        40.7504         29.5004
  21476073.8554   -1246172.36349   -968755.56747                  21476073.0154
        51.0004         39.0004
  22533743.5584    3334048.43049   2579406.77447                  22533742.5194
        46.2504         32.7504
  23827736.9174    3519836.62249   2724407.58447                  23827735.4394
        46.2504         28.2504
  20288981.5454    -777285.59049   -605068.67548                  20288980.4834
        54.5004         45.5004
  23317655.1204   -4887313.71849  -3795430.61646                  23317654.3184
        44.5004         25.5004
 04  7  6 20 39 49.9990000  0  6G 1G11G14G22G25G20
  23183814.1314   -3805271.52749  -2956970.76947                  23183816.3274
        40.7504         29.0004
  21475373.9894   -1249850.04149   -971621.29847                  21475373.2774
        50.7504         38.7504
  22537745.3364    3355076.77049   2595792.46447                  22537744.4114
        47.2504         33.2504
  23832197.9624    3543280.27849   2742675.34747                  23832196.3574
        46.5004         27.7504
  20288836.6924    -778047.12949   -605662.09648                  20288834.9574
        53.5004         45.5004
  23311631.7444   -4918966.19049  -3820094.86747                  23311630.8274
        44.5004         26.2504
 04  7  6 20 39 59.9990000  0  6G 1G11G14G22G25G20
  23179429.1674   -3828315.99749  -2974927.46747                  23179430.6444
        42.5004         28.5004
  21474685.2544   -1253471.16349   -974442.94147                  21474684.3014
        51.2504         38.5004
  22541746.6614    3376105.79749   2612178.73247                  22541745.8704
        47.0004         32.7504
  23836662.1504    3566741.57249   2760956.84547                  23836660.8924
        46.0004         27.0004
  20288701.7544    -778754.20049   -606213.04048                  20288700.9784
        53.5004         45.2504
  23305607.7364   -4950619.52349  -3844759.78146                  23305607.6284
        44.0004         24.7504
 04  7  6 20 40  9.9990000  0  6G 1G11G14G22G25G20
  23175046.4604   -3851345.70249  -2992872.66247                  23175048.2234
        42.5004         29.0004
  21474006.6904   -1257036.20349   -977220.90147                  21474005.7704
        51.5004         38.7504
  22545748.7304    3397135.12049   2628565.19647                  22545747.6474
        47.2504         32.5004
  23841129.9184    3590220.00149   2779251.71647                  23841129.1034
        46.5004         28.2504
  20288577.4954    -779407.22249   -606721.88648                  20288576.2494
        53.7504         45.5004
  23299584.8594   -4982274.11049  -3869425.67047                  23299583.8134
        44.2504         26.2504
 04  7  6 20 40 19.9990000  0  6G 1G11G14G22G25G20
  23170666.6494   -3874361.36249  -3010806.91447                  23170668.9824
        42.7504         29.5004
  21473338.9684   -1260545.95549   -979955.77347                  21473337.9454
        51.7504         38.5004
  22549750.2714    3418164.05849   2644951.37447                  22549749.7124
        46.5004         32.0004
  23845600.7264    3613714.91049   2797559.39747                  23845599.8224
        46.7504         28.0004
  20288463.6744    -780006.90549   -607189.17648                  20288462.3784
        53.7504         45.0004
  23293560.6224   -5013930.50849  -3894092.98446                  23293559.5224
        44.5004         24.7504
 04  7  6 20 40 29.9990000  0  6G 1G11G14G22G25G20
  23166289.3004   -3897362.63749  -3028729.95947                  23166291.5914
        42.5004         30.0004
  21472681.8684   -1263999.97049   -982647.22548                  21472680.7984
        51.5004         39.5004
  22553751.7554    3439192.79949   2661337.39147                  22553750.9094
        46.5004         32.5004
  23850075.0864    3637226.54349   2815880.13147                  23850074.4164
        46.7504         28.0004
  20288359.8714    -780552.92149   -607614.64548                  20288358.6864
        53.0004         45.2504
  23287536.0404   -5045588.46549  -3918761.50847                  23287535.9514
        43.0004         27.0004
 04  7  6 20 40 39.9990000  0  6G 1G11G14G22G25G20
  23161916.1874   -3920349.58249  -3046641.80247                  23161917.0894
        41.5004         29.5004
  21472034.8274   -1267398.28749   -985295.26247                  21472033.8994
        51.0004         39.2504
  22557753.2384    3460221.36149   2677723.26247                  22557752.4474
        46.5004         32.0004
  23854552.5324    3660754.90449   2834213.90247                  23854551.9064
        46.5004         28.2504
  20288265.9394    -781045.35549   -607998.35348                  20288264.2774
        54.0004         45.2504
  23281511.8634   -5077247.96049  -3943431.21847                  23281511.4534
        42.5004         26.2504
 04  7  6 20 40 49.9990000  0  6G 1G11G14G22G25G20
  23157544.0204   -3943323.89649  -3064543.86447                  23157545.4944
        43.0004         30.0004
  21471398.7624   -1270742.62849   -987901.24547                  21471397.5824
        51.0004         39.2504
  22561754.3794    3481247.96149   2694107.62447                  22561753.2994
        46.7504         33.5004
  23859032.4864    3684298.27749   2852559.35147                  23859031.4734
        46.7504         28.2504
  20288182.0644    -781485.92949   -608341.65148                  20288180.8934
        54.0004         45.5004
  23275485.9064   -5108910.58649  -3968103.38547                  23275485.8114
        43.2504         26.2504
 04  7  6 20 40 59.9990000  0  6G 1G11G14G22G25G20
  23153175.1514   -3966284.24249  -3082435.00747                  23153176.4114
        43.0004         30.0004
  21470772.7914   -1274031.60049   -990464.08448                  21470771.3434
        51.0004         39.5004
  22565755.9714    3502273.99349   2710491.52447                  22565754.7634
        47.0004         33.2504
  23863515.4064    3707858.10049   2870917.62447                  23863514.8454
        46.5004         29.0004
  20288108.4564    -781873.22549   -608643.44748                  20288107.3734
        54.0004         45.2504
  23269460.6334   -5140574.88249  -3992776.82846                  23269460.2584
        42.5004         25.0004
 04  7  6 20 41  9.9990000  0  6G 1G11G14G22G25G20
  23148808.2094   -3989230.21349  -3100314.95247                  23148810.2274
        43.7504         30.7504
  21470157.4254   -1277264.88649   -992983.53447                  21470156.0164
        50.7504         39.0004
  22569757.2754    3523299.80549   2726875.26747                  22569755.7164
        46.5004         32.5004
  23868002.3094    3731434.68949   2889288.95547                  23868001.3404
        45.5004         27.2504
  20288044.8774    -782207.02849   -608903.54548                  20288043.7284
        53.7504         45.5004
  23263435.2724   -5172240.49749  -4017451.33347                  23263434.4014
        43.0004         27.0004
 04  7  6 20 41 19.9990000  0  6G 1G11G14G22G25G20
  23144444.5434   -4012160.51449  -3118182.69047                  23144446.1964
        44.5004         30.0004
  21469552.8534   -1280441.16449   -995458.55247                  21469552.0044
        51.0004         39.0004
  22573757.4864    3544326.69949   2743259.86047                  22573757.0344
        47.2504         31.7504
  23872491.7194    3755029.31449   2907674.37847                  23872491.9274
        44.7504         28.7504
  20287991.7134    -782485.93649   -609120.87148                  20287990.7924
        54.5004         45.0004
  23257408.9144   -5203905.93649  -4042125.68046                  23257408.6314
        42.5004         25.5004
 04  7  6 20 41 29.9990000  0  6G 1G11G14G22G25G20
  23140083.8474   -4035075.99949  -3136038.87347                  23140085.4094
        42.0004         29.5004
  21468959.3004   -1283561.23349   -997889.76847                  21468958.2764
        49.7504         38.2504
  22577759.4154    3565353.79349   2759644.59347                  22577758.3434
        47.0004         31.5004
  23876985.2824    3778641.17249   2926073.17947                  23876984.2584
        45.0004         27.5004
  20287948.6164    -782710.87849   -609296.14948                  20287947.6434
        54.0004         44.7504
  23251383.3034   -5235572.05949  -4066800.56447                  23251383.2414
        42.5004         26.5004
 04  7  6 20 41 39.9990000  0  6G 1G11G14G22G25G20
  23135726.0874   -4057977.15949  -3153883.90747                  23135727.5364
        44.5004         30.7504
  21468376.0544   -1286625.63849  -1000277.62347                  21468374.7944
        51.0004         39.0004
  22581760.4204    3586380.56449   2776029.07847                  22581760.2964
        47.0004         31.5004
  23881481.9644    3802269.66349   2944484.96747                  23881481.2244
        45.2504         27.5004
  20287916.2994    -782882.29149   -609429.72348                  20287915.1744
        54.5004         45.5004
  23245357.1564   -5267239.25249  -4091476.28147                  23245357.1374
        43.0004         27.2504
 04  7  6 20 41 49.9990000  0  6G 1G11G14G22G25G20
  23131370.5844   -4080863.64749  -3171717.51847                  23131372.1564
        44.5004         30.0004
  21467803.8024   -1289634.08049  -1002621.87547                  21467802.2824
        51.0004         39.0004
  22585762.0914    3607407.33149   2792413.55647                  22585761.3844
        47.5004         31.5004
  23885981.2824    3825915.18749   2962910.03447                  23885980.4374
        45.0004         28.2504
  20287894.1024    -782999.96749   -609521.41448                  20287892.6114
        54.5004         45.7504
  23239331.6834   -5298907.13449  -4116152.51547                  23239330.6584
        42.7504         27.0004
 04  7  6 20 41 59.9990000  0  6G 1G11G14G22G25G20
  23127018.5624   -4103734.60649  -3189538.99847                  23127020.4894
        43.5004         31.2504
  21467241.9214   -1292585.62349  -1004921.76748                  21467240.8544
        51.0004         39.5004
  22589763.3094    3628435.01649   2808798.75147                  22589762.7554
        46.5004         32.0004
  23890483.7054    3849578.56949   2981348.96547                  23890483.5434
        44.5004         28.0004
  20287882.0544    -783063.10849   -609570.61248                  20287880.8054
        54.5004         46.0004
  23233304.6434   -5330574.81549  -4140828.61347                  23233304.7404
        43.2504         27.5004
 04  7  6 20 42  9.9990000  0  6G 1G11G14G22G25G20
  23122669.8534   -4126590.17849  -3207348.51847                  23122671.2574
        45.7504         30.0004
  21466691.3384   -1295480.36149  -1007177.41347                  21466690.1194
        50.5004         39.0004
  22593764.7474    3649463.38249   2825184.49047                  22593764.0724
        46.7504         31.2504
  23894990.5484    3873259.74849   2999801.82047                  23894990.3154
        44.2504         28.5004
  20287880.3094    -783071.70049   -609577.29948                  20287879.0294
        54.5004         45.2504
  23227278.9304   -5362242.35349  -4165504.61047                  23227278.7134
        44.2504         27.5004
 04  7  6 20 42 19.9990000  0  6G 1G11G14G22G25G20
  23118322.4704   -4149430.59349  -3225146.21247                  23118324.3354
        45.0004         30.7504
  21466151.2224   -1298318.58749  -1009389.02447                  21466149.8214
        50.7504         39.0004
  22597766.2774    3670492.22149   2841570.58347                  22597765.6954
        46.5004         31.2504
  23899500.9404    3896958.46849   3018268.30947                  23899500.0344
        44.2504         27.7504
  20287888.9614    -783026.10549   -609541.77348                  20287887.6254
        54.5004         45.5004
  23221252.5054   -5393909.84249  -4190180.55947                  23221252.6754
        43.5004         28.0004
 04  7  6 20 42 29.9990000  0  6G 1G11G14G22G25G20
  23113978.7204   -4172258.74849  -3242934.35347                  23113980.2714
        45.5004         31.0004
  21465621.0464   -1301103.25649  -1011558.89447                  21465619.7494
        51.0004         39.2504
  22601768.1474    3691518.52049   2857954.70447                  22601766.8944
        46.5004         31.0004
  23904012.6184    3920671.79149   3036746.22447                  23904012.6034
        43.7504         26.5004
  20287907.5004    -782929.19349   -609466.25148                  20287906.2424
        54.2504         45.2504
  23215226.1934   -5425580.22949  -4214858.75047                  23215226.1654
        43.2504         27.2504
 04  7  6 20 42 39.9990000  0  6G 1G11G14G22G25G20
  23109637.5584   -4195069.32549  -3260708.79747                  23109639.4644
        45.0004         31.0004
  21465102.3914   -1303828.93149  -1013682.80247                  21465100.9394
        50.5004         39.2504
  22605769.5944    3712547.72749   2874341.08547                  22605768.6134
        46.5004         30.2504
  23908528.8444    3944405.06949   3055239.62847                  23908528.6994
        43.7504         27.0004
  20287936.3944    -782775.64049   -609346.59548                  20287935.6124
        53.7504         45.0004
  23209199.8694   -5457248.09449  -4239535.00547                  23209199.5684
        44.0004         27.5004
 04  7  6 20 42 49.9990000  0  6G 1G11G14G22G25G20
  23105299.8944   -4217866.09949  -3278472.48447                  23105301.6154
        43.2504         30.2504
  21464594.2764   -1306499.51549  -1015763.79048                  21464593.1504
        50.5004         39.5004
  22609771.5814    3733575.98349   2890726.71747                  22609770.1344
        46.2504         31.5004
  23913048.3954    3968154.53949   3073745.67847                  23913048.4224
        43.5004         27.0004
  20287976.3064    -782569.31849   -609185.83348                  20287974.5764
        54.0004         45.5004
  23203173.0034   -5488917.13349  -4264212.14247                  23203172.8954
        44.2504         28.2504
 04  7  6 20 42 59.9990000  0  6G 1G11G14G22G25G20
  23100964.7974   -4240649.49349  -3296225.75247                  23100966.3964
        45.5004         31.2504
  21464096.7114   -1309115.24549  -1017802.01647                  21464095.2864
        51.0004         39.0004
  22613772.6024    3754602.85949   2907111.28947                  22613771.4244
        46.7504         32.0004
  23917570.4534    3991919.84149   3092264.04947                  23917570.3684
        43.0004         26.5004
  20288025.2414    -782310.63549   -608984.25848                  20288023.9884
        54.2504         45.5004
  23197146.4404   -5520587.70949  -4288890.51147                  23197146.2274
        44.0004         28.7504
 04  7  6 20 43  9.9990000  0  6G 1G11G14G22G25G20
  23096631.6234   -4263420.00049  -3313968.98747                  23096633.2644
        44.7504         32.0004
  21463608.9704   -1311676.74849  -1019797.98948                  21463607.7524
        51.0004         39.5004
  22617774.0684    3775627.84149   2923494.37247                  22617772.8844
        45.7504         32.5004
  23922095.9834    4015700.35749   3110794.30847                  23922096.0654
        43.0004         27.0004
  20288084.3044    -782000.09849   -608742.27848                  20288082.9634
        54.2504         45.7504
  23191119.7904   -5552260.24549  -4313570.38547                  23191119.7384
        45.0004         30.2504
 04  7  6 20 43 19.9990000  0  6G 1G11G14G22G25G20
  23092300.6134   -4286176.37349  -3331701.18847                  23092301.9494
        43.2504         31.5004
  21463132.1954   -1314182.73349  -1021750.70547                  21463131.0064
        50.0004         39.2504
  22621774.1634    3796652.13449   2939876.92547                  22621773.4304
        46.2504         32.0004
  23926624.3874    4039497.39749   3129337.40746                  23926624.5124
        42.5004         24.5004
  20288153.3584    -781636.47249   -608458.92648                  20288152.1354
        54.0004         45.5004
  23185092.2824   -5583933.44049  -4338250.77747                  23185092.1394
        44.2504         28.5004
 04  7  6 20 43 29.9990000  0  6G 1G11G14G22G25G20
  23087974.0494   -4308916.73449  -3349420.93547                  23087974.8024
        44.5004         31.5004
  21462666.2214   -1316631.35449  -1023658.72747                  21462664.9134
        50.2504         38.7504
  22625775.1194    3817677.62149   2956260.40247                  22625774.6054
        44.7504         31.5004
  23931156.6214    4063312.75449   3147894.80047                  23931156.2534
        42.0004         26.0004
  20288232.9604    -781217.93749   -608132.79748                  20288231.5494
        54.0004         45.5004
  23179065.4094   -5615605.39249  -4362930.21547                  23179065.2104
        44.5004         29.7504
 04  7  6 20 43 39.9990000  0  6G 1G11G14G22G25G20
  23083648.9634   -4331642.97349  -3367129.65647                  23083650.3244
        43.0004         30.5004
  21462210.7484   -1319024.49849  -1025523.52247                  21462209.6094
        50.7504         38.7504
  22629776.0854    3838702.42149   2972643.36647                  22629775.1884
        43.7504         30.5004
  23935691.4854    4087144.57749   3166465.00346                  23935691.4984
        42.7504         25.5004
  20288322.8154    -780746.42149   -607765.39048                  20288321.8694
        53.0004         45.5004
  23173038.4154   -5647277.83149  -4387610.01947                  23173038.1564
        44.0004         29.5004
 04  7  6 20 43 49.9990000  0  6G 1G11G14G22G25G20
  23079327.6514   -4354353.15849  -3384825.88847                  23079328.7874
        44.5004         31.0004
  21461766.4024   -1321360.26249  -1027343.60447                  21461765.1674
        50.5004         38.5004
  22633777.2704    3859728.46049   2989027.28347                  22633776.5104
        44.0004         31.5004
  23940230.2844    4110994.78449   3185049.54047                  23940230.2574
        42.5004         26.5004
  20288422.9414    -780220.03149   -607355.20348                  20288421.9204
        53.2504         44.7504
  23167011.3234   -5678948.81749  -4412288.70147                  23167011.4584
        43.0004         28.0004
 04  7  6 20 43 59.9990000  0  6G 1G11G14G22G25G20
  23075008.8014   -4377048.27949  -3402510.36947                  23075009.9964
        45.0004         32.0004
  21461332.8704   -1323639.66049  -1029119.74947                  21461331.2734
        50.2504         38.5004
  22637778.4744    3880754.64049   3005411.31047                  22637777.4914
        44.5004         32.0004
  23944771.5834    4134862.37149   3203647.62947                  23944772.3234
        42.7504         26.0004
  20288533.4454    -779639.83549   -606903.10348                  20288532.0974
        54.2504         45.5004
  23160984.9834   -5710619.36749  -4436967.03447                  23160984.0434
        43.2504         29.0004
 04  7  6 20 44  9.9990000  0  6G 1G11G14G22G25G20
  23070692.0514   -4399730.77349  -3420185.01347                  23070693.3194
        45.0004         31.5004
  21460909.2664   -1325865.09349  -1030853.85748                  21460908.0544
        50.5004         39.5004
  22641778.8944    3901778.54349   3021793.56447                  22641778.0994
        44.0004         31.7504
  23949316.6584    4158744.90549   3222257.36746                  23949316.4584
        42.5004         25.5004
  20288653.5574    -779008.17349   -606410.90348                  20288652.5404
        54.0004         45.2504
  23154957.8854   -5742291.77549  -4461646.80247                  23154957.7164
        43.5004         30.0004
 04  7  6 20 44 19.9990000  0  6G 1G11G14G22G25G20
  23066378.3404   -4422399.42349  -3437848.85547                  23066379.9074
        45.0004         32.0004
  21460496.0604   -1328035.28349  -1032544.91748                  21460495.4524
        50.7504         39.5004
  22645779.4274    3922801.42849   3038175.01147                  22645778.5624
        45.0004         31.5004
  23953864.9704    4182643.72149   3240879.75847                  23953864.7314
        42.2504         25.7504
  20288783.9974    -778323.84149   -605877.64748                  20288782.7194
        54.0004         45.5004
  23148931.1164   -5773964.69149  -4486326.96947                  23148930.6834
        44.2504         30.2504
 04  7  6 20 44 29.9990000  0  6G 1G11G14G22G25G20
  23062067.8014   -4445052.49649  -3455500.59647                  23062069.0764
        45.2504         31.0004
  21460094.2184   -1330148.54049  -1034191.60947                  21460093.0884
        50.7504         39.2504
  22649780.3314    3943824.92649   3054556.95347                  22649779.4684
        43.5004         32.0004
  23958415.7034    4206560.41249   3259516.09446                  23958416.2214
        41.7504         25.5004
  20288924.3754    -777585.16149   -605302.05348                  20288923.3474
        52.7504         45.5004
  23142903.4914   -5805636.39449  -4511006.21347                  23142903.2364
        43.7504         30.5004
 04  7  6 20 44 39.9990000  0  6G 1G11G14G22G25G20
  23057759.8354   -4467691.34649  -3473141.22247                  23057761.0654
        43.7504         32.0004
  21459702.4064   -1332206.22849  -1035795.01747                  21459701.4824
        49.5004         39.0004
  22653780.9184    3964847.75049   3070938.37047                  22653779.9544
        44.0004         31.0004
  23962969.7984    4230493.62249   3278165.34646                  23962970.6164
        42.7504         24.7504
  20289074.9264    -776793.54749   -604685.21648                  20289073.6394
        53.5004         45.2504
  23136877.3564   -5837308.11849  -4535685.47347                  23136876.5574
        43.2504         30.5004
 04  7  6 20 44 49.9990000  0  6G 1G11G14G22G25G20
  23053454.8034   -4490312.91449  -3490768.38647                  23053456.3094
        43.5004         31.0004
  21459322.1634   -1334205.31149  -1037352.74147                  21459320.8824
        49.5004         38.5004
  22657781.9444    3985872.88949   3087321.58547                  22657781.0204
        41.7504         31.5004
  23967528.4044    4254446.36049   3296829.76946                  23967528.1614
        42.5004         25.5004
  20289236.4604    -775945.87249   -604024.67448                  20289235.0874
        52.5004         45.7504
  23130851.0594   -5868976.74649  -4560362.31947                  23130850.3084
        42.5004         30.0004
 04  7  6 20 44 59.9990000  0  6G 1G11G14G22G25G20
  23049152.9334   -4512918.64649  -3508383.21347                  23049154.1294
        43.7504         29.5004
  21458952.5404   -1336147.19749  -1038865.89947                  21458951.4434
        50.5004         38.5004
  22661783.0194    4006898.93549   3103705.52647                  22661782.0604
        43.5004         31.2504
  23972089.3564    4278417.30449   3315508.39446                  23972089.5984
        43.0004         25.0004
  20289408.1254    -775043.63649   -603321.63448                  20289407.0994
        54.0004         45.0004
  23124824.8674   -5900643.74549  -4585037.88547                  23124823.8704
        44.5004         29.5004
 04  7  6 20 45  9.9990000  0  6G 1G11G14G22G25G20
  23044854.2754   -4535509.48249  -3525986.43747                  23044855.7914
        45.0004         30.7504
  21458593.6234   -1338032.89849  -1040335.28747                  21458592.4194
        50.2504         38.5004
  22665784.3014    4027924.85049   3120089.33447                  22665782.9284
        43.0004         31.2504
  23976654.2624    4302405.39949   3334200.36147                  23976654.1334
        42.2504         26.7504
  20289590.1324    -774087.88749   -602576.89348                  20289589.1434
        54.0004         45.2504
  23118798.3334   -5932309.95349  -4609712.83847                  23118798.4474
        44.0004         30.2504
 04  7  6 20 45 19.9990000  0  6G 1G11G14G22G25G20
  23040558.1844   -4558083.91349  -3543576.89347                  23040559.1854
        45.0004         30.5004
  21458246.0384   -1339860.95449  -1041759.74047                  21458244.7664
        50.7504         38.5004
  22669785.6924    4048952.23749   3136474.30047                  22669784.8964
        44.2504         31.5004
  23981223.5444    4326412.23749   3352906.96347                  23981222.9314
        42.7504         26.2504
  20289782.4824    -773077.12949   -601789.29748                  20289781.3594
        53.7504         46.0004
  23112773.6384   -5963973.72149  -4634385.87947                  23112772.8294
        44.7504         30.0004
 04  7  6 20 46 29.9990000  4  2
2.000000                                                    COMMENT
END OF STATIC OBSERVATION                                   COMMENT
 04  7  6 20 46 29.9990000  0  6G 1G11G14G22G25G20
  23010567.8814   -4715682.90749  -3666381.13347                  23010569.7364
        45.0004         29.5004
  21456111.1514   -1351077.12949  -1050499.62547                  21456110.6694
        50.7504         38.7504
  22697795.6714    4196145.23249   3251170.09447                  22697794.7154
        45.0004         31.5004
  24013295.0494    4494946.29549   3484231.99047                  24013294.1774
        44.5004         26.2504
  20291414.2844    -764500.31849   -595106.03548                  20291413.0844
        53.5004         45.2504
  23070601.1814   -6185584.69449  -4807069.66347                  23070601.2634
        44.5004         29.0004
 04  7  6 20 46 39.9990000  0  6G 1G11G14G22G25G20
  23006296.1834   -4738132.64149  -3683874.42447                  23006297.3274
        44.5004         28.7504
  21455850.0364   -1352449.81049  -1051569.26047                  21455849.0874
        50.2504         38.7504
  22701797.9154    4217176.99549   3267558.45847                  22701796.5194
        44.5004         32.0004
  24017889.3814    4519096.13249   3503049.97647                  24017889.6944
        45.0004         26.5004
  20291689.3094    -763056.72949   -593981.17548                  20291688.1174
        53.0004         45.2504
  23064578.7794   -6217233.39549  -4831730.97347                  23064578.3304
        43.2504         29.5004
 04  7  6 20 46 49.9990000  0  6G 1G11G14G22G25G20
  23002027.1634   -4760566.14549  -3701355.03747                  23002028.0444
        44.5004         28.5004
  21455600.1914   -1353765.00549  -1052594.08147                  21455599.1074
        50.5004         39.0004
  22705800.0684    4238209.83849   3283947.67447                  22705799.2754
        43.5004         30.5004
  24022489.1464    4543264.45349   3521882.40347                  24022488.6544
        44.5004         26.0004
  20291974.3034    -761558.53649   -592813.74548                  20291972.8764
        54.0004         45.5004
  23058557.4394   -6248879.28649  -4856390.07847                  23058556.4464
        44.0004         28.5004
 04  7  6 20 46 59.9990000  0  6G 1G11G14G22G25G20
  22997760.8674   -4782985.86249  -3718824.94247                  22997761.9834
        45.0004         29.0004
  21455359.9374   -1355025.08149  -1053575.96647                  21455358.9434
        50.7504         39.0004
  22709801.9634    4259241.42249   3300335.91347                  22709801.5814
        43.7504         31.2504
  24027091.3474    4567448.79349   3540727.30847                  24027091.0274
        44.5004         27.0004
  20292269.0404    -760008.15149   -591605.64448                  20292267.7884
        54.2504         45.5004
  23052535.4604   -6280524.74249  -4881048.87947                  23052534.8324
        44.7504         28.5004
 04  7  6 20 47  9.9990000  0  6G 1G11G14G22G25G20
  22993497.1434   -4805390.57549  -3736283.12147                  22993498.4064
        44.2504         28.5004
  21455131.3434   -1356228.80949  -1054513.93647                  21455130.0224
        50.2504         39.2504
  22713803.8294    4280272.89249   3316724.06647                  22713803.7264
        45.0004         31.5004
  24031696.9684    4591650.38249   3559585.65247                  24031696.2104
        44.0004         27.0004
  20292574.6404    -758404.37949   -590355.96148                  20292573.2934
        54.0004         45.5004
  23046513.9124   -6312168.44549  -4905706.29047                  23046513.2784
        43.2504         29.5004
 04  7  6 20 47 19.9990000  0  6G 1G11G14G22G25G20
  22989237.4314   -4827777.99849  -3753727.85147                  22989238.3824
        44.0004         26.7504
  21454913.4404   -1357373.97049  -1055406.27747                  21454912.2434
        50.7504         38.7504
  22717806.6404    4301306.47549   3333113.85347                  22717805.6494
        45.5004         30.5004
  24036305.9384    4615871.53749   3578459.24647                  24036305.5384
        44.7504         26.5004
  20292890.1884    -756744.97649   -589062.91748                  20292889.0694
        54.0004         45.0004
  23040492.8544   -6343808.11949  -4930360.55647                  23040492.0554
        43.2504         28.5004
 04  7  6 20 47 29.9990000  0  6G 1G11G14G22G25G20
  22984979.4204   -4850152.03649  -3771162.14947                  22984980.4054
        44.5004         28.5004
  21454706.0214   -1358464.40549  -1056255.97448                  21454704.2654
        50.2504         39.5004
  22721809.0434    4322338.26249   3349502.24147                  22721807.6004
        45.0004         32.0004
  24040918.3454    4640108.32049   3597345.02047                  24040917.6794
        45.0004         27.0004
  20293215.8514    -755033.96049   -587729.64848                  20293214.4564
        53.7504         45.5004
  23034471.9914   -6375447.51649  -4955014.61247                  23034471.1844
        43.5004         29.0004
 04  7  6 20 47 39.9990000  0  6G 1G11G14G22G25G20
  22980724.3184   -4872511.55149  -3788585.11147                  22980725.4364
        44.7504         28.5004
  21454509.0604   -1359499.13649  -1057062.25947                  21454507.5004
        50.7504         39.2504
  22725811.5654    4343369.37049   3365890.13447                  22725810.4064
        45.7504         31.7504
  24045532.9594    4664361.84349   3616243.81846                  24045532.9804
        44.5004         24.2504
  20293551.2744    -753270.18049   -586355.27648                  20293550.0964
        53.5004         45.2504
  23028451.5804   -6407085.47149  -4979667.56547                  23028451.1134
        44.0004         28.2504
 04  7  6 20 47 49.9990000  0  6G 1G11G14G22G25G20
  22976472.1674   -4894854.09749  -3805994.86447                  22976473.1554
        44.2504         29.0004
  21454322.9794   -1360475.68749  -1057823.21847                  21454321.8784
        50.2504         39.0004
  22729813.7394    4364402.30349   3382279.41847                  22729812.3624
        46.5004         31.2504
  24050152.5484    4688634.49849   3635157.53946                  24050151.3574
        44.5004         24.7504
  20293897.1934    -751451.19549   -584937.88048                  20293896.3234
        54.0004         45.5004
  23022431.5584   -6438719.48449  -5004317.44747                  23022430.6584
        43.7504         27.5004
 04  7  6 20 47 59.9990000  0  6G 1G11G14G22G25G20
  22972223.5064   -4917183.92749  -3823394.70647                  22972224.3854
        44.0004         28.7504
  21454147.7174   -1361398.21649  -1058542.07047                  21454146.0574
        50.7504         39.0004
  22733815.5684    4385432.80949   3398666.80447                  22733815.0784
        46.0004         31.5004
  24054774.1454    4712922.22149   3654083.00646                  24054773.2664
        44.7504         25.5004
  20294253.2084    -749581.26549   -583480.78948                  20294252.0684
        54.0004         45.5004
  23016410.7214   -6470353.68349  -5028967.44847                  23016410.8334
        42.5004         28.0004
 04  7  6 20 48  9.9990000  0  6G 1G11G14G22G25G20
  22967977.6974   -4939496.51749  -3840781.13147                  22967978.8464
        44.5004         28.2504
  21453983.4664   -1362262.33049  -1059215.41847                  21453981.8504
        51.0004         38.7504
  22737818.1854    4406465.39349   3415055.83547                  22737817.3544
        46.5004         31.2504
  24059399.5374    4737229.39749   3673023.61746                  24059399.0234
        44.5004         24.7504
  20294620.0094    -747655.93349   -581980.53048                  20294618.3054
        54.0004         45.5004
  23010393.1014   -6501983.45849  -5053614.00247                  23010392.1304
        43.0004         28.0004
 04  7  6 20 48 19.9990000  0  6G 1G11G14G22G25G20
  22963734.4774   -4961793.55849  -3858155.41647                  22963735.4324
        44.5004         28.5004
  21453829.5594   -1363069.59149  -1059844.44847                  21453828.3774
        51.2504         39.0004
  22741820.0734    4427498.33049   3431445.09647                  22741819.0444
        46.5004         31.2504
  24064028.4674    4761554.39549   3691978.18346                  24064027.4944
        44.2504         22.5004
  20294996.5524    -745676.83649   -580438.37948                  20294995.2064
        53.7504         45.5004
  23004374.5414   -6533610.46049  -5078258.41647                  23004373.4184
        44.5004         28.0004
 04  7  6 20 48 29.9990000  0  6G 1G11G14G22G25G20
  22959494.3614   -4984073.47949  -3875516.39347                  22959495.6694
        43.7504         28.5004
  21453687.2904   -1363818.50049  -1060428.01747                  21453685.3064
        51.2504         38.7504
  22745823.5344    4448533.14649   3447835.86747                  22745822.2704
        46.5004         30.7504
  24068661.2184    4785898.72849   3710947.75546                  24068660.3704
        44.2504         21.7504
  20295383.2734    -743642.48449   -578853.17348                  20295382.2734
        53.7504         45.0004
  22998356.7884   -6565233.03849  -5102899.38147                  22998356.3194
        43.5004         27.2504
 04  7  6 20 48 39.9990000  0  6G 1G11G14G22G25G20
  22955257.7964   -5006337.58049  -3892864.98547                  22955259.1434
        44.2504         29.0004
  21453555.7424   -1364510.30749  -1060967.09548                  21453553.9304
        51.0004         39.5004
  22749826.1594    4469568.52249   3464227.05847                  22749825.6664
        46.5004         30.5004
  24073296.8624    4810261.08849   3729931.40246                  24073296.8644
        45.0004         23.7504
  20295780.7104    -741554.26849   -577225.98248                  20295779.5394
        53.7504         45.7504
  22992340.1224   -6596852.43349  -5127537.84947                  22992338.9084
        44.0004         27.0004
 04  7  6 20 48 49.9990000  0  6G 1G11G14G22G25G20
  22951023.9454   -5028586.75749  -3910201.98947                  22951025.2954
        44.0004         27.7504
  21453434.5094   -1365146.01249  -1061462.45047                  21453433.1224
        51.5004         39.0004
  22753828.5914    4490603.61449   3480618.03747                  22753828.0874
        46.0004         30.7504
  24077936.4914    4834640.63949   3748928.41646                  24077935.7344
        44.0004         25.0004
  20296188.1214    -739412.98149   -575557.44348                  20296187.3874
        54.0004         45.5004
  22986323.0444   -6628469.45849  -5152174.46847                  22986322.6744
        44.5004         27.0004
 04  7  6 20 48 59.9990000  0  6G 1G11G14G22G25G20
  22946792.9624   -5050821.55049  -3927527.81247                  22946794.0434
        43.7504         28.0004
  21453324.3664   -1365726.08349  -1061914.45847                  21453323.0354
        51.2504         38.7504
  22757831.4354    4511637.83949   3497008.32747                  22757831.1124
        46.0004         30.7504
  24082579.0464    4859036.80349   3767938.40046                  24082578.4604
        44.0004         23.0004
  20296605.6924    -737219.22549   -573848.02048                  20296604.6024
        54.2504         46.0004
  22980307.1204   -6660084.59649  -5176809.63047                  22980306.3164
        44.5004         27.2504
 04  7  6 20 49  9.9990000  0  6G 1G11G14G22G25G20
  22942564.0014   -5073040.51649  -3944841.24847                  22942565.8614
        43.7504         28.5004
  21453224.1164   -1366249.07149  -1062321.98847                  21453223.3514
        51.5004         38.7504
  22761834.5374    4532672.63649   3513399.06747                  22761834.0004
        45.0004         31.5004
  24087224.3964    4883450.97349   3786962.40846                  24087224.0054
        44.0004         22.5004
  20297033.4374    -734971.61749   -572096.63948                  20297032.0314
        54.2504         45.5004
  22974291.5384   -6691696.31249  -5201442.12947                  22974290.2584
        44.0004         27.0004
 04  7  6 20 49 19.9990000  0  6G 1G11G14G22G25G20
  22938339.1804   -5095244.33849  -3962142.91147                  22938340.3794
        44.7504         28.2504
  21453135.9754   -1366715.76449  -1062685.65047                  21453134.3084
        51.2504         38.5004
  22765837.0994    4553707.25249   3529789.65547                  22765835.9324
        46.0004         30.5004
  24091873.7564    4907882.42449   3805999.81746                  24091873.0544
        43.7504         22.7504
  20297471.3714    -732670.95949   -570303.91848                  20297470.0264
        54.5004         45.2504
  22968276.5824   -6723305.24949  -5226072.45147                  22968275.5914
        44.5004         26.5004
 04  7  6 20 49 29.9990000  0  6G 1G11G14G22G25G20
  22934117.4924   -5117431.06949  -3979431.24247                  22934118.2254
        44.5004         29.0004
  21453057.8574   -1367124.22349  -1063003.93347                  21453056.6174
        51.5004         38.7504
  22769840.3654    4574743.75149   3546181.72747                  22769839.4814
        46.0004         30.5004
  24096526.8854    4932333.10449   3825052.28946                  24096526.3564
        43.5004         23.0004
  20297919.6264    -730315.31849   -568468.36248                  20297917.8584
        53.2504         45.2504
  22962262.4534   -6754909.40049  -5250699.07547                  22962261.5064
        44.2504         28.2504
 04  7  6 20 49 39.9990000  0  6G 1G11G14G22G25G20
  22929898.9584   -5139600.69649  -3996706.26747                  22929899.6184
        44.2504         28.7504
  21452991.4444   -1367474.47749  -1063276.86247                  21452990.4444
        50.7504         38.5004
  22773843.8294    4595782.06249   3562575.20347                  22773843.1214
        45.5004         31.0004
  24101183.4124    4956803.13349   3844119.85046                  24101183.2754
        44.0004         23.0004
  20298378.2454    -727904.64849   -566589.90848                  20298376.7304
        54.0004         45.0004
  22956249.2384   -6786508.67249  -5275321.84547                  22956248.6254
        43.5004         26.2504
 04  7  6 20 49 49.9990000  0  6G 1G11G14G22G25G20
  22925682.7884   -5161755.27349  -4013969.57447                  22925684.1594
        44.7504         29.0004
  21452935.4714   -1367768.48849  -1063505.96547                  21452934.2324
        50.0004         38.5004
  22777847.0714    4616820.11549   3578968.49647                  22777846.6874
        46.0004         31.0004
  24105843.6184    4981290.36349   3863200.77446                  24105843.3744
        44.0004         22.5004
  20298847.1084    -725440.98049   -564670.16048                  20298845.8684
        54.5004         45.2504
  22950236.9894   -6818105.00949  -5299942.36747                  22950235.7634
        43.7504         29.0004
 04  7  6 20 49 59.9990000  0  6G 1G11G14G22G25G20
  22921469.6254   -5183894.42049  -4031220.81547                  22921471.3484
        45.0004         29.5004
  21452890.1524   -1368005.87349  -1063690.94047                  21452889.3324
        51.0004         38.0004
  22781850.7584    4637858.25349   3595361.82647                  22781850.6364
        45.2504         31.0004
  24110506.0024    5005795.23649   3882295.45146                  24110506.0564
        43.7504         24.7504
  20299326.0624    -722924.06749   -562708.92548                  20299324.7394
        53.7504         45.2504
  22944225.1304   -6849697.95649  -5324560.22147                  22944224.0124
        44.5004         28.0004
 04  7  6 20 50  9.9990000  0  6G 1G11G14G22G25G20
  22917260.1924   -5206016.24749  -4048458.58347                  22917261.6784
        45.0004         28.7504
  21452855.8994   -1368184.72049  -1063830.31047                  21452854.7164
        51.0004         38.2504
  22785854.3354    4658898.36449   3611756.71647                  22785853.6784
        44.2504         29.7504
  24115172.7974    5030319.60949   3901405.31346                  24115172.7654
        43.0004         23.0004
  20299815.2344    -720351.97549   -560704.70748                  20299813.9194
        54.0004         45.7504
  22938214.0044   -6881285.66249  -5349174.00547                  22938212.8744
        45.5004         27.7504
 04  7  6 20 50 19.9990000  0  6G 1G11G14G22G25G20
  22913053.6984   -5228122.60949  -4065684.30747                  22913054.7404
        45.5004         30.0004
  21452833.1914   -1368306.87349  -1063925.49147                  21452831.8694
        51.0004         38.5004
  22789858.5204    4679938.68349   3628151.75147                  22789857.2464
        44.7504         30.2504
  24119843.2344    5054861.62949   3920528.95246                  24119842.6464
        43.5004         23.0004
  20300315.2314    -717726.54949   -558658.91448                  20300313.9384
        54.2504         45.5004
  22932203.9484   -6912869.78449  -5373784.97647                  22932202.9154
        44.2504         27.5004
 04  7  6 20 50 29.9990000  0  6G 1G11G14G22G25G20
  22908850.1554   -5250211.53249  -4082896.42347                  22908851.6414
        46.0004         30.2504
  21452820.6144   -1368370.50249  -1063975.07747                  21452819.5444
        51.0004         38.5004
  22793862.5364    4700981.06249   3644548.40647                  22793862.1824
        45.5004         31.2504
  24124517.0634    5079423.25249   3939667.83246                  24124517.2264
        43.5004         24.7504
  20300825.1714    -715045.94349   -556570.13148                  20300823.8224
        54.0004         45.5004
  22926194.5684   -6944448.29749  -5398391.59747                  22926194.0854
        45.5004         28.5004
 04  7  6 20 50 39.9990000  0  6G 1G11G14G22G25G20
  22904649.8794   -5272286.51949  -4100097.70447                  22904651.6644
        45.0004         30.5004
  21452819.4014   -1368379.08649  -1063981.77747                  21452817.8774
        50.5004         39.0004
  22797866.4754    4722021.99949   3660943.91347                  22797866.0134
        45.0004         30.7504
  24129193.4954    5104000.98449   3958819.27846                  24129194.4064
        42.2504         23.5004
  20301345.2594    -712313.65549   -554441.07648                  20301343.7674
        54.0004         45.0004
  22920185.1384   -6976024.63449  -5422996.51947                  22920185.0504
        44.2504         27.0004
 04  7  6 20 50 49.9990000  0  6G 1G11G14G22G25G20
  22900451.8224   -5294343.13249  -4117284.66347                  22900453.6884
        45.0004         29.7504
  21452828.6414   -1368328.16349  -1063942.10047                  21452827.6724
        50.2504         38.2504
  22801871.2644    4743065.97449   3677341.81447                  22801870.4494
        44.2504         30.5004
  24133874.9324    5128599.26949   3977986.74746                  24133874.9764
        42.2504         23.0004
  20301875.7204    -709525.23749   -552268.27948                  20301874.7574
        54.0004         45.0004
  22914178.7084   -7007594.34549  -5447596.30647                  22914177.4104
        44.7504         28.0004
 04  7  6 20 50 59.9990000  0  6G 1G11G14G22G25G20
  22896257.8134   -5316383.92949  -4134459.28947                  22896259.0554
        46.0004         30.5004
  21452849.3314   -1368220.27649  -1063858.02447                  21452848.6114
        51.0004         38.2504
  22805875.0434    4764110.48949   3693740.13947                  22805875.0364
        44.0004         29.7504
  24138559.1544    5153215.53549   3997168.19546                  24138559.5014
        41.5004         23.5004
  20302416.6164    -706683.27749   -550053.75948                  20302414.9954
        53.0004         45.2504
  22908172.0164   -7039159.86049  -5472192.77947                  22908170.7324
        45.7504         28.5004
 04  7  6 20 51  9.9990000  0  6G 1G11G14G22G25G20
  22892066.4304   -5338410.37649  -4151622.73547                  22892067.8094
        46.0004         31.2504
  21452880.1054   -1368057.03049  -1063730.83247                  21452879.5594
        51.0004         38.5004
  22809879.9194    4785153.94549   3710137.60547                  22809879.1734
        44.7504         30.0004
  24143246.4064    5177848.25549   4016362.51346                  24143247.0364
        41.5004         22.7504
  20302967.0764    -703789.37449   -547798.77848                  20302965.6704
        53.7504         45.0004
  22902165.1864   -7070722.59349  -5496787.07447                  22902164.1064
        44.0004         28.2504
 04  7  6 20 51 19.9990000  0  6G 1G11G14G22G25G20
  22887877.9384   -5360420.77049  -4168773.66247                  22887879.6104
        46.0004         31.5004
  21452922.7624   -1367836.58749  -1063559.07047                  21452921.5114
        51.5004         38.7504
  22813884.6414    4806198.08049   3726535.63847                  22813883.9154
        45.2504         30.5004
  24147937.4314    5202499.16549   4035570.93446                  24147937.9454
        41.0004         23.7504
  20303528.2434    -700841.76149   -545501.93948                  20303526.8314
        54.2504         46.0004
  22896160.2054   -7102280.78049  -5521377.88047                  22896158.8054
        44.0004         30.0004
 04  7  6 20 51 29.9990000  0  6G 1G11G14G22G25G20
  22883693.0424   -5382415.61049  -4185912.48147                  22883694.5534
        45.7504         31.7504
  21452975.0614   -1367559.48449  -1063343.14047                  21452974.0184
        51.5004         39.2504
  22817889.2914    4827242.40649   3742933.77847                  22817888.7164
        45.0004         30.2504
  24152630.7924    5227167.74649   4054793.20346                  24152632.3684
        39.2504         21.7504
  20304099.4984    -697841.03349   -543163.69748                  20304097.9804
        54.5004         45.5004
  22890155.2714   -7133834.84649  -5545965.46047                  22890154.3494
        43.2504         29.7504
 04  7  6 20 51 39.9990000  0  6G 1G11G14G22G25G20
  22879509.9304   -5404394.98149  -4203039.24647                  22879511.9944
        46.2504         31.7504
  21453038.3394   -1367225.90349  -1063083.22047                  21453037.7024
        51.0004         39.2504
  22821893.9654    4848286.79549   3759331.99747                  22821893.2994
        45.0004         30.5004
  24157329.5734    5251853.95549   4074029.19446                  24157330.2314
        39.5004         22.5004
  20304680.3164    -694787.23049   -540784.11448                  20304678.9114
        53.5004         45.0004
  22884152.0724   -7165384.74749  -5570549.76247                  22884151.2864
        43.7504         30.2504
 04  7  6 20 51 49.9990000  0  6G 1G11G14G22G25G20
  22875330.8134   -5426356.57449  -4220152.15647                  22875332.1824
        45.2504         32.2504
  21453113.2364   -1366833.52549  -1062777.46747                  21453111.9744
        51.0004         39.0004
  22825898.7914    4869333.56449   3775732.08547                  22825898.3894
        44.5004         30.5004
  24162030.7184    5276560.07449   4093280.63946                  24162031.8624
        40.0004         22.5004
  20305271.8214    -691678.07449   -538361.40248                  20305270.6574
        54.5004         45.0004
  22878149.0124   -7196928.16149  -5595129.05047                  22878148.4024
        44.5004         30.5004
 04  7  6 20 51 59.9990000  0  6G 1G11G14G22G25G20
  22871155.2214   -5448303.62849  -4237253.75247                  22871155.6504
        46.2504         32.0004
  21453198.4014   -1366385.56749  -1062428.41847                  21453197.3514
        51.2504         38.7504
  22829904.0764    4890379.50549   3792131.49247                  22829903.1494
        43.5004         29.5004
  24166736.0244    5301282.90549   4112545.15846                  24166736.1214
        39.7504         24.5004
  20305873.5614    -688516.86449   -535898.11048                  20305872.0454
        54.2504         44.7504
  22872147.5544   -7228468.24549  -5619705.72547                  22872146.1034
        44.0004         29.7504
 04  7  6 20 52  9.9990000  0  5G 1G11G14G25G20
  22866981.5074   -5470234.84349  -4254342.98547                  22866982.5484
        46.5004         31.5004
  21453294.7394   -1365880.77249  -1062035.07947                  21453293.6794
        51.2504         38.7504
  22833909.1354    4911425.86349   3808531.23647                  22833908.0294
        44.2504         30.0004
  20306485.2584    -685302.35649   -533393.30048                  20306484.0564
        53.2504         45.2504
  22866146.1324   -7260003.64249  -5644278.74247                  22866145.0424
        44.0004         30.2504
 04  7  6 20 52 19.9990000  0  5G 1G11G14G25G20
  22862810.7054   -5492149.77849  -4271419.52747                  22862812.4624
        45.2504         31.5004
  21453401.8664   -1365318.67949  -1061597.09547                  21453400.2974
        51.0004         38.2504
  22837913.6914    4932473.03049   3824931.61647                  22837913.4074
        43.7504         30.2504
  20307107.3574    -682034.07749   -530846.58548                  20307105.8084
        54.0004         45.2504
  22860145.8654   -7291533.84549  -5668847.71747                  22860145.3674
        43.0004         30.0004
 04  7  6 20 52 29.9990000  0  5G 1G11G14G25G20
  22858643.7114   -5514047.89249  -4288482.97147                  22858645.4354
        45.7504         32.7504
  21453519.7394   -1364698.75749  -1061114.04047                  21453518.1734
        50.7504         38.7504
  22841919.6724    4953521.55849   3841333.06847                  22841919.3134
        43.0004         29.5004
  20307739.4704    -678711.55849   -528257.61348                  20307738.3004
        53.0004         45.5004
  22854147.6594   -7323058.18449  -5693412.11047                  22854146.4034
        44.5004         30.7504
 04  7  6 20 52 39.9990000  0  5G 1G11G14G25G20
  22854480.1704   -5535928.78449  -4305532.99947                  22854480.4484
        46.0004         32.7504
  21453648.5894   -1364020.67949  -1060585.66947                  21453647.6884
        51.0004         39.0004
  22845925.4934    4974571.84549   3857735.85447                  22845924.8064
        44.0004         30.0004
  20308381.6594    -675334.48249   -525626.11848                  20308380.7494
        52.2504         45.2504
  22848149.3394   -7354576.28849  -5717971.65747                  22848149.0304
        44.5004         30.7504
 04  7  6 20 52 49.9990000  0  5G 1G11G14G25G20
  22850319.3334   -5557793.38449  -4322570.32647                  22850320.3974
        46.5004         32.2504
  21453788.6964   -1363285.32649  -1060012.67247                  21453787.3544
        51.0004         39.0004
  22849930.9884    4995622.96649   3874139.32447                  22849930.5244
        43.5004         29.5004
  20309034.7364    -671903.78249   -522952.84248                  20309033.4314
        52.0004         45.0004
  22842152.6324   -7386088.93849  -5742526.97447                  22842151.9204
        46.5004         30.5004
 04  7  6 20 52 59.9990000  0  5G 1G11G14G25G20
  22846162.0644   -5579642.59849  -4339595.66547                  22846163.2734
        44.2504         32.5004
  21453939.1304   -1362493.64049  -1059395.78147                  21453938.3184
        51.0004         39.0004
  22853937.0434    5016674.02549   3890542.73147                  22853936.7534
        44.0004         30.5004
  20309697.5914    -668420.44249   -520238.55348                  20309696.5504
        52.7504         45.0004
  22836156.9624   -7417596.89349  -5767078.60347                  22836156.5404
        44.2504         30.5004
 04  7  6 20 53  9.9990000  0  5G 1G11G14G25G20
  22842006.9044   -5601475.35849  -4356608.18847                  22842008.0404
        46.0004         32.7504
  21454100.6834   -1361644.54449  -1058734.14247                  21454099.4094
        51.5004         39.0004
  22857943.2194    5037726.10549   3906946.93047                  22857942.4644
        44.5004         30.2504
  20310371.0714    -664883.33049   -517482.36748                  20310369.7264
        53.2504         44.7504
  22830162.8604   -7449099.06149  -5791625.73647                  22830161.9924
        46.0004         30.5004
 04  7  6 20 53 19.9990000  0  5G 1G11G14G25G20
  22837855.4954   -5623292.13749  -4373608.24347                  22837856.2044
        46.2504         32.7504
  21454273.3934   -1360738.66949  -1058028.27847                  21454271.9774
        50.5004         38.5004
  22861949.4604    5058778.67349   3923351.51547                  22861948.5444
        44.0004         31.0004
  20311053.8564    -661292.94549   -514684.65448                  20311053.0554
        53.2504         45.0004
  22824169.1704   -7480595.93449  -5816168.76047                  22824168.6764
        46.0004         31.5004
 04  7  6 20 53 29.9990000  0  5G 1G11G14G25G20
  22833707.1464   -5645090.89349  -4390594.27447                  22833708.0214
        45.0004         32.5004
  21454456.3694   -1359773.80149  -1057276.43847                  21454455.5844
        51.2504         39.0004
  22865956.1214    5079833.80849   3939758.11247                  22865955.4024
        44.5004         31.0004
  20311747.9364    -657647.39649   -511843.97048                  20311745.9724
        53.0004         45.5004
  22818176.5684   -7512085.30649  -5840705.90347                  22818175.8674
        44.5004         30.7504
 04  7  6 20 53 39.9990000  0  5G 1G11G14G25G20
  22829562.4854   -5666870.87049  -4407565.66047                  22829563.3964
        45.0004         32.2504
  21454651.9084   -1358749.25249  -1056478.09247                  21454650.7474
        51.2504         39.0004
  22869963.7404    5100892.26649   3956167.27847                  22869963.2204
        45.5004         30.7504
  20312452.1344    -653945.93749   -508959.71548                  20312450.5854
        52.5004         45.5004
  22812185.9134   -7543566.36049  -5865236.56847                  22812185.4544
        45.0004         30.7504
 04  7  6 20 53 49.9990000  0  5G 1G11G14G25G20
  22825421.4004   -5688634.70449  -4424524.47047                  22825421.8704
        45.7504         32.0004
  21454857.6874   -1357667.66549  -1055635.31347                  21454855.9224
        50.7504         38.5004
  22873970.1324    5121951.31349   3972576.90247                  22873970.2404
        44.2504         30.2504
  20313166.4554    -650191.23449   -506033.97448                  20313165.0764
        51.0004         45.0004
  22806196.5074   -7575041.64849  -5889762.77347                  22806196.3254
        46.5004         31.2504
 04  7  6 20 53 59.9990000  0  5G 1G11G14G25G20
  22821281.8414   -5710384.42649  -4441472.27747                  22821282.9594
        45.5004         32.5004
  21455073.8324   -1356531.09149  -1054749.66747                  21455072.5314
        50.7504         38.0004
  22877977.3044    5143008.97749   3988985.48547                  22877977.2654
        44.7504         30.0004
  20313890.8454    -646385.28449   -503068.29248                  20313889.7144
        52.7504         45.2504
  22800207.3484   -7606513.20249  -5914286.04247                  22800207.3664
        45.0004         30.5004
 04  7  6 20 54  9.9990000  0  5G 1G11G14G25G20
  22817146.0844   -5732117.03849  -4458406.76447                  22817147.2034
        46.0004         32.2504
  21455301.1564   -1355336.58749  -1053818.88547                  21455300.1844
        50.2504         38.5004
  22881985.3834    5164068.28949   4005395.31647                  22881984.8974
        44.2504         31.0004
  20314625.2694    -642525.14649   -500060.39348                  20314623.9504
        53.0004         45.2504
  22794220.0234   -7637977.81949  -5938803.91447                  22794219.6044
        46.2504         30.2504
 04  7  6 20 54 19.9990000  0  5G 1G11G14G25G20
  22813013.3914   -5753834.36849  -4475329.33047                  22813014.1324
        45.7504         31.7504
  21455539.0954   -1354085.86649  -1052844.30747                  21455537.5214
        50.0004         38.2504
  22885992.9944    5185127.38049   4021804.97747                  22885992.0444
        44.0004         30.5004
  20315369.9974    -638612.68649   -497011.72548                  20315368.6604
        52.0004         45.0004
  22788233.5244   -7669437.25549  -5963317.73247                  22788232.9574
        46.0004         31.0004
 04  7  6 20 54 29.9990000  0  5G 1G11G14G25G20
  22808885.0204   -5775532.18549  -4492236.71147                  22808885.8284
        45.7504         33.5004
  21455788.1854   -1352774.82149  -1051822.71147                  21455786.9634
        50.7504         38.5004
  22890001.1034    5206190.44749   4038217.74947                  22890000.4134
        44.5004         31.0004
  20316125.2374    -634643.75749   -493919.04348                  20316123.4094
        51.7504         45.0004
  22782248.9154   -7700887.29049  -5987824.23947                  22782248.1304
        46.0004         30.7504
 04  7  6 20 54 39.9990000  0  5G 1G11G14G25G20
  22804758.7994   -5797214.19049  -4509131.75147                  22804759.4524
        45.2504         32.0004
  21456048.6744   -1351407.18649  -1050757.02347                  21456047.7664
        50.7504         38.5004
  22894009.0364    5227253.77049   4054630.72047                  22894008.7634
        44.5004         31.0004
  20316890.3024    -630622.09449   -490785.28048                  20316889.4324
        51.2504         44.7504
  22776264.7804   -7732331.52149  -6012326.24347                  22776264.3594
        46.0004         31.5004
 04  7  6 20 54 49.9990000  0  5G 1G11G14G25G20
  22800635.8194   -5818882.59449  -4526016.20247                  22800636.1484
        45.5004         32.2504
  21456319.4094   -1349985.15849  -1049648.96447                  21456318.5304
        50.7504         38.7504
  22898016.9494    5248315.17049   4071042.19447                  22898016.3334
        44.5004         31.7504
  20317665.2314    -626549.85149   -487612.11348                  20317663.9354
        51.2504         45.0004
  22770282.2344   -7763772.12549  -6036825.38047                  22770281.4434
        46.0004         31.5004
 04  7  6 20 54 59.9990000  0  5G 1G11G14G25G20
  22796515.2254   -5840534.29549  -4542887.63047                  22796516.2004
        45.2504         32.5004
  21456601.1084   -1348505.65849  -1048496.10047                  21456599.8314
        50.2504         39.0004
  22902024.9894    5269377.78649   4087454.61647                  22902024.5134
        44.0004         30.0004
  20318450.5864    -622424.00149   -484397.15548                  20318449.0384
        52.0004         45.2504
  22764300.5834   -7795205.85249  -6061319.20347                  22764300.1374
        45.7504         31.5004
 04  7  6 20 55  9.9990000  0  5G 1G11G14G25G20
  22792398.5564   -5862167.70949  -4559744.81947                  22792398.9064
        45.5004         31.5004
  21456893.5964   -1346967.21449  -1047297.32947                  21456892.5624
        50.2504         39.2504
  22906033.9094    5290443.16149   4103869.18447                  22906032.9224
        43.7504         29.0004
  20319246.1754    -618242.98949   -481139.22748                  20319244.9644
        52.0004         45.0004
  22758320.5184   -7826631.09949  -6085806.38547                  22758319.5894
        46.2504         31.0004
 04  7  6 20 55 19.9990000  0  5G 1G11G14G25G20
  22788284.6644   -5883785.19249  -4576589.58147                  22788285.7434
        45.7504         32.2504
  21457197.3354   -1345372.11849  -1046054.38647                  21457195.9274
        50.7504         38.5004
  22910041.8714    5311508.92349   4120284.04547                  22910041.2334
        43.7504         30.0004
  20320051.8814    -614009.16749   -477840.13748                  20320050.6894
        52.0004         45.0004
  22752341.3304   -7858050.08249  -6110288.69147                  22752341.0774
        45.5004         30.7504
 04  7  6 20 55 29.9990000  0  5G 1G11G14G25G20
  22784174.0754   -5905385.76849  -4593421.15447                  22784175.5584
        44.7504         31.0004
  21457511.5024   -1343719.31049  -1044766.49947                  21457510.5844
        51.0004         38.2504
  22914051.8844    5332576.06249   4136699.98947                  22914050.6484
        43.5004         30.0004
  20320867.5584    -609721.65349   -474499.22248                  20320866.2934
        52.2504         44.5004
  22746364.3244   -7889461.76649  -6134765.32447                  22746363.3754
        45.7504         30.5004
 04  7  6 20 55 39.9990000  0  5G 1G11G14G25G20
  22780066.9104   -5926970.72649  -4610240.60247                  22780068.0734
        45.5004         30.5004
  21457837.0034   -1342010.15749  -1043434.69447                  21457836.3354
        51.2504         37.5004
  22918060.5144    5353643.26449   4153115.98547                  22918059.7074
        45.0004         29.5004
  20321693.5824    -605381.78649   -471117.50548                  20321692.1964
        52.7504         44.5004
  22740387.4554   -7920867.36649  -6159237.17747                  22740387.4784
        46.2504         30.2504
 04  7  6 20 55 49.9990000  0  5G 1G11G14G25G20
  22775962.6034   -5948539.12249  -4627047.12247                  22775963.8124
        45.0004         31.2504
  21458172.9884   -1340243.74149  -1042058.26347                  21458171.8414
        50.7504         37.5004
  22922069.9634    5374711.45549   4169532.74747                  22922068.9304
        45.2504         29.7504
  20322529.6394    -600988.66349   -467694.30148                  20322528.2004
        52.5004         44.5004
  22734412.9884   -7952265.89549  -6183703.55547                  22734412.1854
        45.2504         30.2504
 04  7  6 20 55 59.9990000  0  5G 1G11G14G25G20
  22771861.5884   -5970089.84249  -4643839.86847                  22771862.7144
        45.2504         31.0004
  21458520.4324   -1338418.95749  -1040636.36647                  21458519.6604
        51.5004         38.7504
  22926078.9944    5395781.78849   4185951.17347                  22926078.4614
        45.5004         30.0004
  20323376.0124    -596541.20849   -464228.74048                  20323374.7444
        53.5004         45.5004
  22728439.5874   -7983656.17849  -6208163.50947                  22728438.5354
        45.5004         30.5004
 04  7  6 20 56  9.9990000  0  5G 1G11G14G25G20
  22767763.5544   -5991624.82449  -4660620.34347                  22767764.8944
        45.7504         31.0004
  21458878.5534   -1336537.79449  -1039170.52547                  21458877.5004
        50.2504         38.0004
  22930088.6154    5416852.31949   4202369.76847                  22930087.8924
        46.0004         29.2504
  20324232.0624    -592041.31349   -460722.32348                  20324231.0764
        52.5004         44.7504
  22722467.4844   -8015040.02549  -6232618.42547                  22722466.5494
        45.2504         29.7504
 04  7  6 20 56 19.9990000  0  5G 1G11G14G25G20
  22763669.4684   -6013141.98049  -4677386.96547                  22763670.2814
        46.0004         30.7504
  21459247.4224   -1334598.29849  -1037659.23647                  21459246.7974
        50.5004         38.5004
  22934099.0054    5437925.01549   4218790.03247                  22934097.8254
        45.7504         29.2504
  20325098.8554    -587486.99549   -457173.51548                  20325097.3534
        53.2504         45.0004
  22716496.6784   -8046415.41449  -6257066.76747                  22716496.2854
        45.5004         30.0004
 04  7  6 20 56 29.9990000  0  5G 1G11G14G25G20
  22759577.5694   -6034640.77749  -4694139.23347                  22759578.7164
        45.7504         30.7504
  21459627.8214   -1332599.79049  -1036101.95747                  21459627.0764
        50.5004         38.2504
  22938109.5034    5459000.56549   4235212.52747                  22938108.6914
        46.0004         29.7504
  20325975.9904    -582877.75049   -453581.88648                  20325974.7404
        52.5004         44.7504
  22710527.9854   -8077781.54749  -6281507.89947                  22710527.4214
        45.5004         30.0004
 04  7  6 20 56 39.9990000  0  5G 1G11G14G25G20
  22755489.6414   -6056122.61949  -4710878.30947                  22755491.5764
        45.5004         30.5004
  21460019.1534   -1330543.76649  -1034499.86447                  21460018.0574
        51.0004         38.5004
  22942119.8554    5480077.48849   4251636.11547                  22942119.4344
        45.2504         30.0004
  20326863.0524    -578215.11849   -449948.65748                  20326861.9344
        52.2504         44.5004
  22704560.4464   -8109139.76249  -6305942.85347                  22704560.0504
        45.5004         30.2504
 04  7  6 20 56 49.9990000  0  5G 1G11G14G25G20
  22751404.3314   -6077588.28949  -4727604.78047                  22751406.3504
        45.5004         31.0004
  21460421.1434   -1328430.99649  -1032853.54947                  21460419.9694
        51.0004         38.0004
  22946131.1334    5501154.98049   4268060.12047                  22946129.8504
        46.0004         29.2504
  20327760.6194    -573499.83949   -446274.42448                  20327759.1324
        53.0004         45.0004
  22698595.0874   -8140490.81749  -6330372.24647                  22698594.3464
        44.5004         29.7504
 04  7  6 20 56 59.9990000  0  5G 1G11G14G25G20
  22747323.5554   -6099038.08149  -4744318.88347                  22747324.8514
        45.2504         30.7504
  21460833.8324   -1326261.73149  -1031163.21947                  21460832.5024
        51.2504         38.2504
  22950142.1344    5522232.73649   4284484.32147                  22950141.6414
        46.0004         29.7504
  20328667.7414    -568732.25449   -442559.42348                  20328666.2474
        52.5004         45.0004
  22692630.2794   -8171834.95149  -6354796.20647                  22692629.5154
        45.2504         31.2504
 04  7  6 20 57  9.9990000  0  5G 1G11G14G25G20
  22743244.4464   -6120471.39349  -4761020.14747                  22743245.7374
        45.0004         31.0004
  21461257.5914   -1324035.42549  -1029428.44647                  21461256.5964
        50.7504         38.5004
  22954153.1574    5543311.39049   4300909.24347                  22954152.4844
        46.0004         29.5004
  20329584.9374    -563911.78949   -438803.20648                  20329583.5944
        51.7504         45.0004
  22686666.5374   -8203171.46949  -6379214.26447                  22686666.8324
        45.0004         30.5004
 04  7  6 20 57 19.9990000  0  5G 1G11G14G25G20
  22739169.5624   -6141886.46249  -4777707.18747                  22739170.7414
        46.0004         30.2504
  21461692.1914   -1321750.37249  -1027647.87947                  21461691.4524
        51.0004         39.2504
  22958164.7664    5564392.67049   4317336.19847                  22958164.0144
        46.2504         29.5004
  20330512.8484    -559036.60049   -435004.36048                  20330511.3044
        52.0004         45.2504
  22680705.6524   -8234498.56149  -6403624.97747                  22680705.2824
        45.5004         31.5004
 04  7  6 20 57 29.9990000  0  5G 1G11G14G25G20
  22735097.0974   -6163285.48149  -4794381.72147                  22735098.4424
        44.7504         30.5004
  21462138.2174   -1319408.79049  -1025823.27147                  21462137.1874
        51.2504         38.5004
  22962176.6974    5585474.44749   4333763.52947                  22962176.0704
        46.5004         30.2504
  20331450.3534    -554108.99249   -431164.67048                  20331449.0894
        51.7504         45.2504
  22674745.5964   -8265818.29149  -6428029.94247                  22674745.3874
        46.0004         31.2504
 04  7  6 20 57 39.9990000  0  5G 1G11G14G25G20
  22731027.8884   -6184668.56649  -4811043.85447                  22731029.4214
        45.0004         30.5004
  21462594.2744   -1317010.87549  -1023954.77647                  21462593.1054
        51.5004         38.7504
  22966188.0844    5606556.59549   4350191.17347                  22966187.5004
        46.2504         29.5004
  20332398.2334    -549129.17249   -427284.29248                  20332396.5894
        51.7504         44.7504
  22668787.3794   -8297130.70249  -6452429.20847                  22668786.7304
        47.0004         30.7504
 04  7  6 20 57 49.9990000  0  5G 1G11G14G25G20
  22726961.7594   -6206036.07049  -4827693.82247                  22726963.5274
        45.5004         30.5004
  21463061.3374   -1314556.90149  -1022042.59747                  21463060.2334
        51.0004         38.0004
  22970199.8124    5627638.69149   4366618.77747                  22970198.9594
        46.0004         28.5004
  20333355.6824    -544097.53949   -423363.54048                  20333354.3274
        52.0004         44.7504
  22662829.9294   -8328436.06349  -6476822.98547                  22662829.4484
        46.2504         30.2504
 04  7  6 20 57 59.9990000  0  5G 1G11G14G25G20
  22722899.4744   -6227386.77149  -4844330.73547                  22722900.6714
        46.0004         29.5004
  21463539.0574   -1312045.75749  -1020085.87247                  21463537.5964
        51.2504         38.0004
  22974212.1944    5648721.97749   4383047.28147                  22974211.3734
        46.2504         28.0004
  20334323.2524    -539012.89049   -419401.48348                  20334322.1324
        51.0004         44.5004
  22656873.9584   -8359733.09049  -6501210.26947                  22656873.8794
        47.2504         29.7504
 04  7  6 20 58  9.9990000  0  5G 1G11G14G25G20
  22718839.2804   -6248719.80349  -4860953.83847                  22718840.3214
        45.2504         30.0004
  21464028.1924   -1309476.50749  -1018083.85047                  21464027.1884
        51.5004         38.5004
  22978224.5394    5669807.36649   4399477.47147                  22978224.1564
        46.2504         28.5004
  20335300.7384    -533874.36249   -415397.42148                  20335299.6744
        51.0004         45.0004
  22650920.3524   -8391020.84449  -6525590.31147                  22650919.9334
        47.0004         30.5004
 04  7  6 20 58 19.9990000  0  5G 1G11G14G25G20
  22714782.7894   -6270036.84249  -4877564.49047                  22714784.1864
        45.0004         29.5004
  21464527.7694   -1306850.88849  -1016037.91847                  21464526.8554
        50.7504         38.7504
  22982237.9334    5690893.12849   4415907.90147                  22982236.2134
        46.2504         29.5004
  20336288.7744    -528683.61649   -411352.68648                  20336287.7984
        51.7504         45.0004
  22644968.0544   -8422300.91849  -6549964.38247                  22644967.5204
        47.2504         31.0004
 04  7  6 20 58 29.9990000  0  5G 1G11G14G25G20
  22710730.1674   -6291333.84749  -4894159.54647                  22710730.9214
        45.5004         30.2504
  21465038.6954   -1304164.86249  -1013944.90347                  21465037.8864
        51.0004         39.2504
  22986250.9324    5711983.32249   4432341.82347                  22986249.6234
        46.5004         29.5004
  20337287.2744    -523436.70749   -407264.17948                  20337285.7524
        51.0004         45.2504
  22639017.7134   -8453569.18949  -6574329.28247                  22639017.2714
        46.7504         32.0004
 04  7  6 20 58 39.9990000  0  5G 1G11G14G25G20
  22706680.4184   -6312614.17649  -4910741.61247                  22706681.8024
        45.7504         30.2504
  21465560.8264   -1301421.78449  -1011807.45847                  21465559.6114
        51.7504         38.2504
  22990263.5374    5733074.60749   4448776.56647                  22990263.1794
        46.0004         29.7504
  20338295.5414    -518136.92949   -403134.49148                  20338294.4554
        51.0004         46.0004
  22633069.4024   -8484828.87149  -6598687.46247                  22633068.5244
        46.7504         30.7504
 04  7  6 20 58 49.9990000  0  5G 1G11G14G25G20
  22702633.9794   -6333879.88949  -4927312.26447                  22702634.8944
        46.2504         30.0004
  21466093.2944   -1298623.72649  -1009627.14347                  21466092.1594
        51.2504         39.0004
  22994277.3504    5754164.88449   4465210.54347                  22994276.5444
        46.5004         29.7504
  20339313.7504    -512786.50049   -398965.31648                  20339312.6154
        51.0004         44.7504
  22627122.1554   -8516081.93049  -6623040.47747                  22627121.5744
        45.7504         31.7504
 04  7  6 20 58 59.9990000  0  5G 1G11G14G25G20
  22698589.7524   -6355128.85549  -4943869.88247                  22698591.5794
        45.0004         30.5004
  21466636.5874   -1295768.59649  -1007402.38347                  21466635.8324
        51.0004         38.5004
  22998290.2614    5775256.31049   4481645.39747                  22998289.7774
        46.7504         29.0004
  20340342.3364    -507383.25949   -394755.00748                  20340341.4174
        50.7504         44.5004
  22621176.4874   -8547326.19949  -6647386.65147                  22621175.3244
        47.2504         31.0004
 04  7  6 20 59  9.9990000  0  5G 1G11G14G25G20
  22694550.6164   -6376359.44449  -4960413.20047                  22694551.2184
        45.7504         29.2504
  21467191.0144   -1292854.83849  -1005131.93147                  21467189.6724
        51.7504         37.5004
  23002305.0504    5796350.49649   4498082.42847                  23002304.7894
        46.5004         27.5004
  20341380.6344    -501925.67249   -390502.34948                  20341379.4874
        51.2504         44.2504
  22615233.0634   -8578560.02249  -6671724.68547                  22615232.2024
        47.7504         31.0004
 04  7  6 20 59 19.9990000  0  5G 1G11G14G25G20
  22690513.1774   -6397572.59849  -4976942.89947                  22690514.5594
        46.2504         30.5004
  21467756.8414   -1289883.29149  -1002816.43347                  21467755.1594
        50.7504         38.5004
  23006319.3934    5817446.52149   4514520.86247                  23006318.9344
        46.2504         29.2504
  20342429.1874    -496414.72649   -386208.08648                  20342428.1404
        51.2504         44.5004
  22609290.9554   -8609784.26749  -6696055.26847                  22609289.7384
        47.2504         31.2504
 04  7  6 20 59 29.9990000  0  5G 1G11G14G25G20
  22686480.7264   -6418766.58849  -4993457.67347                  22686481.2164
        46.5004         30.0004
  21468333.3784   -1286852.27249  -1000454.60147                  21468332.0214
        50.7504         38.7504
  23010334.7334    5838546.06449   4530962.05447                  23010333.8754
        46.0004         28.7504
  20343488.4134    -490848.76049   -381870.96748                  20343487.5224
        51.2504         44.7504
  22603351.8214   -8640997.10549  -6720376.94947                  22603350.5964
        48.0004         32.2504
 04  7  6 20 59 39.9990000  0  5G 1G11G14G25G20
  22682450.4094   -6439945.46549  -5009960.68647                  22682450.7754
        45.7504         30.0004
  21468920.7724   -1283766.00549   -998049.73247                  21468919.5734
        51.0004         39.2504
  23014348.9914    5859645.13149   4547402.87447                  23014348.4614
        46.2504         29.2504
  20344556.9874    -485231.83749   -377494.14648                  20344555.7604
        51.7504         45.5004
  22597413.6964   -8672202.36649  -6744692.73547                  22597412.4274
        48.0004         32.7504
 04  7  6 20 59 49.9990000  0  5G 1G11G14G25G20
  22678423.3884   -6461108.69849  -5026451.50647                  22678423.6814
        46.5004         30.0004
  21469518.7004   -1280623.95249   -995601.37047                  21469517.5404
        51.0004         38.7504
  23018364.7594    5880744.19049   4563843.69847                  23018363.8844
        46.0004         29.2504
  20345635.8944    -479563.50449   -373077.26248                  20345635.0334
        52.0004         45.0004
  22591476.8024   -8703399.62749  -6769002.27547                  22591476.2214
        48.0004         32.2504
 04  7  6 20 59 59.9990000  0  5G 1G11G14G25G20
  22674399.0004   -6482255.56049  -5042929.56247                  22674399.8004
        46.5004         29.5004
  21470127.2884   -1277425.36649   -993108.97547                  21470125.8444
        50.5004         38.0004
  23022379.3454    5901844.00049   4580285.07647                  23022378.9314
        45.7504         28.0004
  20346724.4784    -473843.01749   -368619.74548                  20346723.4904
        51.5004         44.5004
  22585542.1564   -8734588.08649  -6793304.95547                  22585541.1624
        48.0004         32.0004
 04  7  6 21  0  9.9990000  0  5G 1G11G14G25G20
  22670377.5934   -6503387.45649  -5059395.96247                  22670378.0694
        46.5004         29.7504
  21470746.5014   -1274171.71749   -990573.66547                  21470745.3644
        50.5004         38.5004
  23026394.9704    5922943.16249   4596725.97847                  23026393.5414
        45.7504         28.7504
  20347822.7834    -468071.81449   -364122.69948                  20347821.8914
        53.0004         45.0004
  22579608.4404   -8765769.00049  -6817601.77447                  22579607.5204
        48.7504         32.2504
 04  7  6 21  0 19.9990000  0  5G 1G11G14G25G20
  22666360.6194   -6524502.22249  -5075849.02847                  22666360.1094
        47.0004         30.7504
  21471376.7924   -1270860.78149   -987993.72147                  21471375.7044
        51.0004         37.5004
  23030410.3434    5944043.91149   4613168.10347                  23030409.1794
        45.5004         28.0004
  20348931.0694    -462247.77649   -359584.49948                  20348929.9214
        52.2504         44.0004
  22573676.7514   -8796940.11349  -6841890.92547                  22573675.3384
        48.5004         31.2504
 04  7  6 21  0 29.9990000  0  5G 1G11G14G25G20
  22662344.9474   -6545601.27549  -5092289.81347                  22662345.2354
        46.5004         31.2504
  21472017.0514   -1267494.04149   -985370.28047                  21472015.7204
        51.2504         38.5004
  23034425.7594    5965144.68249   4629610.26747                  23034424.9344
        45.5004         29.0004
  20350049.1164    -456372.45249   -355006.31348                  20350047.9324
        53.2504         44.7504
  22567746.5644   -8828102.77549  -6866173.51247                  22567745.6254
        48.0004         32.0004
 04  7  6 21  0 39.9990000  0  5G 1G11G14G25G20
  22658332.9654   -6566682.75549  -5108716.90947                  22658333.7764
        47.0004         31.0004
  21472669.0034   -1264069.64149   -982701.92147                  21472667.8014
        50.5004         38.5004
  23038441.2664    5986247.37649   4646053.90447                  23038440.5974
        45.2504         27.7504
  20351176.9764    -450443.94149   -350386.68848                  20351176.0134
        53.0004         45.0004
  22561818.4224   -8859255.01249  -6890447.95547                  22561817.5864
        47.5004         31.7504
 04  7  6 21  0 49.9990000  0  5G 1G11G14G25G20
  22654324.3494   -6587747.12149  -5125130.69147                  22654325.2084
        46.7504         30.5004
  21473331.2344   -1260588.03649   -979988.98947                  21473330.2744
        50.2504         38.5004
  23042457.0174    6007351.54449   4662498.68347                  23042456.3074
        45.0004         28.2504
  20352315.4494    -444462.69149   -345725.98348                  20352314.0174
        52.7504         45.0004
  22555892.3224   -8890397.17949  -6914714.58247                  22555891.6454
        48.0004         33.0004
 04  7  6 21  0 59.9990000  0  5G 1G11G14G25G20
  22650320.0584   -6608793.22749  -5141530.25447                  22650320.0724
        47.0004         31.5004
  21474004.6614   -1257048.16649   -977230.66547                  21474003.9304
        50.5004         38.2504
  23046473.7854    6028458.36949   4678945.54647                  23046473.0764
        45.5004         28.5004
  20353463.7184    -438427.69549   -341023.38848                  20353462.5894
        52.5004         45.0004
  22549968.0534   -8921528.08349  -6938972.41047                  22549967.4224
        48.0004         33.0004
 04  7  6 21  1  9.9990000  0  5G 1G11G14G25G20
  22646317.9844   -6629824.23149  -5157918.02747                  22646317.9614
        48.0004         31.5004
  21474689.0474   -1253453.26149   -974429.43447                  21474687.7174
        50.2504         38.2504
  23050490.4044    6049564.66549   4695391.99347                  23050489.6594
        45.2504         28.5004
  20354621.8114    -432342.16049   -336281.40448                  20354620.4074
        52.5004         44.7504
  22544045.9784   -8952650.83749  -6963223.89247                  22544044.9184
        47.5004         32.0004
 04  7  6 21  1 19.9990000  0  5G 1G11G14G25G20
  22642319.2684   -6650837.04449  -5174291.61847                  22642320.3024
        47.2504         32.0004
  21475384.0224   -1249800.21349   -971582.90947                  21475383.2494
        50.7504         38.2504
  23054506.6924    6070673.47449   4711840.39847                  23054506.2644
        45.7504         28.2504
  20355790.2294    -426203.04849   -331497.68048                  20355788.9094
        53.0004         44.7504
  22538125.0224   -8983762.30749  -6987466.60147                  22538124.3924
        47.2504         31.7504
 04  7  6 21  1 29.9990000  0  5G 1G11G14G25G20
  22638323.3514   -6671833.79849  -5190652.71947                  22638324.4034
        46.5004         31.2504
  21476089.7204   -1246091.16849   -968692.76547                  21476088.9574
        51.0004         37.5004
  23058524.1564    6091782.72449   4728289.14147                  23058523.1314
        45.7504         28.0004
  20356968.0854    -420012.46349   -326673.86948                  20356966.8104
        53.7504         44.5004
  22532206.8214   -9014864.46249  -7011702.03447                  22532206.1614
        47.0004         31.5004
 04  7  6 21  1 39.9990000  0  5G 1G11G14G25G20
  22634331.1224   -6692813.63849  -5207000.61947                  22634331.5864
        47.0004         31.7504
  21476806.5614   -1242325.33849   -965758.33747                  21476805.2854
        51.0004         38.2504
  23062540.8264    6112893.24249   4744738.89847                  23062540.6874
        45.5004         28.0004
  20358156.0144    -413769.65549   -321809.33148                  20358154.7704
        53.0004         44.7504
  22526290.0264   -9045956.41349  -7035929.49747                  22526289.3254
        47.2504         32.0004
 04  7  6 21  1 49.9990000  0  5G 1G11G14G25G20
  22630342.7114   -6713775.25249  -5223334.32747                  22630343.0104
        47.0004         32.0004
  21477534.4334   -1238501.44549   -962778.69047                  21477533.5424
        51.2504         37.7504
  23066558.8964    6134006.39849   4761190.70347                  23066558.5674
        45.0004         27.7504
  20359354.2284    -407473.28449   -316903.06448                  20359352.9844
        53.0004         45.0004
  22520376.1114   -9077036.72249  -7060147.89847                  22520375.4484
        47.5004         32.0004
 04  7  6 21  1 59.9990000  0  5G 1G11G14G25G20
  22626356.7794   -6734720.77249  -5239655.49547                  22626357.6944
        47.2504         32.7504
  21478272.5424   -1234621.57149   -959755.41147                  21478271.4144
        50.5004         38.7504
  23070576.5864    6155119.94949   4777642.82747                  23070575.9164
        45.2504         28.2504
  20360562.0244    -401125.54249   -311956.76048                  20360560.6364
        52.5004         45.5004
  22514463.6214   -9108107.49849  -7084358.89047                  22514462.6684
        47.7504         32.2504
 04  7  6 21  2  9.9990000  0  5G 1G11G14G25G20
  22622374.1694   -6755648.41449  -5255962.72947                  22622374.2814
        46.7504         33.0004
  21479021.8194   -1230683.99749   -956687.17647                  21479020.5704
        50.0004         38.5004
  23074595.2354    6176235.73049   4794096.63247                  23074594.3154
        45.0004         29.5004
  20361780.1954    -394724.67549   -306969.07448                  20361779.2904
        52.7504         45.0004
  22508552.5674   -9139166.87649  -7108560.99747                  22508551.7414
        47.0004         32.2504
 04  7  6 21  2 19.9990000  0  5G 1G11G14G25G20
  22618394.7884   -6776559.36649  -5272256.96147                  22618395.0704
        47.0004         32.2504
  21479781.9284   -1226689.87049   -953574.86947                  21479781.3694
        50.2504         38.5004
  23078613.2504    6197352.54749   4810551.27247                  23078613.2444
        45.0004         28.5004
  20363008.0454    -388271.83649   -301940.88748                  20363006.4954
        52.0004         45.0004
  22502644.8324   -9170215.92649  -7132755.02947                  22502643.8084
        47.0004         32.0004
 04  7  6 21  2 29.9990000  0  5G 1G11G14G25G20
  22614419.3284   -6797452.27749  -5288537.14947                  22614419.9634
        47.0004         32.5004
  21480552.6514   -1222637.85449   -950417.46647                  21480551.6034
        51.5004         38.0004
  23082632.0694    6218471.82349   4827007.85347                  23082631.9084
        45.0004         29.0004
  20364246.3254    -381765.77049   -296871.22648                  20364244.8494
        52.5004         45.0004
  22496738.3474   -9201253.19649  -7156939.91047                  22496737.0034
        47.2504         32.2504
 04  7  6 21  2 39.9990000  0  5G 1G11G14G25G20
  22610447.4524   -6818326.18549  -5304802.51147                  22610447.2544
        47.5004         31.7504
  21481334.7584   -1218527.11649   -947214.30547                  21481334.3774
        50.2504         37.2504
  23086651.3704    6239594.52849   4843467.06947                  23086651.2754
        45.0004         29.2504
  20365494.5634    -375205.61549   -291759.42248                  20365493.2564
        52.5004         44.0004
  22490834.5764   -9232277.61949  -7181114.78247                  22490833.0934
        47.2504         32.5004
 04  7  6 21  2 49.9990000  0  5G 1G11G14G25G20
  22606477.0704   -6839187.22749  -5321057.83847                  22606478.0384
        46.5004         32.2504
  21482127.3264   -1214363.77749   -943970.14047                  21482126.5414
        50.7504         38.5004
  23090670.4234    6260714.42949   4859924.14147                  23090669.9224
        45.7504         28.7504
  20366751.9204    -368597.57249   -286610.27948                  20366750.8964
        52.0004         45.2504
  22484931.7894   -9263295.29149  -7205284.38047                  22484930.9314
        47.0004         33.0004
 04  7  6 21  2 59.9990000  0  5G 1G11G14G25G20
  22602511.0724   -6860029.16149  -5337298.31047                  22602511.2404
        46.2504         31.0004
  21482930.7494   -1210141.62449   -940680.15747                  21482929.7324
        50.2504         37.7504
  23094690.2544    6281837.81649   4876383.89247                  23094689.9114
        45.0004         28.2504
  20368019.6414    -361935.38649   -281418.97148                  20368018.5384
        53.0004         45.2504
  22479032.2414   -9294299.82049  -7229443.74147                  22479030.7344
        47.5004         32.5004
 04  7  6 21  3  9.9990000  0  5G 1G11G14G25G20
  22598548.3364   -6880854.66449  -5353525.94447                  22598548.5244
        46.0004         32.7504
  21483745.1524   -1205863.41349   -937346.49247                  21483743.9064
        51.2504         38.5004
  23098710.5614    6302962.02449   4892844.31147                  23098709.4484
        45.0004         28.7504
  20369297.1074    -355221.71449   -276187.54148                  20369296.1724
        52.7504         45.0004
  22473134.0664   -9325293.82649  -7253594.89747                  22473133.5624
        46.5004         33.2504
 04  7  6 21  3 19.9990000  0  5G 1G11G14G25G20
  22594588.6874   -6901662.46149  -5369739.80047                  22594589.3904
        46.5004         33.0004
  21484570.3034   -1201527.85349   -933968.13447                  21484568.8324
        51.5004         38.2504
  23102729.7794    6324088.24749   4909306.28247                  23102729.7514
        45.2504         28.7504
  20370584.7834    -348455.47149   -270915.14648                  20370583.7894
        52.5004         45.0004
  22467238.3144   -9356276.06049  -7277736.88547                  22467237.3234
        47.0004         33.5004
 04  7  6 21  3 29.9990000  0  5G 1G11G14G25G20
  22590631.8784   -6922451.62449  -5385939.11547                  22590633.1534
        46.2504         32.7504
  21485406.2494   -1197134.10449   -930544.44247                  21485405.0234
        51.2504         37.7504
  23106751.1214    6345217.47149   4925770.61747                  23106750.5054
        45.0004         29.0004
  20371882.8124    -341635.70749   -265601.03748                  20371881.5764
        52.5004         45.0004
  22461344.6444   -9387245.46249  -7301868.86947                  22461344.1744
        46.5004         32.5004
 04  7  6 21  3 39.9990000  0  5G 1G11G14G25G20
  22586679.8384   -6943223.27749  -5402124.78647                  22586680.4424
        46.7504         32.0004
  21486252.8874   -1192683.25049   -927076.24747                  21486252.1804
        50.7504         37.2504
  23110772.5304    6366348.61549   4942236.43247                  23110771.9504
        45.7504         29.0004
  20373190.3184    -334763.53049   -260246.08548                  20373189.4304
        53.0004         44.5004
  22455453.8304   -9418203.03149  -7325991.64047                  22455453.1574
        46.7504         32.7504
 04  7  6 21  3 49.9990000  0  5G 1G11G14G25G20
  22582729.8704   -6963977.78049  -5418297.13347                  22582730.8254
        46.5004         31.7504
  21487110.9434   -1188175.59749   -923563.80447                  21487109.9954
        51.2504         37.5004
  23114793.4064    6387481.31249   4958703.42047                  23114793.1064
        45.2504         28.0004
  20374507.8404    -327839.40149   -254850.66548                  20374506.7484
        52.7504         44.0004
  22449565.3524   -9449149.06949  -7350105.42947                  22449564.0444
        46.7504         31.7504
 04  7  6 21  3 59.9990000  0  5G 1G11G14G25G20
  22578783.7014   -6984715.07349  -5434456.02847                  22578784.7964
        46.5004         33.0004
  21487979.4774   -1183611.24549   -920007.17047                  21487978.3704
        51.0004         38.5004
  23118815.3904    6408615.62149   4975171.70547                  23118814.9404
        45.5004         29.2504
  20375835.5324    -320863.23649   -249414.69348                  20375834.5754
        53.5004         44.7504
  22443678.2134   -9480083.42449  -7374210.10247                  22443677.4784
        46.7504         32.5004
 04  7  6 21  4  9.9990000  0  5G 1G11G14G25G20
  22574841.2424   -7005433.80149  -5450600.47247                  22574841.9204
        46.0004         32.7504
  21488859.0854   -1178988.84949   -916405.30847                  21488858.1654
        51.5004         38.0004
  23122837.7624    6429752.87449   4991642.27047                  23122837.1214
        45.7504         29.0004
  20377173.3374    -313833.80949   -243937.21348                  20377172.2304
        53.0004         44.7504
  22437793.9204   -9511004.61749  -7398304.52347                  22437793.1364
        47.0004         32.7504
 04  7  6 21  4 19.9990000  0  5G 1G11G14G25G20
  22570901.7914   -7026135.64249  -5466731.75647                  22570901.8234
        46.2504         33.0004
  21489749.4714   -1174310.05449   -912759.50647                  21489748.3644
        51.0004         38.2504
  23126860.3314    6450891.31949   5008113.78747                  23126859.6004
        45.5004         29.7504
  20378520.7454    -306752.78649   -238419.54048                  20378519.3224
        52.7504         45.2504
  22431912.2134   -9541914.28649  -7422389.97247                  22431911.3474
        46.7504         32.7504
 04  7  6 21  4 29.9990000  0  5G 1G11G14G25G20
  22566965.4214   -7046822.32249  -5482851.22647                  22566965.8654
        46.2504         33.2504
  21490650.2274   -1169576.68849   -909071.15547                  21490649.4124
        50.7504         38.2504
  23130882.1564    6472029.35249   5024584.96447                  23130882.0264
        45.5004         29.2504
  20379877.6154    -299621.98949   -232863.07048                  20379876.4034
        52.7504         45.0004
  22426032.4834   -9572814.09849  -7446467.73447                  22426030.8364
        46.5004         33.5004
 04  7  6 21  4 39.9990000  0  5G 1G11G14G25G20
  22563032.2094   -7067490.21949  -5498956.06247                  22563032.3644
        45.2504         32.7504
  21491561.9284   -1164785.17249   -905337.52947                  21491560.7564
        49.5004         38.5004
  23134905.7394    6493170.58949   5041058.63447                  23134905.3574
        45.5004         29.0004
  20381244.5884    -292437.83649   -227265.02648                  20381243.3914
        53.0004         44.5004
  22420154.7864   -9603700.33949  -7470534.92047                  22420154.2504
        46.7504         32.7504
 04  7  6 21  4 49.9990000  0  5G 1G11G14G25G20
  22559102.5324   -7088142.45249  -5515048.68447                  22559102.7414
        46.5004         32.2504
  21492484.3254   -1159938.62649   -901560.99947                  21492483.5604
        51.0004         37.7504
  23138929.0214    6514311.91349   5057532.35947                  23138928.1174
        45.5004         28.5004
  20382621.3374    -285203.52949   -221627.89948                  20382620.1094
        53.2504         44.7504
  22414279.5914   -9634575.95949  -7494593.82147                  22414278.6764
        46.5004         32.2504
 04  7  6 21  4 59.9990000  0  5G 1G11G14G25G20
  22555175.5134   -7108778.43049  -5531128.66647                  22555175.9394
        47.2504         31.5004
  21493417.0004   -1155036.46249   -897741.13247                  21493416.1314
        50.2504         37.2504
  23142952.2214    6535453.85449   5074006.57747                  23142951.6994
        45.5004         27.7504
  20384007.8364    -277918.48349   -215951.24348                  20384006.9324
        52.7504         44.0004
  22408405.7144   -9665440.36449  -7518643.99847                  22408404.8534
        47.0004         31.7504
 04  7  6 21  5  9.9990000  0  5G 1G11G14G25G20
  22551251.6994   -7129398.79449  -5547196.45247                  22551251.7094
        46.5004         33.0004
  21494360.5084   -1150079.41149   -893878.50547                  21494358.9934
        50.5004         38.2504
  23146975.2574    6556595.76049   5090480.79247                  23146974.7864
        45.5004         29.2504
  20385403.4694    -270583.38449   -210235.57748                  20385402.1884
        52.5004         45.2504
  22402534.8214   -9696294.12649  -7542685.88547                  22402534.0274
        47.2504         32.5004
 04  7  6 21  5 19.9990000  0  5G 1G11G14G25G20
  22547331.0584   -7150000.34349  -5563249.59147                  22547331.8754
        46.7504         33.5004
  21495314.9744   -1145064.24549   -889970.59147                  21495313.5404
        50.5004         38.5004
  23150999.6154    6577740.84549   5106957.44147                  23150998.5914
        45.5004         29.2504
  20386809.5294    -263194.98849   -204478.39148                  20386808.2204
        52.2504         44.7504
  22396666.0244   -9727133.90549  -7566716.88047                  22396664.9484
        47.2504         31.7504
 04  7  6 21  5 29.9990000  0  5G 1G11G14G25G20
  22543414.0164   -7170585.53549  -5579289.96447                  22543415.0024
        45.5004         33.5004
  21496279.8454   -1139993.48049   -886019.34447                  21496278.8514
        50.5004         38.7504
  23155022.2904    6598886.75549   5123434.78047                  23155022.6194
        45.5004         29.2504
  20388225.0544    -255755.88649   -198681.68148                  20388224.2254
        53.0004         45.0004
  22390799.5494   -9757962.13149  -7590738.84347                  22390798.4604
        46.0004         32.5004
 04  7  6 21  5 39.9990000  0  5G 1G11G14G25G20
  22539500.2854   -7191152.52149  -5595316.17447                  22539500.5644
        46.7504         33.0004
  21497255.9844   -1134865.23449   -882023.31447                  21497254.7804
        50.7504         38.5004
  23159046.9414    6620035.30149   5139914.13647                  23159046.9734
        45.7504         30.0004
  20389650.4074    -248264.26349   -192844.06048                  20389649.6344
        52.0004         45.0004
  22384935.9294   -9788776.78149  -7614750.26847                  22384935.0044
        46.5004         32.5004
 04  7  6 21  5 49.9990000  0  5G 1G11G14G25G20
  22535590.2354   -7211700.77349  -5611327.78347                  22535590.6594
        45.7504         33.5004
  21498242.7714   -1129679.00149   -877982.09547                  21498241.2944
        50.2504         38.0004
  23163072.0104    6641187.02349   5156395.98447                  23163071.8704
        45.2504         29.2504
  20391086.1684    -240719.58149   -186965.08248                  20391085.1814
        52.2504         45.0004
  22379074.7714   -9819577.22549  -7638750.59847                  22379073.7204
        47.0004         32.0004
 04  7  6 21  5 59.9990000  0  5G 1G11G14G25G20
  22531682.7134   -7232233.09449  -5627326.98647                  22531683.4834
        46.0004         32.7504
  21499239.7254   -1124437.70549   -873897.97547                  21499238.9634
        49.7504         38.2504
  23167097.4654    6662339.05949   5172878.07847                  23167096.7704
        45.2504         29.0004
  20392531.6774    -233124.73549   -181047.01648                  20392530.5614
        52.7504         44.7504
  22373215.4964   -9850366.19049  -7662741.99147                  22373214.1744
        46.5004         32.7504
 04  7  6 21  6  9.9990000  0  5G 1G11G14G25G20
  22527778.6724   -7252749.04349  -5643313.40247                  22527779.6394
        45.7504         33.7504
  21500248.2044   -1119140.94149   -869770.63747                  21500247.1414
        50.7504         37.5004
  23171122.5874    6683491.85549   5189360.77947                  23171122.3374
        45.2504         28.7504
  20393986.3194    -225479.33049   -175089.55348                  20393985.5254
        52.7504         44.7504
  22367359.3834   -9881143.22749  -7686724.06747                  22367358.1254
        46.0004         32.0004
 04  7  6 21  6 19.9990000  0  5G 1G11G14G25G20
  22523877.8454   -7273247.29549  -5659286.06247                  22523878.7474
        45.7504         32.7504
  21501266.6174   -1113787.31749   -865598.98847                  21501265.5794
        50.2504         38.0004
  23175148.1104    6704646.84049   5205845.15147                  23175147.3014
        45.5004         28.5004
  20395451.0854    -217782.07249   -169091.69348                  20395449.7934
        53.2504         45.0004
  22361505.0714   -9911906.87449  -7710695.73947                  22361504.3354
        46.7504         33.5004
 04  7  6 21  6 29.9990000  0  5G 1G11G14G25G20
  22519980.4964   -7293729.37149  -5675246.08247                  22519981.6584
        46.0004         32.5004
  21502296.1734   -1108378.48049   -861384.30547                  21502294.8184
        50.0004         38.0004
  23179174.2234    6725802.37249   5222329.98247                  23179173.6044
        45.7504         28.5004
  20396925.6674    -210034.59949   -163054.71048                  20396924.4034
        52.5004         45.0004
  22355653.0634   -9942658.60849  -7734658.12647                  22355651.6994
        47.2504         33.2504
 04  7  6 21  6 39.9990000  0  5G 1G11G14G25G20
  22516086.3664   -7314191.18749  -5691190.33047                  22516087.6214
        45.7504         33.5004
  21503336.3994   -1102910.34549   -857123.42247                  21503335.2754
        48.7504         38.0004
  23183200.4024    6746962.60449   5238818.45647                  23183200.4174
        45.0004         29.2504
  20398410.0184    -202232.76949   -156975.35248                  20398409.4354
        52.5004         45.2504
  22349804.1794   -9973394.22949  -7758607.93147                  22349803.0254
        46.5004         33.5004
 04  7  6 21  6 49.9990000  0  5G 1G11G14G25G20
  22512196.2494   -7334634.97549  -5707120.54847                  22512197.0734
        45.0004         33.0004
  21504387.8554   -1097385.25149   -852818.16247                  21504386.9104
        49.5004         38.5004
  23187227.9904    6768125.27649   5255308.84547                  23187227.5654
        45.7504         29.2504
  20399904.4394    -194378.94649   -150855.49748                  20399903.2244
        52.2504         45.2504
  22343958.0974  -10004115.94049  -7782546.92747                  22343957.1024
        46.5004         33.7504
 04  7  6 21  6 59.9990000  0  5G 1G11G14G25G20
  22508309.2314   -7355061.97049  -5723037.66147                  22508310.0274
        46.2504         34.0004
  21505449.7034   -1091804.36549   -848469.43547                  21505448.6534
        49.0004         38.2504
  23191255.6244    6789289.18949   5271800.19547                  23191254.8684
        45.0004         27.0004
  20401408.8414    -186474.35249   -144696.07148                  20401407.4844
        52.5004         44.7504
  22338114.4454  -10034824.81349  -7806475.90847                  22338113.2274
        47.5004         33.0004
 04  7  6 21  7  9.9990000  0  5G 1G11G14G25G20
  22504424.8614   -7375471.92749  -5738941.51147                  22504426.1794
        45.2504         33.7504
  21506522.4754   -1086167.54449   -844077.11347                  21506521.1304
        48.5004         38.2504
  23195283.1964    6810454.58149   5288292.67747                  23195282.2284
        45.5004         27.5004
  20402922.6564    -178518.85549   -138496.98648                  20402921.3664
        52.0004         44.7504
  22332273.5604  -10065520.57649  -7830394.68647                  22332271.5894
        46.5004         32.7504
 04  7  6 21  7 19.9990000  0  5G 1G11G14G25G20
  22500544.2014   -7395865.35849  -5754832.45947                  22500545.0474
        45.7504         33.7504
  21507605.5804   -1080475.30049   -839641.60047                  21507604.8614
        50.0004         38.2504
  23199310.8324    6831620.97249   5304785.94647                  23199310.1294
        46.0004         27.5004
  20404446.1764    -170512.94149   -132258.60248                  20404445.0734
        52.0004         44.7504
  22326434.0824  -10096203.55349  -7854303.48747                  22326433.2354
        47.2504         33.0004
 04  7  6 21  7 29.9990000  0  5G 1G11G14G25G20
  22496666.3174   -7416242.28149  -5770710.57447                  22496667.2854
        45.5004         34.0004
  21508699.6324   -1074727.72049   -835162.98047                  21508698.4434
        47.2504         38.0004
  23203339.3774    6852788.27749   5321279.96347                  23203338.1954
        45.5004         28.0004
  20405979.3404    -162456.63049   -125980.96348                  20405978.0424
        52.2504         44.7504
  22320598.2144  -10126873.76649  -7878202.33747                  22320597.1454
        47.2504         32.7504
 04  7  6 21  7 39.9990000  0  5G 1G11G14G25G20
  22492792.2054   -7436605.66649  -5786578.13547                  22492792.5244
        45.2504         33.0004
  21509803.0524   -1068927.82149   -830643.59447                  21509802.3424
        48.5004         38.0004
  23207366.6264    6873953.51949   5337772.32047                  23207366.1774
        45.5004         28.5004
  20407521.1234    -154353.07849   -119666.50648                  20407519.6904
        53.0004         44.5004
  22314763.6014  -10157534.15749  -7902093.53747                  22314762.3074
        46.0004         33.2504
 04  7  6 21  7 49.9990000  0  5G 1G11G14G25G20
  22488919.9584   -7456950.71249  -5802431.38347                  22488921.0094
        44.5004         33.2504
  21510917.5364   -1063070.76749   -826079.65147                  21510916.4804
        48.2504         38.5004
  23211394.7004    6895121.54749   5354266.88447                  23211393.7594
        45.7504         29.0004
  20409073.4184    -146197.42949   -113311.45248                  20409071.8704
        52.5004         44.5004
  22308931.9514  -10188179.70749  -7925973.18047                  22308930.3754
        46.5004         33.2504
 04  7  6 21  7 59.9990000  0  5G 1G11G14G25G20
  22485051.9084   -7477277.46549  -5818270.38947                  22485052.9154
        44.7504         33.7504
  21512042.8264   -1057156.62349   -821471.22647                  21512041.8654
        49.2504         38.2504
  23215423.4034    6916292.30049   5370763.59147                  23215422.9314
        45.7504         28.5004
  20410635.2244    -137989.79849   -106915.89648                  20410634.1244
        53.0004         44.5004
  22303103.1734  -10218810.55349  -7949841.35047                  22303102.0364
        46.5004         33.7504
 04  7  6 21  8  9.9990000  0  5G 1G11G14G25G20
  22481187.2854   -7497588.27249  -5834096.97847                  22481187.8324
        45.5004         33.0004
  21513178.8014   -1051187.84849   -816820.24147                  21513177.6834
        49.5004         38.5004
  23219451.4564    6937463.52649   5387260.63247                  23219451.4694
        45.5004         27.0004
  20412206.3554    -129732.53249   -100481.66548                  20412205.3754
        52.7504         44.5004
  22297276.9354  -10249428.78349  -7973699.72047                  22297275.8114
        47.5004         33.2504
 04  7  6 21  8 19.9990000  0  6G 1G11G14G16G25G20
  22477324.6524   -7517884.68549  -5849912.35447                  22477325.4734
        44.5004         33.2504
  21514324.5834   -1045166.04149   -812127.93747                  21514323.5034
        48.5004         37.5004
  23223480.5524    6958633.52749   5403756.70547                  23223479.9834
        45.2504         28.0004
  24046388.2994     -18585.14459
        38.7504
  20413786.8544    -121427.35249    -94010.09148                  20413785.6344
        52.0004         44.5004
  22291452.2064  -10280035.91349  -7997549.41647                  22291451.1494
        46.7504         33.5004
 04  7  6 21  8 29.9990000  0  6G 1G11G14G16G25G20
  22473464.9114   -7538165.67049  -5865715.68547                  22473466.2634
        43.7504         33.2504
  21515480.9424   -1039090.14349   -807393.47747                  21515480.6274
        49.0004         37.2504
  23227509.2154    6979803.48949   5420252.77947                  23227508.9124
        45.2504         28.0004
  24040249.9744     -50839.88049    -25447.22556                  24040252.9324
        38.7504         22.5004
  20415376.4124    -113073.21249    -87500.36648                  20415375.2624
        52.7504         44.0004
  22285630.1374  -10310630.83449  -8021389.58547                  22285629.3694
        46.0004         32.7504
 04  7  6 21  8 39.9990000  0  6G 1G11G14G16G25G20
  22469608.5254   -7558430.52449  -5881506.46647                  22469610.4314
        44.0004         33.2504
  21516647.5464   -1032959.50649   -802616.36347                  21516646.7184
        49.5004         38.0004
  23231538.0574    7000974.05849   5436749.29947                  23231537.6064
        45.0004         27.7504
  24034110.9364     -83099.71249    -50584.66746                  24034113.6784
        39.0004         22.5004
  20416975.7984    -104669.44549    -80951.97448                  20416974.9884
        53.0004         44.2504
  22279810.6524  -10341212.78549  -8045219.66347                  22279809.7054
        46.0004         34.0004
 04  7  6 21  8 49.9990000  0  6G 1G11G14G16G25G20
  22465756.1614   -7578677.03649  -5897282.95247                  22465757.3244
        45.0004         33.5004
  21517825.0774   -1026771.99849   -797794.93247                  21517824.1174
        49.7504         38.0004
  23235567.0274    7022147.37849   5453248.00447                  23235566.3914
        45.5004         26.7504
  24027971.7614    -115362.22249    -75724.22146                  24027973.8914
        39.2504         22.2504
  20418584.7714     -96213.94149    -74363.27348                  20418583.8054
        53.0004         44.5004
  22273993.9434  -10371779.41349  -8069037.80847                  22273992.7084
        48.0004         34.0004
 04  7  6 21  8 59.9990000  0  6G 1G11G14G16G25G20
  22461906.4524   -7598907.14649  -5913046.65447                  22461907.4674
        46.0004         33.7504
  21519012.9134   -1020529.61049   -792930.74247                  21519011.7264
        51.0004         37.7504
  23239597.1304    7043321.60149   5469747.35047                  23239596.2284
        45.2504         28.0004
  24021831.7214    -147629.21449   -100867.20446                  24021834.3314
        39.2504         23.0004
  20420203.1784     -87708.67549    -67735.79848                  20420201.7404
        52.7504         44.7504
  22268180.0664  -10402332.58449  -8092845.47847                  22268178.9104
        47.0004         34.2504
 04  7  6 21  9  9.9990000  0  6G 1G11G14G16G25G20
  22458059.5894   -7619119.96349  -5928796.89647                  22458061.0714
        44.7504         33.0004
  21520211.2354   -1014231.44549   -788023.08247                  21520210.5704
        50.5004         38.0004
  23243626.6264    7064497.64449   5486248.15647                  23243625.6724
        45.7504         26.5004
  24015690.3054    -179899.68349   -126012.96846                  24015692.9444
        39.0004         22.2504
  20421831.1314     -79152.65049    -61068.75548                  20421830.2094
        52.5004         44.5004
  22262368.6724  -10432871.27849  -8116641.84047                  22262367.4674
        46.5004         34.0004
 04  7  6 21  9 19.9990000  0  6G 1G11G14G16G25G20
  22454217.8364   -7639311.58249  -5944530.61147                  22454218.7204
        44.7504         32.7504
  21521421.6434   -1007873.57549   -783068.89947                  21521420.4364
        50.5004         38.0004
  23247656.9064    7085679.37449   5502753.41647                  23247656.0464
        45.2504         26.0004
  24009549.9164    -212169.57649   -151158.25446                  24009551.6314
        40.0004         21.7504
  20423469.8994     -70542.14149    -54359.26448                  20423469.0594
        52.5004         44.5004
  22256560.8094  -10463391.52049  -8140423.83747                  22256559.7504
        46.0004         32.7504
 04  7  6 21  9 29.9990000  0  6G 1G11G14G16G25G20
  22450378.3434   -7659487.97049  -5960252.44847                  22450378.9354
        46.0004         32.0004
  21522641.2574   -1001462.09249   -778072.95247                  21522640.7564
        50.2504         38.0004
  23251687.7484    7106860.86049   5519258.44247                  23251686.3424
        45.7504         26.2504
  24003408.1294    -244444.82649   -176307.71846                  24003410.1534
        40.5004         22.5004
  20425117.7574     -61883.15649    -47612.01948                  20425116.7454
        52.5004         44.5004
  22250755.2204  -10493899.27049  -8164196.10547                  22250754.1934
        47.2504         33.0004
 04  7  6 21  9 39.9990000  0  6G 1G11G14G16G25G20
  22446542.6864   -7679645.74949  -5975959.80247                  22446542.9824
        45.5004         32.7504
  21523872.4364    -994993.56749   -773032.55547                  21523871.2764
        49.5004         37.0004
  23255718.8504    7128045.43449   5535765.89347                  23255718.4074
        45.2504         27.0004
  23997265.6974    -276721.87049   -201458.51846                  23997267.9734
        40.2504         21.7504
  20426775.2704     -53172.44649    -40824.45248                  20426774.0904
        52.0004         44.5004
  22244952.7704  -10524391.01549  -8187955.90847                  22244951.3454
        45.5004         33.0004
 04  7  6 21  9 49.9990000  0  6G 1G11G14G16G25G20
  22442710.1764   -7699786.21549  -5991653.64447                  22442711.0844
        46.5004         33.0004
  21525113.7724    -988469.34549   -767948.74247                  21525113.0994
        50.2504         37.5004
  23259750.3314    7149231.85049   5552274.78547                  23259749.7524
        45.0004         26.2504
  23991123.0474    -309001.92749   -226611.76246                  23991125.3394
        39.7504         21.0004
  20428442.4814     -44411.28849    -33997.57548                  20428441.4534
        52.7504         44.5004
  22239153.2944  -10554867.91949  -8211704.11947                  22239152.0244
        46.0004         33.7504
 04  7  6 21  9 59.9990000  0  6G 1G11G14G16G25G20
  22438880.2624   -7719911.65649  -6007335.78547                  22438881.0824
        46.0004         34.0004
  21526365.3474    -981891.82749   -762823.41447                  21526364.7934
        49.5004         37.7504
  23263781.8414    7170417.75049   5568783.26647                  23263780.9224
        45.0004         26.7504
  23984979.2574    -341287.17649   -251769.04946                  23984981.6224
        39.5004         22.0004
  20430118.6504     -35601.97149    -27133.16648                  20430117.9104
        52.2504         44.2504
  22233355.9754  -10585332.22949  -8235442.54247                  22233354.8774
        45.5004         33.5004
 04  7  6 21 10  9.9990000  0  6G 1G11G14G16G25G20
  22435053.7924   -7740019.49749  -6023004.21547                  22435054.4954
        45.0004         34.2504
  21527627.9964    -975258.43849   -757654.54647                  21527627.0524
        48.7504         37.5004
  23267813.7144    7191605.83449   5585293.43447                  23267813.3534
        45.0004         27.0004
  23978835.3544    -373574.87749   -276928.12446                  23978836.8014
        41.2504         21.7504
  20431804.7934     -26742.05049    -20229.33848                  20431803.7574
        52.5004         44.5004
  22227562.0374  -10615781.24049  -8259169.03647                  22227560.5444
        45.7504         33.7504
 04  7  6 21 10 19.9990000  0  6G 1G11G14G16G25G20
  22431230.4884   -7760111.27849  -6038660.13247                  22431230.8404
        45.7504         33.5004
  21528900.5144    -968570.70549   -752443.32147                  21528899.8504
        48.5004         37.7504
  23271846.1654    7212794.47749   5601804.06547                  23271845.4454
        45.5004         28.2504
  23972689.0254    -405866.40549   -302090.24246                  23972691.6614
        41.5004         21.2504
  20433499.9014     -17833.03949    -13287.24048                  20433499.2334
        52.0004         44.5004
  22221770.3364  -10646216.46049  -8282884.77147                  22221768.7904
        45.5004         33.7504
 04  7  6 21 10 29.9990000  0  6G 1G11G14G16G25G20
  22427410.8904   -7780186.02049  -6054302.77947                  22427411.0984
        44.5004         34.0004
  21530183.4174    -961827.73949   -747189.08147                  21530182.8824
        49.0004         37.2504
  23275878.1364    7233984.74449   5618315.93347                  23275878.0614
        45.0004         27.0004
  23966544.2294    -438160.75949   -327254.60046                  23966546.4804
        40.5004         21.0004
  20435205.0244      -8874.08449     -6306.24348                  20435204.3024
        52.5004         44.2504
  22215981.6224  -10676636.76449  -8306588.90547                  22215980.2434
        44.0004         33.5004
 04  7  6 21 10 39.9990000  0  6G 1G11G14G16G25G20
  22423593.4134   -7800242.64049  -6069931.28347                  22423593.6814
        45.5004         32.7504
  21531477.7844    -955028.47149   -741890.94847                  21531476.4154
        48.2504         37.5004
  23279910.9814    7255177.57849   5634829.83147                  23279910.4104
        44.2504         26.5004
  23960398.9114    -470456.68749   -352420.14346                  23960400.8404
        40.7504         21.7504
  20436919.4884        135.82549       714.46848                  20436918.5274
        52.5004         44.0004
  22210196.1284  -10707040.94649  -8330280.45547                  22210194.8784
        45.0004         33.7504
 04  7  6 21 10 49.9990000  0  6G 1G11G14G16G25G20
  22419779.6644   -7820285.73549  -6085549.27247                  22419779.8174
        45.2504         33.2504
  21532781.1904    -948177.54449   -736552.56847                  21532780.1924
        48.0004         36.7504
  23283944.1734    7276368.49049   5651342.18647                  23283943.4584
        45.2504         26.5004
  23954251.1144    -502758.69849   -377590.54446                  23954254.0064
        40.5004         22.0004
  20438643.2104       9192.07549      7771.28948                  20438641.9944
        52.5004         44.0004
  22204412.5004  -10737433.59549  -8353963.02547                  22204410.8944
        44.7504         33.2504
 04  7  6 21 10 59.9990000  0  6G 1G11G14G16G25G20
  22415968.6394   -7840311.70949  -6101153.91347                  22415969.4514
        45.2504         34.0004
  21534094.7084    -941271.42749   -731171.19647                  21534094.4214
        48.7504         37.2504
  23287977.1864    7297561.08849   5667855.91847                  23287976.3064
        44.7504         27.0004
  23948103.9654    -535063.10049   -402762.65446                  23948105.9754
        40.0004         21.2504
  20440375.8844      18298.25549     14867.00948                  20440374.8504
        52.5004         44.5004
  22198631.7714  -10767811.10149  -8377633.81447                  22198630.7224
        45.0004         33.5004
 04  7  6 21 11  9.9990000  0  6G 1G11G14G16G25G20
  22412161.2314   -7860320.61549  -6116745.24947                  22412161.4594
        45.5004         34.5004
  21535419.9804    -934310.20349   -725746.85547                  21535419.4984
        48.0004         36.7504
  23292009.7174    7318755.29149   5684370.83847                  23292009.2374
        45.0004         27.0004
  23941956.3534    -567369.81249   -427936.64546                  23941958.4144
        40.0004         21.7504
  20442117.9294      27454.32849     22001.62148                  20442117.1484
        52.2504         44.0004
  22192853.7644  -10798173.31649  -8401292.66147                  22192852.9504
        45.0004         33.7504
 04  7  6 21 11 19.9990000  0  6G 1G11G14G16G25G20
  22408356.9034   -7880312.59349  -6132323.40947                  22408357.2184
        45.0004         33.7504
  21536755.2634    -927294.06749   -720279.75647                  21536754.3454
        47.7504         37.2504
  23296043.2254    7339950.97849   5700886.92847                  23296043.1224
        44.5004         26.5004
  23935808.0364    -599678.82849   -453112.41446                  23935809.6884
        39.5004         22.2504
  20443870.1354      36660.04249     29174.89648                  20443868.7254
        51.5004         44.5004
  22187078.8144  -10828520.31549  -8424939.66847                  22187077.5954
        44.5004         34.2504
 04  7  6 21 11 29.9990000  0  6G 1G11G14G16G25G20
  22404556.5284   -7900284.31349  -6147885.76347                  22404556.7074
        45.0004         34.0004
  21538101.2094    -920219.73649   -714767.28947                  21538100.2644
        48.5004         36.7504
  23300077.4474    7361151.46549   5717406.78547                  23300077.0914
        45.2504         27.0004
  23929660.5274    -631986.72349   -478287.29246                  23929662.0144
        39.0004         22.0004
  20445631.7234      45918.67949     36389.42048                  20445630.5814
        52.0004         44.5004
  22181307.2364  -10858848.65149  -8448572.11847                  22181306.3764
        43.7504         33.7504
 04  7  6 21 11 39.9990000  0  6G 1G11G14G16G25G20
  22400759.0564   -7920239.44349  -6163435.18647                  22400760.0904
        45.0004         34.0004
  21539458.0564    -913090.89749   -709212.35947                  21539457.1134
        49.2504         36.5004
  23304112.1524    7382353.12949   5733927.56447                  23304111.4914
        45.5004         27.0004
  23923511.7234    -664297.03249   -503464.11746                  23923513.9084
        39.5004         22.2504
  20447403.0444      55226.53149     43642.29448                  20447402.1594
        52.0004         44.2504
  22175538.8054  -10889161.94649  -8472192.85047                  22175538.2744
        44.7504         33.2504
 04  7  6 21 11 49.9990000  0  6G 1G11G14G16G25G20
  22396964.9634   -7940176.34449  -6178970.42747                  22396965.2894
        44.5004         33.2504
  21540825.4424    -905905.89849   -703613.65647                  21540824.6324
        48.2504         37.0004
  23308147.1974    7403557.57649   5750450.49747                  23308146.5344
        45.0004         26.2504
  23917362.6164    -696607.89249   -528641.35346                  23917364.6174
        39.5004         22.2504
  20449183.8964      64585.14449     50934.72948                  20449182.8844
        52.0004         43.7504
  22169774.2324  -10919458.42449  -8495800.49947                  22169772.9194
        45.7504         34.0004
 04  7  6 21 11 59.9990000  0  6G 1G11G14G16G25G20
  22393174.6034   -7960094.55149  -6194491.08547                  22393174.9464
        44.5004         32.5004
  21542203.4744    -898664.40549   -697970.94647                  21542202.6774
        49.0004         37.0004
  23312183.0624    7424765.24949   5766975.93647                  23312181.8214
        45.0004         28.5004
  23911214.9604    -728918.88249   -553818.63346                  23911216.3824
        40.5004         22.7504
  20450974.5454      73994.83649     58266.93948                  20450973.2304
        52.0004         43.7504
  22164011.8164  -10949737.56349  -8519394.61747                  22164011.2104
        45.0004         34.5004
 04  7  6 21 12  9.9990000  0  6G 1G11G14G16G25G20
  22389387.1274   -7979997.30049  -6209999.71547                  22389387.8004
        45.0004         33.2504
  21543591.3904    -891369.68649   -692286.75047                  21543590.4644
        47.5004         37.2504
  23316218.0114    7445972.99849   5783501.44447                  23316217.7634
        45.5004         28.0004
  23905065.1974    -761232.98449   -578998.34646                  23905066.9834
        40.2504         21.7504
  20452774.0284      83452.44149     65636.50248                  20452773.0904
        51.5004         44.0004
  22158252.8564  -10980002.43349  -8542977.62447                  22158251.1814
        45.0004         34.0004
 04  7  6 21 12 19.9990000  0  6G 1G11G14G16G25G20
  22385602.9164   -7999885.15249  -6225496.71947                  22385603.3524
        43.7504         33.2504
  21544989.3044    -884022.32949   -686561.53647                  21544988.5404
        48.0004         37.2504
  23320253.6864    7467180.17449   5800026.50047                  23320253.4654
        44.7504         27.5004
  23898915.1684    -793550.74249   -604180.95546                  23898916.8534
        40.0004         21.5004
  20454582.7984      92957.38349     73042.95348                  20454581.5914
        51.0004         44.2504
  22152496.0354  -11010253.66749  -8566550.00547                  22152495.2294
        44.2504         34.7504
 04  7  6 21 12 29.9990000  0  6G 1G11G14G16G25G20
  22381821.7054   -8019753.71649  -6240978.71647                  22381822.3264
        44.2504         34.2504
  21546398.6184    -876617.99749   -680791.93747                  21546397.2134
        47.2504         37.7504
  23324290.8404    7488391.28049   5816554.60647                  23324289.9044
        44.5004         27.7504
  23892765.3344    -825867.60949   -629362.81646                  23892767.5744
        40.5004         23.0004
  20456401.6714     102514.01549     80489.68348                  20456400.4904
        51.2504         44.2504
  22146743.2754  -11040486.67949  -8590108.20147                  22146742.0924
        45.2504         35.0004
 04  7  6 21 12 39.9990000  0  6G 1G11G14G16G25G20
  22378044.1054   -8039605.73449  -6256447.78847                  22378045.2204
        45.0004         34.2504
  21547817.8494    -869159.46049   -674980.10247                  21547816.5534
        49.7504         38.0004
  23328327.0274    7509603.58849   5833083.66547                  23328326.3264
        45.2504         27.5004
  23886615.5674    -858186.19449   -654546.08046                  23886617.3644
        41.0004         22.5004
  20458229.4464     112119.44149     87974.41748                  20458228.3224
        52.0004         44.5004
  22140992.2214  -11070704.20149  -8613654.29947                  22140991.3024
        46.0004         35.0004
 04  7  6 21 12 49.9990000  0  6G 1G11G14G16G25G20
  22374269.4004   -8059442.76049  -6271905.19947                  22374270.3484
        43.5004         34.5004
  21549247.5014    -861648.29549   -669127.24647                  21549245.6564
        49.5004         37.7504
  23332363.4294    7530815.51149   5849612.41347                  23332363.2014
        44.5004         28.0004
  23880464.9664    -890507.89849   -679731.74046                  23880467.0854
        40.2504         22.7504
  20460066.2644     121772.09249     95495.97548                  20460065.1464
        51.0004         44.0004
  22135245.2294  -11100907.61049  -8637189.41747                  22135244.2034
        45.7504         34.5004
 04  7  6 21 12 59.9990000  0  6G 1G11G14G16G25G20
  22370498.0404   -8079261.45649  -6287348.30147                  22370498.5904
        43.2504         33.2504
  21550687.2634    -854081.25249   -663230.85247                  21550685.8744
        49.0004         37.5004
  23336400.5244    7552030.38349   5866143.46547                  23336400.0674
        44.5004         26.7504
  23874314.6904    -922829.31549   -704917.18346                  23874316.7064
        40.5004         23.0004
  20461912.6014     131475.25749    103056.88848                  20461911.7494
        52.0004         44.0004
  22129501.0764  -11131093.49349  -8660710.85547                  22129500.3864
        45.5004         34.7504
 04  7  6 21 13  9.9990000  0  6G 1G11G14G16G25G20
  22366729.6014   -8099061.83849  -6302777.15447                  22366730.9744
        44.2504         33.2504
  21552137.6534    -846458.37149   -657290.95347                  21552136.1714
        48.5004         37.0004
  23340437.8744    7573248.13149   5882676.80247                  23340437.4334
        44.5004         26.5004
  23868164.1874    -955150.39949   -730102.32446                  23868165.9234
        40.2504         21.7504
  20463768.6354     141228.89949    110657.12848                  20463767.4104
        52.0004         44.0004
  22123760.3434  -11161261.80549  -8684218.63147                  22123759.2224
        45.5004         34.7504
 04  7  6 21 13 19.9990000  0  6G 1G11G14G16G25G20
  22362964.8674   -8118848.13849  -6318195.06647                  22362965.7884
        44.5004         33.5004
  21553598.2754    -838783.87349   -651310.84447                  21553596.9564
        49.5004         37.2504
  23344476.0554    7594464.67949   5899209.11947                  23344475.0344
        45.2504         25.7504
  23862012.4554    -987475.12849   -755290.37246                  23862014.5334
        40.2504         23.2504
  20465633.7054     151028.79349    118293.38748                  20465632.3774
        52.5004         44.0004
  22118021.8484  -11191416.63149  -8707715.89947                  22118021.0324
        46.0004         34.7504
 04  7  6 21 13 29.9990000  0  6G 1G11G14G16G25G20
  22359202.5184   -8138617.50649  -6333599.72747                  22359203.4764
        44.7504         33.7504
  21555068.6814    -831054.88549   -645288.24647                  21555067.4804
        50.2504         37.5004
  23348513.6784    7615682.87749   5915742.79447                  23348512.6054
        44.5004         27.2504
  23855861.1604   -1019800.52249   -780478.92046                  23855863.2444
        39.7504         22.2504
  20467507.6094     160877.70449    125967.86948                  20467506.3994
        52.0004         44.0004
  22112287.3374  -11221555.05449  -8731200.37147                  22112286.0624
        46.5004         34.7504
 04  7  6 21 13 39.9990000  0  6G 1G11G14G16G25G20
  22355444.0264   -8158369.78049  -6348991.08447                  22355444.8044
        45.0004         34.0004
  21556550.2714    -823271.34849   -639223.15747                  21556548.9294
        50.0004         37.2504
  23352550.8964    7636902.83349   5932277.78147                  23352551.1244
        44.5004         26.7504
  23849709.5704   -1052126.35549   -805667.81546                  23849711.6944
        40.0004         23.7504
  20469391.2554     170775.71049    133680.60548                  20469389.9024
        52.7504         44.0004
  22106554.8814  -11251676.76649  -8754671.81247                  22106553.9954
        46.5004         34.7504
 04  7  6 21 13 49.9990000  0  6G 1G11G14G16G25G20
  22351688.9944   -8178103.39349  -6364367.90747                  22351690.1724
        45.0004         34.5004
  21558041.6844    -815431.80849   -633114.43047                  21558040.8064
        49.7504         37.0004
  23356589.4174    7658126.11249   5948815.40747                  23356589.3144
        44.5004         26.7504
  23843558.2324   -1084450.94949   -830855.75546                  23843560.7294
        39.7504         22.7504
  20471284.4474     180724.28049    141432.74948                  20471283.3624
        52.2504         44.5004
  22100826.4344  -11281780.20949  -8778129.02947                  22100825.7584
        47.0004         35.2504
 04  7  6 21 13 59.9990000  0  6G 1G11G14G16G25G20
  22347937.1644   -8197817.75549  -6379729.72547                  22347937.9634
        44.2504         34.2504
  21559544.5584    -807535.80249   -626961.71447                  21559543.1454
        50.2504         37.2504
  23360629.2444    7679353.30349   5965356.05147                  23360629.0364
        44.5004         26.5004
  23837407.7794   -1116773.56049   -856042.11046                  23837409.9934
        39.7504         23.0004
  20473187.6244     190723.95449    149224.69348                  20473185.6654
        52.0004         44.2504
  22095101.4924  -11311864.67449  -8801571.46947                  22095100.6064
        46.5004         34.5004
 04  7  6 21 14  9.9990000  0  6G 1G11G14G16G25G20
  22344189.4944   -8217514.17549  -6395077.58447                  22344190.2054
        44.5004         34.7504
  21561057.6704    -799584.53949   -620765.93247                  21561056.6884
        50.2504         37.0004
  23364669.4634    7700583.14949   5981898.77947                  23364668.8424
        44.5004         26.5004
  23831256.6514   -1149095.38949   -881227.86146                  23831259.0904
        40.5004         22.5004
  20475100.1614     200773.43149    157055.45248                  20475098.5064
        52.0004         44.5004
  22089380.2324  -11341931.34749  -8825000.02747                  22089379.1114
        45.0004         35.0004
 04  7  6 21 14 19.9990000  0  6G 1G11G14G16G25G20
  22340444.3274   -8237193.02449  -6410411.73247                  22340445.1974
        45.0004         34.0004
  21562580.8054    -791578.48749   -614527.44647                  21562579.5634
        51.0004         37.5004
  23368709.7174    7721815.25349   5998443.24747                  23368709.4994
        44.2504         27.5004
  23825105.8694   -1181416.78549   -906413.31046                  23825107.9524
        38.5004         22.7504
  20477021.4194     210872.26349    164924.66648                  20477020.1584
        51.2504         43.7504
  22083662.0404  -11371980.51149  -8848414.95247                  22083660.8334
        45.5004         35.0004
 04  7  6 21 14 29.9990000  0  6G 1G11G14G16G25G20
  22336702.9724   -8256855.81849  -6425733.38447                  22336703.8734
        45.0004         34.0004
  21564114.4444    -783519.18049   -608247.49247                  21564113.3764
        50.0004         36.2504
  23372750.2174    7743048.05749   6014988.22747                  23372750.2424
        44.7504         26.5004
  23818955.4084   -1213739.03149   -931599.44946                  23818957.0334
        38.5004         23.0004
  20478952.1684     221018.84449    172831.07948                  20478950.8674
        51.5004         43.7504
  22077947.1524  -11402013.62349  -8871817.37747                  22077945.7444
        46.2504         34.0004
 04  7  6 21 14 39.9990000  0  6G 1G11G14G16G25G20
  22332964.6594   -8276500.52949  -6441040.91947                  22332965.8294
        44.5004         34.5004
  21565659.0704    -775404.58949   -601924.42547                  21565657.9634
        49.7504         36.5004
  23376791.4024    7764283.64649   6031535.46947                  23376790.7424
        44.5004         27.2504
  23812805.1714   -1246060.01949   -956784.51146                  23812807.3564
        39.0004         22.7504
  20480892.6114     231215.19249    180776.30048                  20480891.3674
        51.2504         44.5004
  22072235.2664  -11432028.53549  -8895205.59847                  22072233.8894
        45.0004         35.5004
 04  7  6 21 14 49.9990000  0  6G 1G11G14G16G25G20
  22329229.7204   -8296127.33349  -6456334.50847                  22329230.5454
        44.2504         33.7504
  21567213.8534    -767234.97649   -595558.49747                  21567212.2434
        50.2504         37.0004
  23380832.5354    7785521.83449   6048084.68947                  23380832.2334
        44.0004         26.7504
  23806654.2184   -1278379.71849   -981968.62646                  23806656.8984
        39.2504         22.2504
  20482842.3884     241461.09849    188760.12348                  20482840.8224
        51.7504         44.0004
  22066527.2584  -11462025.35549  -8918579.72247                  22066526.3674
        44.0004         35.5004
 04  7  6 21 14 59.9990000  0  6G 1G11G14G16G25G20
  22325498.0274   -8315738.05749  -6471615.58147                  22325498.4364
        45.2504         34.5004
  21568778.3444    -759012.19049   -589151.13647                  21568777.3524
        50.7504         37.7504
  23384874.8064    7806760.88649   6064634.59847                  23384873.9624
        44.2504         28.2504
  23800503.9134   -1310699.80449  -1007153.04146                  23800506.3304
        38.0004         24.7504
  20484801.0394     251754.63849    196781.06848                  20484799.6954
        51.5004         44.5004
  22060822.0514  -11492005.74749  -8941941.06647                  22060821.1684
        46.0004         35.7504
 04  7  6 21 15  9.9990000  0  6G 1G11G14G16G25G20
  22321769.2564   -8335331.98749  -6486883.55947                  22321770.5644
        45.7504         34.7504
  21570353.2334    -750735.52249   -582701.78847                  21570352.3934
        50.2504         37.5004
  23388915.9864    7828001.50949   6081185.71947                  23388916.5444
        43.5004         27.7504
  23794353.5604   -1343019.57649  -1032337.19246                  23794355.5754
        38.7504         22.2504
  20486769.3314     262096.48649    204839.64148                  20486767.7914
        51.2504         44.2504
  22055119.9724  -11521968.95449  -8965288.99947                  22055119.2444
        46.2504         35.5004
 04  7  6 21 15 19.9990000  0  6G 1G11G14G16G25G20
  22318043.9234   -8354909.14549  -6502138.46047                  22318044.5024
        44.7504         33.5004
  21571938.7334    -742405.13349   -576210.58447                  21571938.0234
        50.2504         37.5004
  23392958.4354    7849243.56049   6097737.94647                  23392957.9134
        44.2504         27.2504
  23788203.8484   -1375338.83249  -1057520.95546                  23788205.8044
        38.5004         23.7504
  20488746.1474     272486.56749    212935.81148                  20488744.6494
        52.0004         43.7504
  22049421.4064  -11551914.95649  -8988623.55047                  22049420.5294
        45.7504         35.0004
 04  7  6 21 15 29.9990000  0  6G 1G11G14G16G25G20
  22314322.0974   -8374469.62149  -6517380.38647                  22314322.0374
        46.5004         34.0004
  21573533.8484    -734021.14849   -569677.61547                  21573533.1064
        50.2504         37.0004
  23397001.5404    7870487.04749   6114291.28247                  23397000.6184
        43.0004         27.0004
  23782053.7664   -1407657.66849  -1082704.33946                  23782055.3374
        38.7504         23.5004
  20490732.6614     282924.78249    221069.47548                  20490731.6414
        51.2504         43.7504
  22043726.5744  -11581843.76049  -9011944.69547                  22043725.3624
        45.0004         35.0004
 04  7  6 21 15 39.9990000  0  6G 1G11G14G16G25G20
  22310602.5684   -8394012.89149  -6532608.89147                  22310603.6584
        44.7504         34.0004
  21575139.7264    -725583.01949   -563102.45547                  21575138.7384
        50.5004         35.7504
  23401044.3164    7891732.52249   6130846.18347                  23401043.9684
        42.5004         27.2504
  23775903.7344   -1439975.32649  -1107886.89846                  23775905.5874
        38.2504         22.7504
  20492728.2264     293411.61949    229241.03148                  20492726.9714
        51.0004         43.0004
  22038034.2344  -11611754.63049  -9035251.83847                  22038033.1084
        45.0004         34.7504
 04  7  6 21 15 49.9990000  0  6G 1G11G14G16G25G20
  22306886.8524   -8413539.16649  -6547824.14347                  22306887.3344
        45.0004         34.2504
  21576755.2834    -717091.09649   -556485.37247                  21576754.5144
        50.0004         37.5004
  23405087.1984    7912979.76049   6147402.46047                  23405087.0644
        43.5004         27.2504
  23769753.8384   -1472291.87649  -1133068.52946                  23769755.8984
        39.5004         25.2504
  20494732.9144     303946.75049    237450.22748                  20494731.4184
        50.7504         44.2504
  22032345.8474  -11641647.78449  -9058545.20647                  22032344.8754
        46.0004         35.5004
 04  7  6 21 15 59.9990000  0  6G 1G11G14G16G25G20
  22303174.0474   -8433049.66449  -6563027.11347                  22303174.2984
        44.5004         34.2504
  21578381.4954    -708546.63349   -549827.35947                  21578380.8934
        50.5004         37.0004
  23409130.3834    7934227.58749   6163959.19547                  23409130.3774
        43.2504         27.2504
  23763603.7624   -1504608.49349  -1158250.25946                  23763605.9754
        39.5004         24.0004
  20496746.3914     314528.88749    245696.05348                  20496745.8154
        50.7504         43.7504
  22026660.7334  -11671524.33949  -9081825.62247                  22026659.1274
        46.0004         35.2504
 04  7  6 21 16  9.9990000  0  6G 1G11G14G16G25G20
  22299464.4494   -8452543.28649  -6578216.93747                  22299464.8424
        44.7504         34.2504
  21580017.8284    -699948.52449   -543127.54247                  21580017.1124
        50.7504         37.0004
  23413174.2244    7955477.06149   6180517.22447                  23413174.2714
        43.0004         28.0004
  23757454.9604   -1536923.87949  -1183431.01346                  23757456.2324
        39.5004         25.5004
  20498769.5744     325159.11849    253979.34648                  20498768.2214
        51.2504         44.5004
  22020978.8154  -11701383.08049  -9105092.17347                  22020977.6134
        45.5004         35.5004
 04  7  6 21 16 19.9990000  0  6G 1G11G14G16G25G20
  22295758.2114   -8472019.45549  -6593393.16047                  22295758.4154
        45.0004         34.0004
  21581664.4214    -691296.27649   -536385.53647                  21581663.4644
        50.2504         37.2504
  23417218.8544    7976728.70849   6197076.91847                  23417217.9474
        41.5004         27.0004
  23751306.0994   -1569237.40949  -1208610.33846                  23751308.0374
        40.0004         25.2504
  20500801.6044     335837.97149    262300.52548                  20500800.1604
        50.7504         44.2504
  22015300.0594  -11731223.33849  -9128344.30847                  22015299.2114
        45.2504         35.5004
